[[{"header":{"parameterUnit":"m.s-1","parameterCategory":1,"la1":31.0,"la2":29.5877,"lo1":-88.7671,"lo2":-86.6584,"dy":0.0162,"dx":0.0185,"nx":115,"ny":88,"refTime":"2024-09-22T18:00:00:Z","depth":0,"parameterNumber":2,"parameterNumberName":"U-component_of_WINDS"},"data":[0.0,0.0,0.0,0.0,0.0,0.0,0.0,0.0,0.0,0.0,0.0,0.0,0.0,0.0,0.0,0.0,0.0,0.0,0.0,0.0,0.0,0.0,0.0,0.0,0.0,0.0,0.0,0.0,0.0,0.0,0.0,0.0,0.0,0.0,0.0,0.0,0.0,0.0,0.0,0.0,0.0,0.0,0.0,0.0,0.0,0.0,0.0,0.0,0.0,0.0,0.0,0.0,0.0,0.0,0.0,0.0,0.0,0.0,0.0,0.0,0.0,0.0,0.0,0.0,0.0,0.0,0.0,0.0,0.0,0.0,0.0,0.0,0.0,0.0,0.0,0.0,0.0,0.0,0.0,0.0,0.0,0.0,0.0,0.0,0.0,0.0,0.0,0.0,0.0,0.0,0.0,0.0,0.0,0.0,0.0,0.0,0.0,0.0,0.0,0.0,0.0,0.0,0.0,0.0,0.0,0.0,0.0,0.0,0.0,0.0,0.0,0.0,0.0,0.0,0.0,0.0,0.0,0.0,0.0,0.0,0.0,0.0,0.0,0.0,0.0,0.0,0.0,0.0,0.0,0.0,0.0,0.0,0.0,0.0,0.0,0.0,0.0,0.0,0.0,0.0,0.0,0.0,0.0,0.0,0.0,0.0,0.0,0.0,0.0,0.0,0.0,0.0,0.0,0.0,0.0,0.0,0.0,0.0,0.0,0.0,0.0,0.0,0.0,0.0,0.0,0.0,0.0,0.0,0.0,0.0,0.0,0.0,0.0,0.0,0.0,0.0,0.0,0.0,0.0,0.0,0.0,0.0,0.0,0.0,0.0,0.0,0.0,0.0,0.0,0.0,0.0,0.0,0.0,0.0,0.0,0.0,0.0,0.0,0.0,0.0,0.0,0.0,0.0,0.0,0.0,0.0,0.0,0.0,0.0,0.0,0.0,0.0,0.0,0.0,0.0,0.0,0.0,0.0,0.0,0.0,0.0,0.0,0.0,0.0,0.0,0.0,0.0,0.0,0.0,0.0,0.0,0.0,0.0,0.0,0.0,0.0,0.0,0.0,0.0,0.0,0.0,0.0,0.0,0.0,0.0,0.0,0.0,0.0,0.0,0.0,0.0,0.0,0.0,0.0,0.0,0.0,0.0,0.0,0.0,0.0,0.0,0.0,0.0,0.0,0.0,0.0,0.0,0.0,0.0,0.0,0.0,0.0,0.0,0.0,0.0,0.0,0.0,0.0,0.0,0.0,0.0,0.0,0.0,0.0,0.0,0.0,0.0,0.0,0.0,0.0,0.0,0.0,0.0,0.0,0.0,0.0,0.0,0.0,0.0,0.0,0.0,0.0,0.0,0.0,0.0,0.0,0.0,0.0,0.0,0.0,0.0,0.0,0.0,0.0,0.0,0.0,0.0,0.0,0.0,0.0,0.0,0.0,0.0,0.0,0.0,0.0,0.0,0.0,0.0,0.0,0.0,0.0,0.0,0.0,0.0,0.0,0.0,0.0,0.0,0.0,0.0,0.0,0.0,0.0,0.0,0.0,0.0,0.0,0.0,0.0,0.0,0.0,0.0,0.0,0.0,0.0,0.0,0.0,0.0,0.0,0.0,0.0,0.0,0.0,0.0,0.0,0.0,0.0,0.0,0.0,0.0,0.0,0.0,0.0,0.0,0.0,0.0,0.0,0.0,0.0,0.0,0.0,0.0,0.0,0.0,0.0,0.0,0.0,0.0,0.0,0.0,0.0,0.0,0.0,0.0,0.0,0.0,0.0,0.0,0.0,0.0,0.0,0.0,0.0,0.0,0.0,0.0,0.0,0.0,0.0,0.0,0.0,0.0,0.0,0.0,0.0,0.0,0.0,0.0,0.0,0.0,0.0,0.0,0.0,0.0,0.0,0.0,0.0,0.0,0.0,0.0,0.0,0.0,0.0,0.0,0.0,0.0,0.0,0.0,0.0,0.0,0.0,0.0,0.0,0.0,0.0,0.0,0.0,0.0,0.0,0.0,0.0,0.0,0.0,0.0,0.0,0.0,0.0,0.0,0.0,0.0,0.0,0.0,0.0,0.0,0.0,0.0,0.0,0.0,0.0,0.0,0.0,0.0,0.0,0.0,0.0,0.0,0.0,0.0,0.0,0.0,0.0,0.0,0.0,0.0,0.0,0.0,0.0,0.0,0.0,0.0,0.0,0.0,0.0,0.0,0.0,0.0,0.0,0.0,0.0,0.0,0.0,0.0,0.0,0.0,0.0,0.0,0.0,0.0,0.0,0.0,0.0,0.0,0.0,0.0,0.0,0.0,0.0,0.0,0.0,0.0,0.0,0.0,0.0,0.0,0.0,0.0,0.0,0.0,0.0,0.0,0.0,0.0,0.0,0.0,0.0,0.0,0.0,0.0,0.0,0.0,0.0,0.0,0.0,0.0,0.0,0.0,0.0,0.0,0.0,0.0,0.0,0.0,0.0,0.0,0.0,0.0,0.0,0.0,0.0,0.0,0.0,0.0,0.0,0.0,0.0,0.0,0.0,0.0,0.0,0.0,0.0,0.0,0.0,0.0,0.0,0.0,0.0,0.0,0.0,0.0,0.0,0.0,0.0,0.0,0.0,0.0,0.0,0.0,0.0,0.0,0.0,0.0,0.0,0.0,0.0,0.0,0.0,0.0,0.0,0.0,0.0,0.0,0.0,0.0,0.0,0.0,0.0,0.0,0.0,0.0,0.0,0.0,0.0,0.0,0.0,0.0,0.0,0.0,0.0,0.0,0.0,0.0,0.0,0.0,0.0,0.0,0.0,0.0,0.0,0.0,0.0,0.0,0.0,0.0,0.0,0.0,0.0,0.0,0.0,0.0,0.0,0.0,0.0,0.0,0.0,0.0,0.0,0.0,0.0,0.0,0.0,0.0,0.0,0.0,0.0,0.0,0.0,0.0,0.0,0.0,0.0,0.0,0.0,0.0,0.0,0.0,0.0,0.0,0.0,0.0,0.0,0.0,0.0,0.0,0.0,0.0,0.0,0.0,0.0,0.0,0.0,0.0,0.0,0.0,0.0,0.0,0.0,0.0,0.0,0.0,0.0,0.0,0.0,0.0,0.0,0.0,0.0,0.0,0.0,0.0,0.0,0.0,0.0,0.0,0.0,0.0,0.0,0.0,0.0,0.0,0.0,0.0,0.0,0.0,0.0,0.0,0.0,0.0,0.0,0.0,0.0,0.0,0.0,0.0,0.0,0.0,0.0,0.0,0.0,0.0,0.0,0.0,0.0,0.0,0.0,0.0,0.0,0.0,0.0,0.0,0.0,0.0,0.0,0.0,0.0,0.0,0.0,0.0,0.0,0.0,0.0,0.0,0.0,0.0,0.0,0.0,0.0,0.0,0.0,0.0,0.0,0.0,0.0,0.0,0.0,0.0,0.0,0.0,0.0,0.0,0.0,0.0,0.0,0.0,0.0,0.0,0.0,0.0,0.0,0.0,0.0,0.0,0.0,0.0,0.0,0.0,0.0,0.0,0.0,0.0,0.0,0.0,0.0,0.0,0.0,0.0,0.0,0.0,0.0,0.0,0.0,0.0,0.0,0.0,0.0,0.0,0.0,0.0,0.0,0.0,0.0,0.0,0.0,0.0,0.0,0.0,0.0,0.0,0.0,0.0,0.0,0.0,0.0,0.0,0.0,0.0,0.0,0.0,0.0,0.0,0.0,0.0,0.0,0.0,0.0,0.0,0.0,0.0,0.0,0.0,0.0,0.0,0.0,0.0,0.0,0.0,0.0,0.0,0.0,0.0,0.0,0.0,0.0,0.0,0.0,0.0,0.0,0.0,0.0,0.0,0.0,0.0,0.0,0.0,0.0,0.0,0.0,0.0,0.0,0.0,0.0,0.0,0.0,0.0,0.0,0.0,0.0,0.0,0.0,0.0,0.0,0.0,0.0,0.0,0.0,0.0,0.0,0.0,0.0,0.0,0.0,0.0,0.0,0.0,0.0,0.0,0.0,0.0,0.0,0.0,0.0,0.0,0.0,0.0,0.0,0.0,0.0,0.0,0.0,0.0,0.0,0.0,0.0,0.0,0.0,0.0,0.0,0.0,0.0,0.0,0.0,0.0,0.0,0.0,0.0,0.0,0.0,0.0,0.0,0.0,0.0,0.0,0.0,0.0,0.0,0.0,0.0,0.0,0.0,0.0,0.0,0.0,0.0,0.0,0.0,0.0,0.0,0.0,0.0,0.0,0.0,0.0,0.0,0.0,0.0,0.0,0.0,0.0,0.0,0.0,0.0,0.0,0.0,0.0,0.0,1.4021,0.0,0.0,0.0,0.0,0.0,0.0,0.0,0.0,0.0,0.0,0.0,0.0,0.0,0.0,0.0,0.0,0.0,0.0,0.0,0.0,0.0,0.0,0.0,0.0,0.0,0.0,0.0,0.0,0.0,0.0,0.0,0.0,0.0,0.0,0.0,0.0,0.0,0.0,0.0,0.0,0.0,0.0,0.0,0.0,0.0,0.0,0.0,0.0,0.0,0.0,0.0,0.0,0.0,0.0,0.0,0.0,0.0,0.0,0.0,0.0,0.0,0.0,0.0,0.0,0.0,0.0,0.0,0.0,0.0,0.0,0.0,0.0,0.0,0.0,0.0,0.0,0.0,0.0,0.0,0.0,0.0,0.0,0.0,0.0,0.0,0.0,0.0,0.0,0.0,0.0,0.0,0.0,0.0,0.0,0.0,0.0,0.0,0.0,0.0,0.0,0.0,0.0,0.0,0.0,0.0,0.0,0.0,0.0,0.0,0.0,1.5231,1.5275,1.4915,1.4472,1.4,0.0,0.0,0.0,0.0,0.0,0.0,0.0,0.0,0.0,0.0,0.0,0.0,0.0,0.0,0.0,0.0,0.0,0.0,0.0,0.0,0.0,0.0,0.0,0.0,0.0,0.0,0.0,0.0,0.0,0.0,0.0,0.0,0.0,0.0,0.0,0.0,0.0,0.0,0.0,0.0,0.0,0.0,0.0,0.0,0.0,0.0,0.0,0.0,0.0,0.0,0.0,0.0,0.0,0.0,0.0,0.0,0.0,0.0,0.0,0.0,0.0,0.0,0.0,0.0,0.0,0.0,0.0,0.0,0.0,0.0,0.0,0.0,0.0,0.0,0.0,0.0,0.0,0.0,0.0,0.0,0.0,0.0,0.0,0.0,0.0,0.0,0.0,0.0,0.0,0.0,0.0,0.0,0.0,0.0,0.0,0.0,0.0,0.0,0.0,0.0,0.0,0.0,0.0,0.0,0.0,0.0,0.0,0.0,0.0,0.0,0.0,0.0,1.4724,1.4165,1.37,0.0,0.0,0.0,0.0,0.0,0.0,0.0,0.0,0.0,0.0,0.0,0.0,0.0,0.0,0.0,0.0,0.0,0.0,0.0,0.0,0.0,0.0,0.0,0.0,0.0,0.0,0.0,0.0,0.0,0.0,0.0,0.0,0.0,0.0,0.0,0.0,0.0,0.0,0.0,0.0,0.0,0.0,0.0,0.0,0.0,0.0,0.0,0.0,0.0,0.0,0.0,0.0,0.0,0.0,0.0,0.0,0.0,0.0,0.0,0.0,0.0,0.0,0.0,0.0,0.0,0.0,0.0,0.0,0.0,0.0,0.0,0.0,0.0,0.0,0.0,0.0,0.0,0.0,0.0,0.0,0.0,0.0,0.0,0.0,0.0,0.0,0.0,0.0,0.0,0.0,0.0,0.0,0.0,0.0,0.0,0.0,0.0,0.0,0.0,0.0,0.0,0.0,0.0,0.0,0.0,0.0,0.0,0.0,0.0,0.0,1.5137,1.5378,1.5295,0.0,1.292,0.0,0.0,0.0,0.0,0.0,0.0,0.0,0.0,0.0,0.0,0.0,0.0,0.0,0.0,0.0,0.0,0.0,0.0,0.0,0.0,0.0,0.0,0.0,0.0,0.0,0.0,0.0,0.0,0.0,0.0,0.0,0.0,0.0,0.0,0.0,0.0,0.0,0.0,0.0,0.0,0.0,0.0,0.0,0.0,0.0,0.0,0.0,0.0,0.0,0.0,0.0,0.0,0.0,0.0,0.0,0.0,0.0,0.0,0.0,0.0,0.0,0.0,0.0,0.0,0.0,0.0,0.0,0.0,0.0,0.0,0.0,0.0,0.0,0.0,0.0,0.0,0.0,0.0,0.0,0.0,0.0,0.0,0.0,0.0,0.0,0.0,0.0,0.0,0.0,0.0,0.0,0.0,0.0,0.0,0.0,0.0,0.0,0.0,0.0,0.0,0.0,0.0,0.0,0.0,0.0,0.0,0.0,0.0,0.0,0.0,1.5144,1.5331,1.435,1.3209,0.0,0.0,0.0,0.0,0.0,0.0,0.0,0.0,0.0,0.0,0.0,0.0,0.0,0.0,0.0,0.0,0.0,0.0,0.0,0.0,0.0,0.0,0.0,0.0,0.0,0.0,0.0,0.0,0.0,0.0,0.0,0.0,0.0,0.0,0.0,0.0,0.0,0.0,0.0,0.0,0.0,0.0,0.0,0.0,0.0,0.0,0.0,0.0,0.0,0.0,0.0,0.0,0.0,0.0,0.0,0.0,0.0,0.0,0.0,0.0,0.0,0.0,0.0,0.0,0.0,0.0,0.0,0.0,0.0,0.0,0.0,0.0,0.0,0.0,0.0,0.0,0.0,0.0,0.0,0.0,0.0,0.0,0.0,0.0,0.0,0.0,0.0,0.0,0.0,0.0,0.0,0.0,0.0,0.0,0.0,0.0,0.0,0.0,0.0,0.0,0.0,0.0,0.0,0.0,0.0,0.0,0.0,0.0,0.0,0.0,1.4816,1.5013,1.491,1.3961,1.2776,1.1419,0.0,0.0,0.0,0.0,0.0,0.0,0.0,0.0,0.0,0.0,0.0,0.0,0.0,0.0,0.0,0.0,0.0,0.0,0.0,0.0,0.0,0.0,0.0,0.0,0.0,0.0,0.0,0.0,0.0,0.0,0.0,0.0,0.0,0.0,0.0,0.0,0.0,0.0,0.0,0.0,0.0,0.0,0.0,0.0,0.0,0.0,0.0,0.0,0.0,0.0,0.0,0.0,0.0,0.0,0.0,0.0,0.0,0.0,0.0,0.0,0.0,0.0,0.0,0.0,0.0,0.0,0.0,0.0,0.0,0.0,0.0,0.0,0.0,0.0,0.0,0.0,0.0,0.0,0.0,0.0,0.0,0.0,0.0,0.0,0.0,0.0,0.0,0.0,0.0,0.0,0.0,0.0,0.0,0.0,0.0,0.0,0.0,0.0,0.0,0.0,0.0,0.0,0.0,0.0,0.0,0.0,0.0,0.0,0.0,1.4497,1.4648,1.4119,1.4794,1.3975,0.0,0.0,0.0,0.0,0.0,0.0,0.0,0.0,0.0,0.0,0.0,0.0,0.0,0.0,0.0,0.0,0.0,0.0,0.0,0.0,0.0,0.0,0.0,0.0,0.0,0.0,0.0,0.0,0.0,0.0,0.0,0.0,0.0,0.0,0.0,0.0,0.0,0.0,0.0,0.0,0.0,0.0,0.0,0.0,0.0,0.0,0.0,0.0,0.0,0.0,0.0,0.0,0.0,0.0,0.0,0.0,0.0,0.0,0.0,0.0,0.0,0.0,0.0,0.0,0.0,0.0,0.0,0.0,0.0,0.0,0.0,0.0,0.0,0.0,0.0,0.0,0.0,0.0,0.0,0.0,0.0,0.0,0.0,0.0,0.0,0.0,0.0,0.0,0.0,0.0,0.0,0.0,0.0,0.0,0.0,0.0,0.0,0.0,0.0,0.0,0.0,0.0,0.0,0.0,0.0,0.0,0.0,0.0,0.0,1.3475,1.4539,1.4779,1.4019,1.3768,1.2886,0.0,0.0,0.0,0.0,0.0,0.0,0.0,0.0,0.0,0.0,0.0,0.0,0.0,0.0,0.0,0.0,0.0,0.0,0.0,0.0,0.0,0.0,0.0,0.0,0.0,0.0,0.0,0.0,0.0,0.0,0.0,0.0,0.0,0.0,0.0,0.0,0.0,0.0,0.0,0.0,0.0,0.0,0.0,0.0,0.0,0.0,0.0,0.0,0.0,0.0,0.0,0.0,0.0,0.0,0.0,0.0,0.0,0.0,0.0,0.0,0.0,0.0,0.0,0.0,0.0,0.0,0.0,0.0,0.0,0.0,0.0,0.0,0.0,0.0,0.0,0.0,0.0,0.0,0.0,0.0,0.0,0.0,0.0,0.0,0.0,0.0,0.0,0.0,0.0,0.0,0.0,0.0,0.0,0.0,0.0,0.0,0.0,0.0,0.0,0.0,0.0,0.0,0.0,0.0,0.0,0.0,0.0,0.0,0.0,1.3356,0.0,1.4606,0.0,1.3252,1.2349,0.0,0.0,0.0,0.0,0.0,0.0,0.0,0.0,0.0,0.0,0.0,0.0,0.0,0.0,0.0,0.0,0.0,0.0,0.0,0.0,0.0,0.0,0.0,0.0,0.0,0.0,0.0,0.0,0.0,0.0,0.0,0.0,0.0,0.0,0.0,0.0,0.0,0.0,0.0,0.0,0.0,0.0,0.0,0.0,0.0,0.0,0.0,0.0,0.0,0.0,0.0,0.0,0.0,0.0,0.0,0.0,0.0,0.0,0.0,0.0,0.0,0.0,0.0,0.0,0.0,0.0,0.0,0.0,0.0,0.0,0.0,0.0,0.0,0.0,0.0,0.0,0.0,0.0,0.0,0.0,0.0,0.0,0.0,0.0,0.0,0.0,0.0,0.0,0.0,0.0,0.0,0.0,0.0,0.0,0.0,0.0,0.0,0.0,0.0,0.0,0.0,0.0,0.0,0.0,0.0,0.0,0.0,0.0,1.3121,1.3474,1.3991,1.3995,1.3505,1.3355,1.2512,0.0,0.0,0.0,0.0,0.0,0.0,0.0,0.0,0.0,0.0,0.0,0.0,0.0,0.0,0.0,0.0,0.0,0.0,0.0,0.0,0.0,0.0,0.0,0.0,0.0,0.0,0.0,0.0,0.0,0.0,0.0,0.0,0.0,0.0,0.0,0.0,0.0,0.0,0.0,0.0,0.0,0.0,0.0,0.0,0.0,0.0,0.0,0.0,0.0,0.0,0.0,0.0,0.0,0.0,0.0,0.0,0.0,0.0,0.0,0.0,0.0,0.0,0.0,0.0,0.0,0.0,0.0,0.0,0.0,0.0,0.0,0.0,0.0,0.0,0.0,0.0,0.0,0.0,0.0,0.0,0.0,0.0,0.0,0.0,0.0,0.0,0.0,0.0,0.0,0.0,0.0,0.0,0.0,0.0,0.0,0.0,0.0,0.0,0.0,0.0,0.0,0.0,0.0,0.0,0.0,0.0,0.0,0.0,0.0,1.2578,1.2668,1.2801,1.2926,1.2253,1.1377,0.0,0.0,0.0,0.0,0.0,0.0,0.0,0.0,0.0,0.0,0.0,0.0,0.0,0.0,0.0,0.0,0.0,0.0,0.0,0.0,0.0,0.0,0.0,0.0,0.0,0.0,0.0,0.0,0.0,0.0,0.0,0.0,0.0,0.0,0.0,0.0,0.0,0.0,0.0,0.0,0.0,0.0,0.0,0.0,0.0,0.0,0.0,0.0,0.0,0.0,0.0,0.0,0.0,0.0,0.0,0.0,0.0,0.0,0.0,0.0,0.0,0.0,0.0,0.0,0.0,0.0,0.0,0.0,0.0,0.0,0.0,0.0,0.0,0.0,0.0,0.0,0.0,0.0,0.0,0.0,0.0,0.0,0.0,0.0,0.0,0.0,0.0,0.0,0.0,0.0,0.0,0.0,0.0,0.0,0.0,0.0,0.0,0.0,0.0,0.0,0.0,0.0,0.0,0.0,0.0,0.0,0.0,0.0,0.0,1.064,1.1547,1.2094,1.2211,1.1559,1.092,1.0322,0.0,0.0,0.0,0.0,0.0,0.0,0.0,0.0,0.0,0.0,0.0,0.0,0.0,0.0,0.0,0.0,0.0,0.0,0.0,0.0,0.0,0.0,0.0,0.0,0.0,0.0,0.0,0.0,0.0,0.0,0.0,0.0,0.0,0.0,0.0,0.0,0.0,0.0,0.0,0.0,0.0,0.0,0.0,0.0,0.0,0.0,0.0,0.0,0.0,0.0,0.0,0.0,0.0,0.0,0.0,0.0,0.0,0.0,0.0,0.0,0.0,0.0,0.0,0.0,0.0,0.0,0.0,0.0,0.0,0.0,0.0,0.0,0.0,0.0,0.0,0.0,0.0,0.0,0.0,0.0,0.0,0.0,0.0,0.0,0.0,0.0,0.0,0.0,0.0,0.0,0.0,0.0,0.0,0.0,0.0,0.0,0.0,0.0,0.0,0.0,0.0,0.0,0.0,0.0,0.0,0.0,0.0,0.0,0.7922,1.0578,1.1767,1.1367,1.12,1.0968,0.0,0.0,0.0,0.0,0.0,0.0,0.0,0.0,0.0,0.0,0.0,0.0,0.0,0.0,0.0,0.0,0.0,0.0,0.0,0.0,0.0,0.0,0.0,0.0,0.0,0.0,0.0,0.0,0.0,0.0,0.0,0.0,0.0,0.0,0.0,0.0,0.0,0.0,0.0,0.0,0.0,0.0,0.0,0.0,0.0,0.0,0.0,0.0,0.0,0.0,0.0,0.0,0.0,0.0,0.0,0.0,0.0,0.0,0.0,0.0,0.0,0.0,0.0,0.0,0.0,0.0,0.0,0.0,0.0,0.0,0.0,0.0,0.0,0.0,0.0,0.0,0.0,0.0,0.0,0.0,0.0,0.0,0.0,0.0,0.0,0.0,0.0,0.0,0.0,0.0,0.0,0.0,0.0,0.0,0.0,0.0,0.0,0.0,0.0,0.0,0.0,0.0,0.0,0.0,0.0,0.0,0.0,0.0,0.0,0.722,0.9325,1.0544,1.0649,1.0382,1.0351,0.0,0.0,0.0,0.0,0.0,0.0,0.0,0.0,0.0,0.0,0.0,0.0,0.0,0.0,0.0,0.0,0.0,0.0,0.0,0.0,0.0,0.0,0.0,0.0,0.0,0.0,0.0,0.0,0.0,0.0,0.0,0.0,0.0,0.0,0.0,0.0,0.0,0.0,0.0,0.0,0.0,0.0,0.0,0.0,0.0,0.0,0.0,0.0,0.0,0.0,0.0,0.0,0.0,0.0,0.0,0.0,0.0,0.0,0.0,0.0,0.0,0.0,0.0,0.0,0.0,0.0,0.0,0.0,0.0,0.0,0.0,0.0,0.0,0.0,0.0,0.0,0.0,0.0,0.0,0.0,0.0,0.0,0.0,0.0,0.0,0.0,0.0,0.0,0.0,0.0,0.0,0.0,0.0,0.0,0.0,0.0,0.0,0.0,0.0,0.0,0.0,0.0,0.0,0.0,0.0,0.0,0.0,0.0,0.6625,0.633,0.8303,0.9588,1.0079,0.9966,1.0215,0.0,0.0,0.0,0.0,0.0,0.0,0.0,0.0,0.0,0.0,0.0,0.0,0.0,0.0,0.0,0.0,0.0,0.0,0.0,0.0,0.0,0.0,0.0,0.0,0.0,0.0,0.0,0.0,0.0,0.0,0.0,0.0,0.0,0.0,0.0,0.0,0.0,0.0,0.0,0.0,0.0,0.0,0.0,0.0,0.0,0.0,0.0,0.0,0.0,0.0,0.0,0.0,0.0,0.0,0.0,0.0,0.0,0.0,0.0,0.0,0.0,0.0,0.0,0.0,0.0,0.0,0.0,0.0,0.0,0.0,0.0,0.0,0.0,0.0,0.0,0.0,0.0,0.0,0.0,0.0,0.0,0.0,0.0,0.0,0.0,0.0,0.0,0.0,0.0,0.0,0.0,0.0,0.0,0.0,0.0,0.0,0.0,0.0,0.0,0.0,0.0,0.0,0.0,0.0,0.0,0.0,0.0,0.0,0.5558,0.5691,0.7603,0.8956,0.9693,0.9903,1.0378,0.0,0.0,0.0,0.0,0.0,0.0,0.0,0.0,0.0,0.0,0.0,0.0,0.0,0.0,0.0,0.0,0.0,0.0,0.0,0.0,0.0,0.0,0.0,0.0,0.0,0.0,0.0,0.0,0.0,0.0,0.0,0.0,0.0,0.0,0.0,0.0,0.0,0.0,0.0,0.0,0.0,0.0,0.0,0.0,0.0,0.0,0.0,0.0,0.0,0.0,0.0,0.0,0.0,0.0,0.0,0.0,0.0,0.0,0.0,0.0,0.0,0.0,0.0,0.0,0.0,0.0,0.0,0.0,0.0,0.0,0.0,0.0,0.0,0.0,0.0,0.0,0.0,0.0,0.0,0.0,0.0,0.0,0.0,0.0,0.0,0.0,0.0,0.0,0.0,0.0,0.0,0.0,0.0,0.0,0.0,0.0,0.0,0.0,0.0,0.0,0.0,0.0,0.0,0.0,0.0,0.0,0.0,0.0,0.537,0.6074,0.7734,0.9029,0.9922,1.0213,1.0827,0.0,0.0,0.0,0.0,0.0,0.0,0.0,0.0,0.0,0.0,0.0,0.0,0.0,0.0,0.0,0.0,0.0,0.0,0.0,0.0,0.0,0.0,0.0,0.0,0.0,0.0,0.0,0.0,0.0,0.0,0.0,0.0,0.0,0.0,0.0,0.0,0.0,0.0,0.0,0.0,0.0,0.0,0.0,0.0,0.0,0.0,0.0,0.0,1.463,0.0,0.0,0.0,0.0,0.0,0.0,0.0,0.0,0.0,0.0,0.0,0.0,0.0,0.0,0.0,0.0,0.0,0.0,0.0,0.0,0.0,0.0,0.0,0.0,0.0,0.0,0.0,0.0,0.0,0.0,0.0,0.0,0.0,0.0,0.0,0.0,0.0,0.0,0.0,0.0,0.0,0.0,0.0,0.0,0.0,0.0,0.0,0.0,0.0,0.0,0.0,0.0,0.0,0.0,0.0,0.0,0.0,0.0,0.0,0.5257,0.63,0.7745,0.9062,1.0182,1.0696,1.1209,0.0,0.0,0.0,0.0,0.0,0.0,0.0,0.0,0.0,0.0,0.0,0.0,0.0,0.0,0.0,0.0,0.0,0.0,0.0,0.0,0.0,0.0,0.0,0.0,0.0,0.0,0.0,0.0,0.0,0.0,0.0,0.0,0.0,0.0,0.0,0.0,0.0,0.0,0.0,0.0,0.0,0.0,0.0,0.0,0.0,0.0,0.0,0.0,0.0,0.0,0.0,0.0,0.0,0.0,0.0,0.0,0.0,0.0,0.0,0.0,0.0,0.0,0.0,0.0,0.0,0.0,0.0,0.0,0.0,0.0,0.0,0.0,0.0,0.0,0.0,0.0,0.0,0.0,0.0,0.0,0.0,0.0,0.0,0.0,0.0,0.0,0.0,0.0,0.0,0.0,0.0,0.0,0.0,0.0,0.0,0.0,0.0,0.0,0.0,0.0,0.0,0.0,0.0,0.0,0.0,0.0,0.0,0.4583,0.5377,0.6608,0.7811,0.9068,1.0316,1.0961,1.1401,1.1612,0.0,0.0,0.0,0.0,0.0,0.0,0.0,0.0,0.0,0.0,0.0,0.0,0.0,0.0,0.0,0.0,0.0,0.0,0.0,0.0,0.0,0.0,0.0,0.0,0.0,0.0,0.0,0.0,0.0,0.0,0.0,0.0,0.0,0.0,0.0,0.0,0.0,0.0,1.408,1.4248,0.0,0.0,0.0,0.0,0.0,0.0,0.0,0.0,1.4438,0.0,0.0,0.0,0.0,0.0,0.0,0.0,0.0,0.0,0.0,0.0,0.0,0.0,0.0,0.0,0.0,0.0,0.0,0.0,0.0,0.0,0.0,0.0,0.0,0.0,0.0,0.0,0.0,0.0,0.0,0.0,0.0,0.0,0.0,0.0,0.0,0.0,0.0,0.0,0.0,0.0,0.0,0.0,0.0,0.0,0.0,0.0,0.0,0.0,0.0,0.0,0.0,0.0,0.0,0.0,0.0,0.5588,0.5499,0.6159,0.7603,0.8301,0.899,0.9744,1.044,1.0974,1.127,0.0,0.0,0.0,0.0,0.0,0.0,0.0,0.0,0.0,0.0,0.0,0.0,0.0,0.0,0.0,0.0,0.0,0.0,0.0,0.0,0.0,0.0,0.0,0.0,0.0,0.0,0.0,0.0,0.0,0.0,0.0,0.0,0.0,0.0,0.0,0.0,0.0,0.0,0.0,1.3892,1.4005,0.0,0.0,0.0,0.0,0.0,0.0,0.0,0.0,1.5083,0.0,0.0,0.0,0.0,0.0,0.0,0.0,0.0,0.0,0.0,0.0,0.0,0.0,0.0,0.0,0.0,0.0,0.0,0.0,0.0,0.0,0.0,0.0,0.0,0.0,0.0,0.0,0.0,0.0,0.0,0.0,0.0,0.0,0.0,0.0,0.0,0.0,0.0,0.0,0.0,0.0,0.0,0.0,0.0,0.0,0.0,0.0,0.0,0.0,0.0,0.0,0.0,0.0,0.0,0.0,0.5899,0.5803,0.6479,0.7953,0.8578,0.9139,0.9738,1.043,1.096,0.0,0.0,0.0,0.0,0.0,0.0,0.0,0.0,0.0,0.0,0.0,0.0,0.0,0.0,0.0,0.0,0.0,0.0,0.0,0.0,0.0,0.0,0.0,0.0,0.0,0.0,0.0,0.0,0.0,0.0,0.0,0.0,0.0,0.0,0.0,0.0,0.0,0.0,0.0,0.0,1.3376,1.3462,1.3535,0.0,0.0,0.0,0.0,0.0,0.0,1.408,1.4567,0.0,0.0,0.0,0.0,0.0,0.0,0.0,0.0,0.0,0.0,0.0,0.0,0.0,0.0,0.0,0.0,0.0,0.0,0.0,0.0,0.0,0.0,0.0,0.0,0.0,0.0,0.0,0.0,0.0,0.0,0.0,0.0,0.0,0.0,0.0,0.0,0.0,0.0,0.0,0.0,0.0,0.0,0.0,0.0,0.0,0.0,0.0,0.0,0.0,0.0,0.0,0.0,0.0,0.0,0.0,0.6121,0.6238,0.6969,0.831,0.8966,0.9508,0.9921,1.0414,1.0853,0.0,0.0,0.0,0.0,0.0,0.0,0.0,0.0,0.0,0.0,0.0,0.0,0.0,0.0,0.0,0.0,0.0,0.0,0.0,0.0,0.0,0.0,0.0,0.0,0.0,0.0,0.0,0.0,0.0,0.0,0.0,0.0,0.0,0.0,0.0,0.0,0.0,0.0,0.0,0.0,0.0,1.3269,1.32,1.4014,0.0,0.0,0.0,0.0,1.3597,1.3387,0.0,0.0,0.0,0.0,0.0,0.0,0.0,0.0,0.0,0.0,0.0,0.0,0.0,0.0,0.0,0.0,0.0,0.0,0.0,0.0,0.0,0.0,0.0,0.0,0.0,0.0,0.0,0.0,0.0,0.0,0.0,0.0,0.0,0.0,0.0,0.0,0.0,0.0,0.0,0.0,0.0,0.0,0.0,0.0,0.0,0.0,0.0,0.0,0.0,0.0,0.0,0.0,0.0,0.0,0.0,0.0,0.686,0.7446,0.8245,0.9214,0.9948,1.0218,0.9984,0.9954,1.0163,0.0,0.0,0.0,0.0,0.0,0.0,0.0,0.0,0.0,0.0,0.0,0.0,0.0,0.0,0.0,0.0,0.0,0.0,0.0,0.0,0.0,0.0,0.0,0.0,0.0,0.0,0.0,0.0,0.0,0.0,0.0,0.0,0.0,0.0,0.0,0.0,0.0,0.0,0.0,0.0,0.0,1.3958,1.3222,1.4449,1.4829,0.0,0.0,1.3849,1.1846,1.2335,0.0,0.0,0.0,0.0,0.0,0.0,0.0,0.0,0.0,0.0,0.0,0.0,0.0,0.0,0.0,0.0,0.0,0.0,0.0,0.0,0.0,0.0,0.0,0.0,0.0,0.0,0.0,0.0,0.0,0.0,0.0,0.0,0.0,0.0,0.0,0.0,0.0,0.0,0.0,0.0,0.0,0.0,0.0,0.0,0.0,0.0,0.0,0.0,0.0,0.0,0.0,0.0,0.0,0.0,0.0,0.6734,0.7019,0.7544,0.8316,0.927,0.9735,0.9986,0.9953,0.992,1.0132,0.0,0.0,0.0,0.0,0.0,0.0,0.0,0.0,0.0,0.0,0.0,0.0,0.0,0.0,0.0,0.0,0.0,0.0,0.0,0.0,0.0,0.0,0.0,0.0,0.0,0.0,0.0,0.0,0.0,0.0,0.0,0.0,0.0,0.0,0.0,0.0,0.0,0.0,0.0,0.0,0.0,0.0,1.3149,1.4472,0.0,0.0,0.0,1.3242,1.1916,0.0,0.0,0.0,0.0,0.0,0.0,0.0,0.0,0.0,0.0,0.0,0.0,0.0,0.0,0.0,0.0,0.0,0.0,0.0,0.0,0.0,0.0,0.0,0.0,0.0,0.0,0.0,0.0,0.0,0.0,0.0,0.0,0.0,0.0,0.0,0.0,0.0,0.0,0.0,0.0,0.0,0.0,0.0,0.0,0.0,0.0,0.0,0.0,0.0,0.0,0.0,0.0,0.0,0.0,0.0,0.0,0.0,0.7299,0.7931,0.8612,0.9366,0.9887,1.0075,0.9927,0.997,0.0,0.0,0.0,0.0,0.0,0.0,0.0,0.0,0.0,0.0,0.0,0.0,0.0,0.0,0.0,0.0,0.0,0.0,0.0,0.0,0.0,0.0,0.0,0.0,0.0,0.0,0.0,0.9705,0.0,0.0,0.0,0.0,0.0,0.0,0.0,0.0,0.0,0.0,0.0,0.0,0.0,0.0,1.3342,1.3315,1.467,1.5289,0.0,0.0,1.2937,1.2105,1.097,0.9958,0.0,0.0,0.0,0.0,0.0,0.0,0.0,0.0,0.0,0.0,0.0,0.0,0.0,0.0,0.0,0.0,0.0,0.0,0.0,0.0,0.0,0.0,0.0,0.0,0.0,0.0,0.0,0.0,0.0,0.0,0.0,0.0,0.0,0.0,0.0,0.0,0.0,0.0,0.0,0.0,0.0,0.0,0.0,0.0,0.0,0.0,0.0,0.0,0.0,0.0,0.0,0.0,0.0,0.0,0.0,0.8129,0.9205,0.9751,0.9891,1.1031,1.1127,1.0045,1.0015,0.9876,0.0,0.0,0.0,0.0,0.0,0.0,0.0,0.0,0.0,0.0,0.0,0.0,0.0,0.0,0.0,0.0,0.0,0.0,0.0,0.0,0.0,0.0,0.0,0.0,0.0,0.0,0.0,0.0,0.0,0.0,0.0,0.0,0.0,0.0,0.0,0.0,0.0,0.0,0.0,0.0,0.0,1.4179,1.3896,1.543,1.5834,0.0,0.0,1.3329,1.1852,1.0843,0.9744,0.8328,0.0,0.0,0.0,0.0,0.0,0.0,0.0,0.0,0.0,0.0,0.0,0.0,0.0,0.0,0.0,0.0,0.0,0.0,0.0,0.0,0.0,0.0,0.0,0.0,0.0,0.0,0.0,0.0,0.0,0.0,0.0,0.0,0.0,0.0,0.0,0.0,0.0,0.0,0.0,0.0,0.0,0.0,0.0,0.0,0.0,0.0,0.0,0.0,0.0,0.0,0.0,0.0,0.0,0.7244,0.8475,0.9229,0.9773,1.0205,1.08,1.0767,1.0029,1.0013,0.984,0.0,0.0,0.0,0.0,0.0,0.0,0.0,0.0,0.0,0.0,0.0,0.0,0.0,0.0,0.0,0.0,0.0,0.0,0.0,0.0,0.0,0.0,0.0,0.0,0.0,0.0,0.0,0.0,0.8417,0.9049,1.0396,0.0,0.0,0.0,0.0,0.0,0.0,0.0,0.0,0.0,0.0,1.3017,1.3901,1.5379,0.0,0.0,1.3883,1.3221,1.176,1.1041,1.009,0.8437,0.8199,0.0,0.0,0.0,0.0,0.0,0.0,0.0,0.0,0.0,0.0,0.0,0.0,0.0,0.0,0.0,0.0,0.0,0.0,0.0,0.0,0.0,0.0,0.0,0.0,0.0,0.0,0.0,0.0,0.0,0.0,0.0,0.0,0.0,0.0,0.0,0.0,0.0,0.0,0.0,0.0,0.0,0.0,0.0,0.0,0.0,0.0,0.0,0.0,0.0,0.0,0.0,0.0,0.7664,0.8866,0.9706,1.0224,1.0377,1.0811,1.0695,1.0001,0.9975,0.9831,0.0,0.0,0.0,0.0,0.0,0.0,0.0,0.0,0.0,0.0,0.0,0.0,0.0,0.0,0.0,0.0,0.0,0.0,0.0,0.0,0.0,0.0,0.0,0.0,0.0,0.0,0.0,0.0,0.8185,0.9297,1.1845,0.0,0.0,0.0,0.0,0.0,0.0,0.0,0.0,0.0,0.0,1.1843,1.3744,1.5072,1.5631,1.5088,1.4488,1.3889,1.3325,1.2623,1.1649,1.0274,0.0,0.0,0.0,0.0,0.0,0.0,0.0,0.0,0.0,0.0,0.0,0.0,0.0,0.0,0.0,0.0,0.0,0.0,0.0,0.0,0.0,0.0,0.0,0.0,0.0,0.0,0.0,0.0,0.0,0.0,0.4646,0.0,0.0,0.0,0.0,0.0,0.0,0.0,0.0,0.0,0.0,0.0,0.0,0.0,0.0,0.0,0.0,0.0,0.0,0.0,0.0,0.0,0.0,0.8238,0.9286,1.0913,1.1313,1.0367,1.127,1.1166,0.9948,0.9906,0.98,0.9599,0.0,0.0,0.0,0.0,0.0,0.0,0.0,0.0,0.0,0.0,0.0,0.0,0.0,0.0,0.0,0.0,0.0,0.0,0.0,0.0,0.0,0.0,0.0,0.0,0.0,0.0,0.8095,0.7996,0.9238,0.0,0.0,0.0,0.0,0.0,0.0,0.0,0.0,0.0,0.0,0.8814,1.104,1.3479,1.4518,1.5291,1.5865,1.5531,1.5624,1.6839,1.5851,1.4744,0.0,0.0,0.0,0.0,0.0,0.0,0.0,0.0,0.0,0.0,0.0,0.0,0.0,0.0,0.0,0.0,0.0,0.0,0.0,0.0,0.0,0.0,0.0,0.0,0.0,0.0,0.0,-0.2798,-0.0975,0.0,0.0,0.0,0.0,0.0,0.0,0.0,0.0,0.0,0.0,0.0,-0.5438,-0.6276,0.0,0.0,0.0,0.0,0.0,0.0,0.0,0.0,0.0,0.0,0.0,0.0,0.7593,0.9576,1.077,1.1147,1.0731,1.1427,1.1239,1.0074,1.005,0.9784,0.9288,0.0,0.0,0.0,0.0,0.0,0.0,0.0,0.0,0.0,0.0,0.0,0.0,0.0,0.0,0.0,0.0,0.0,0.0,0.0,0.0,0.0,0.0,0.0,0.0,0.0,1.014,0.0,0.0,0.0,0.0,0.0,0.0,0.0,0.0,0.0,0.0,0.0,0.1763,0.5094,0.7652,1.0493,1.4154,1.5001,1.5644,0.0,0.0,0.0,0.0,0.0,0.0,0.0,0.0,0.0,0.0,0.0,0.0,0.0,0.0,-0.1055,0.0283,-0.0026,-0.076,-0.1697,0.0,0.0,0.0,0.0,0.0,0.0,0.0,0.0,0.0,0.0,0.0,0.0,0.0,0.0,0.0,0.0,-0.2623,0.0,0.0,0.0,0.0,0.0,0.0,0.0,0.0,-0.2545,-0.4419,-0.6716,-0.7581,-0.9431,0.0,-1.0358,-0.8974,0.0,0.0,0.0,0.0,0.0,0.0,0.0,0.0,0.7478,0.968,1.0942,1.1363,1.0882,1.1433,1.1217,1.0102,1.0026,0.9761,0.9236,0.8812,0.8534,0.0,0.0,0.0,0.0,0.0,0.0,0.0,0.0,0.0,0.0,0.0,0.0,0.0,0.0,0.0,0.0,0.0,0.0,0.0,0.0,0.0,0.0,0.0,1.0164,0.0,0.0,0.0,0.0,0.0,0.0,0.0,0.0,0.0,-0.1965,-0.106,0.0948,0.4645,0.7448,1.0605,1.4455,0.0,0.0,0.0,0.0,0.0,0.0,0.0,1.7866,1.7078,1.6277,1.4898,1.2323,0.7281,0.301,0.1295,0.0,0.0,-0.2525,-0.355,-0.4703,-0.5786,-0.6111,-0.7262,-1.0608,-1.0775,-1.0597,0.0,0.0,0.0,0.0,0.0,0.0,0.0,0.0,-1.0368,-0.9373,0.0,-0.6188,0.0,0.0,0.0,0.0,0.0,0.0,0.0,0.0,-0.2711,-0.4117,-0.6031,-0.6583,-0.8804,-1.2271,-1.2212,-1.352,-1.5581,-0.8628,0.0,0.0,0.0,0.0,0.0,0.0,0.7906,0.9586,1.1438,1.1846,1.0768,1.1323,1.1132,1.0065,0.987,0.9699,0.9392,0.8894,0.8494,0.8303,0.8376,0.0,0.0,0.0,0.0,0.0,0.0,0.0,0.0,0.0,0.0,0.0,0.0,0.0,0.0,0.0,0.0,0.0,0.0,0.0,0.0,0.7451,0.0,0.0,0.0,0.0,0.0,0.0,0.0,0.0,0.0,0.0,-0.2092,-0.0851,0.1481,0.5312,0.0,0.0,0.0,0.0,1.6579,1.8118,1.8586,1.913,2.0096,2.0113,1.9897,1.9526,0.0,0.0,1.1734,0.8323,0.5829,0.4649,0.3298,-0.008,-0.6521,-0.8884,-1.0774,-1.1964,-1.3116,-1.5808,-1.786,-1.6006,-1.5376,-1.2678,0.0,0.0,0.0,0.0,-1.411,-1.2998,-1.1765,-1.0515,-1.001,-0.9853,-0.7007,0.0,0.0,0.0,0.0,0.0,0.0,0.104,0.0311,-0.0457,-0.1288,-0.2165,-0.2716,-0.4089,-0.6113,-0.6316,-0.7571,-0.9646,-0.826,-0.7405,-0.7279,0.0,0.0,0.0,0.0,0.7204,0.9511,1.0559,1.0967,1.0718,1.0853,1.0669,1.0139,0.9962,0.9757,0.9483,0.8914,0.8443,0.8106,0.8233,0.0,0.0,0.0,0.0,0.0,0.0,0.0,0.0,0.0,0.0,0.0,0.0,0.0,0.0,0.0,0.0,0.0,0.0,0.0,0.8403,0.8211,0.9491,0.0,0.0,0.0,0.0,0.0,0.0,0.0,0.0,0.0,0.0957,0.1552,0.3233,0.0,0.0,1.2062,1.5788,1.6567,1.741,1.9114,0.0,0.0,0.0,1.9717,1.9402,1.984,1.8514,1.6596,1.4194,1.2159,1.071,1.0294,0.9426,0.7947,0.563,-0.1368,-0.6097,-0.6183,-0.7107,-0.8004,-0.7952,-0.6745,-0.564,-0.8956,-1.2822,-1.5271,-1.5494,-1.4139,-1.3503,-1.2092,-1.0184,-0.8809,-0.8131,-0.7849,-0.6086,-0.5647,-0.6117,-0.3845,0.0,0.0,0.0,0.3145,0.2905,0.2922,0.2529,0.1856,0.1755,0.0665,-0.1242,-0.1475,-0.3009,-0.5723,-0.6265,-0.6499,-0.6439,0.0,0.0,0.2435,0.4836,0.7284,0.974,1.028,1.0743,1.1194,1.0941,1.0603,1.0214,1.0055,0.9867,0.9654,0.9181,0.8705,0.8257,0.8284,0.8265,0.0,0.0,0.0,0.0,0.0,0.0,0.0,0.0,0.0,0.0,0.0,0.9133,0.8823,0.0,0.0,0.0,0.5751,0.6216,0.905,0.9077,0.0,0.0,0.0,0.0,0.0,0.0,0.0,0.0598,0.0849,0.1727,0.3634,0.4827,0.6341,0.8507,1.0697,1.3295,1.6467,0.0,1.8072,1.9126,1.8941,1.8809,1.9241,1.8849,1.8709,1.9316,1.817,1.7057,1.6503,1.5304,1.4505,1.4451,1.397,1.3398,1.3165,0.7681,0.2574,0.0867,0.0238,-0.0182,-0.1102,-0.0461,0.0362,-0.39,-0.4522,-1.0431,-1.2099,-1.0806,-1.0154,-0.8602,-0.6514,-0.5503,-0.4387,-0.3301,-0.3705,-0.3842,-0.3567,-0.2003,0.0,0.0,0.4661,0.5465,0.5483,0.681,0.6855,0.5856,0.6412,0.5341,0.2852,0.2628,0.0669,-0.2692,-0.2848,-0.2573,-0.1904,-0.2186,-0.062,0.273,0.5462,0.7929,1.0164,1.0443,1.1004,1.1932,1.147,1.0949,1.0422,1.033,1.0261,1.0117,0.9813,0.94,0.8887,0.866,0.8558,0.8567,0.0,0.0,0.0,0.0,0.0,0.0,0.0,0.0,0.0,0.0,0.0,0.0,0.0,0.0,0.0,0.5487,0.0,0.937,1.0105,0.0,0.0,0.0,0.4226,-0.0746,-0.1158,-0.0963,-0.0608,0.0,0.0,0.0,0.0,1.0116,1.0126,1.2374,1.4716,1.6644,1.7731,1.8426,1.8514,1.8457,1.8263,1.8014,1.7967,1.8047,1.8319,1.7513,1.7285,1.8013,1.7472,1.7063,1.7334,1.6982,1.652,1.6275,1.5832,1.4525,0.8075,0.7944,0.7647,0.4388,0.3761,0.4512,0.4225,0.3437,-0.0559,-0.3699,-0.5936,-0.4934,-0.3825,-0.2537,-0.0036,0.0244,-0.103,0.0314,0.0329,-0.0609,0.1739,0.364,0.5204,0.7335,0.8251,0.8181,0.8953,0.9385,0.9454,0.9849,0.971,0.9061,0.7826,0.6435,0.4997,0.319,0.2609,0.3241,0.4015,0.4293,0.4288,0.6533,0.8518,1.0176,1.0636,1.117,1.1753,1.1973,1.2057,1.1961,1.2035,1.2031,1.1952,1.1775,1.151,1.1132,1.0779,1.039,1.0018,0.9555,0.0,0.0,0.0,0.0,0.0,0.0,0.0,0.0,0.0,0.7944,0.7405,0.0,0.5324,0.0,0.6112,0.7739,1.0655,1.1638,0.0,0.0,0.8819,0.57,0.419,0.1106,-0.0086,0.2206,0.4143,0.6256,0.8711,1.034,1.1692,1.2702,1.3614,1.4888,1.6695,1.6923,1.7318,1.8146,1.7585,1.7123,1.7675,1.7879,1.7842,1.7795,1.7554,1.7608,1.8175,1.7525,1.7261,1.8294,1.7992,1.7832,1.8422,1.8479,1.8112,1.6925,1.708,1.6569,1.3776,1.4058,1.4839,0.9453,0.8798,0.723,0.5205,0.2874,0.1082,0.1198,0.2741,0.512,0.567,0.4968,0.5269,0.4529,0.3264,0.4888,0.6525,0.8122,0.9837,1.0554,1.039,1.1099,1.1335,1.1158,1.1483,1.1657,1.1665,1.0596,0.9818,0.9204,0.7698,0.7087,0.7357,0.8173,0.8207,0.754,0.8857,1.0058,1.1082,1.1752,1.1979,1.1725,1.2491,1.2787,1.2531,1.2626,1.2691,1.2695,1.2555,1.2382,1.2124,1.1784,1.1234,1.0501,1.0051,0.9629,0.0,0.0,0.0,0.0,0.0,0.0,0.0,0.0,0.0,0.0,0.0,0.5241,0.0,0.7622,0.9578,1.1777,1.335,1.3634,1.201,0.9786,0.7386,0.4875,0.3243,0.3089,0.5045,0.692,0.8849,1.0978,1.2086,1.3009,1.4084,1.421,1.4782,1.6098,1.6456,1.6766,1.7299,1.6753,1.6319,1.6728,1.6766,1.6874,1.7086,1.7115,1.7266,1.7873,1.7529,1.7538,1.8708,1.8622,1.864,1.9605,1.9719,1.9741,2.0085,2.0377,1.9947,1.8713,1.9119,1.9437,1.2499,1.1963,1.2846,1.2876,1.1986,0.7347,0.6406,0.8278,0.9734,1.097,1.1849,1.0242,0.8746,0.7448,0.8032,0.9338,1.1115,1.2142,1.2454,1.2226,1.2968,1.2877,1.21,1.2359,1.2494,1.2515,1.2143,1.1756,1.1414,1.0952,1.0679,1.0594,1.0974,1.1179,1.1206,1.1718,1.2099,1.2388,1.3216,1.312,1.203,1.3161,1.3452,1.2856,1.2966,1.3066,1.3123,1.3008,1.29,1.2742,1.244,1.1808,1.08,1.0504,1.0017,0.0,0.942,0.0,0.0,0.0,0.0,0.0,0.0,0.0,0.0,0.5719,0.5817,0.6953,0.9375,1.1417,1.2833,1.495,1.4569,1.0511,1.0831,0.952,0.4839,0.577,0.7167,0.7807,0.9766,1.157,1.2878,1.3579,1.4145,1.4638,1.4563,1.4775,1.5488,1.6076,1.627,1.6091,1.6079,1.5887,1.5567,1.5426,1.5702,1.6289,1.6523,1.6758,1.7673,1.7644,1.7852,1.8946,1.9092,1.9259,2.0223,2.0342,2.0335,2.0381,2.0502,2.0529,2.0337,2.0246,2.0311,1.273,1.1885,1.3544,1.3857,1.3214,1.2704,1.2277,1.1965,1.3055,1.3663,1.3813,1.3185,1.2448,1.185,1.2358,1.2839,1.3254,1.3815,1.3922,1.3686,1.3841,1.4016,1.4126,1.3975,1.3998,1.4155,1.3674,1.3275,1.3043,1.2258,1.1939,1.2095,1.2419,1.2637,1.275,0.0,0.0,0.0,1.4096,1.4162,1.3547,1.4235,1.4592,1.4463,1.4673,0.0,1.483,1.4806,1.4725,1.4582,1.4434,0.0,0.0,0.0,0.0,0.0,0.0,0.0,0.0,0.0,0.0,0.0,0.6606,0.6521,0.6235,0.7028,0.7802,0.8416,1.0016,1.194,1.4106,1.5693,1.6396,1.5829,1.4758,1.3054,1.0573,0.997,0.9786,0.9877,1.1692,1.3336,1.4265,1.454,1.4702,1.5129,1.5225,1.5252,1.5422,1.5263,1.533,1.5885,1.5754,1.5466,1.5306,1.5322,1.5387,1.5664,1.625,1.6914,1.7676,1.7852,1.8359,1.9741,1.9599,1.941,2.024,2.0434,2.0463,2.0484,2.0558,2.0566,2.046,2.0405,2.0337,1.3697,0.0,1.4472,1.476,0.0,1.4861,1.4836,1.4367,1.4809,1.4975,1.4945,1.462,1.4164,1.3749,1.4017,1.4256,1.4446,1.469,1.4656,1.4451,1.4436,1.4442,1.4452,1.4168,1.4208,1.4429,1.4008,1.3803,1.3769,1.3359,1.3246,1.3496,1.3667,1.3749,1.3808,1.5003,1.5304,1.4658,1.471,1.4669,1.4447,1.4598,1.4747,1.4904,0.0,0.0,0.0,0.0,0.0,0.0,0.0,0.0,0.0,0.0,0.0,1.1151,1.089,1.0348,0.9381,0.8987,0.828,0.7157,0.7405,0.7582,0.739,0.8364,0.9195,0.9713,1.1209,1.2895,1.4713,1.6237,1.7327,1.784,1.7135,1.5857,1.4258,1.3641,1.3181,1.2641,1.3801,1.4963,1.5193,1.5124,1.5098,1.5182,1.5314,1.5465,1.5504,1.5408,1.5382,1.5533,1.5424,1.5272,1.5297,1.5289,1.5515,1.5924,1.6387,1.6992,1.7773,1.793,1.8377,1.9534,1.9497,1.9518,2.0295,2.0527,2.0536,2.0549,2.0549,2.0527,2.043,2.0426,2.0431,1.4612,1.3929,1.5244,1.5424,1.4842,1.5529,1.5827,1.587,0.0,0.0,0.0,1.5359,1.5029,1.4752,1.4721,1.4907,1.5239,1.5225,1.514,1.4977,1.4962,1.486,1.4652,1.4429,1.4429,1.4621,1.4429,1.4314,1.427,1.4285,1.4352,1.4491,1.4564,1.4658,1.4783,1.5777,1.6156,1.5895,1.5432,1.5123,1.4998,1.4723,1.4677,1.485,1.495,1.5073,1.5228,1.5253,1.5269,1.529,1.521,1.4742,1.3906,1.3775,1.3333,1.2394,1.2357,1.1822,1.0545,1.0048,0.9231,0.795,0.8514,0.8912,0.8894,0.9617,1.0343,1.102,1.2446,1.3887,1.525,1.6666,1.7843,1.8592,1.861,1.7906,1.6442,1.6541,1.6132,1.5134,1.5644,1.6273,1.597,1.5803,1.5643,1.5528,1.5787,1.5801,1.5887,1.5887,1.5627,1.519,1.5113,1.5223,1.5478,1.5541,1.5856,1.6656,1.7016,1.7353,1.7925,1.8298,1.8689,1.945,1.9489,1.9821,2.0408,2.0544,2.0564,2.0564,2.0523,2.0476,2.0418,2.0437,2.045,1.4461,1.3914,1.5259,1.5409,1.4842,1.5529,1.5955,1.6191,1.5911,1.5784,1.5769,1.5741,1.5683,1.561,1.561,1.5639,1.5697,1.5697,1.5681,0.0,1.5664,1.5924,1.6425,1.64,1.6384,1.6409,1.64,1.5887,1.5065,1.496,1.4805,1.4582,1.4845,1.5225,1.5653,1.6351,1.6716,1.6655,1.6677,1.6131,1.5051,1.5207,1.514,1.4764,1.485,1.4943,1.503,1.5093,1.5182,1.5281,1.5284,1.4876,1.4041,1.3976,1.3567,1.2699,1.2483,1.2112,1.1439,1.0878,1.0308,0.9788,0.9932,0.9957,0.969,1.0521,1.15,1.241,1.3361,1.4606,1.6263,1.7256,1.8064,1.8823,1.9082,1.8651,1.74,1.7584,1.7325,1.6069,1.6644,1.71,1.6924,1.6814,1.6746,1.6958,1.6969,1.7167,1.6753,1.6226,1.5674,1.5174,1.5018,1.5405,1.6106,1.6317,1.6702,1.7497,1.8217,1.8644,1.8873,1.9452,1.9903,2.0175,2.0156,2.0253,2.0429,2.0432,2.0429,2.0448,2.0419,2.0404,2.0386,2.0412,2.0381,1.4947,1.4483,1.5409,1.5424,1.4842,1.5514,1.587,1.5996,1.587,1.5898,1.6039,1.5885,1.5814,1.5814,1.5814,1.5814,1.5814,1.5814,1.5814,1.5814,1.5814,1.5955,1.6246,1.6258,1.6231,1.6231,1.6274,1.5981,1.5507,1.5477,1.5403,1.5225,1.5389,1.5682,1.608,1.657,1.6892,1.706,1.6908,1.6583,1.6098,1.5518,1.5198,1.5115,1.4912,1.4849,1.4927,1.4967,1.5036,1.5132,1.5098,1.4927,1.4563,1.4568,1.4387,1.3938,1.3824,1.3513,1.2984,1.253,1.2127,1.1807,1.222,1.2403,1.2249,1.2159,1.2501,1.3421,1.4341,1.5475,1.6948,1.7538,1.8161,1.9079,1.9246,1.8849,1.794,1.8091,1.7907,1.698,1.7199,1.7396,1.7034,1.7109,1.7064,1.6938,1.739,1.7775,1.7554,1.7288,1.6711,1.5884,1.5999,1.6525,1.7041,1.7157,1.7516,1.8328,1.8785,1.927,1.9625,2.0179,2.034,2.0379,2.0379,2.0379,2.0379,2.0379,2.0379,2.0379,2.0359,2.0353,2.0346,2.035,2.0335,1.5499,1.5094,1.5589,1.5499,1.5109,1.5574,1.5814,1.5814,1.5814,1.5955,1.6136,1.5898,1.5814,1.5814,1.5814,1.5814,1.5814,1.5814,1.5814,1.5814,1.5814,1.5841,1.5898,1.5983,1.5968,1.5926,1.5983,1.5955,1.5827,1.5814,1.5814,1.5814,1.5814,1.5926,1.6207,1.6581,1.6942,1.715,1.7043,1.6956,1.6971,1.5976,1.5462,1.541,1.5055,1.4842,1.486,1.4855,1.4907,1.4985,1.4935,1.4914,1.4935,1.5011,1.5009,1.4913,1.4877,1.4697,1.4324,1.3986,1.3743,1.3685,1.4106,1.4431,1.4431,1.3976,1.3848,1.4574,1.5501,1.65,1.7556,1.8021,1.8455,1.9198,1.9286,1.9005,1.8318,1.8413,1.8372,1.7692,1.7759,1.7664,1.726,1.7366,1.7415,1.7188,1.7731,1.828,1.8151,1.8225,1.7847,1.712,1.7113,1.7486,1.7776,1.7932,1.8347,1.9139,1.9362,1.9684,2.0135,2.0339,2.0369,2.0366,2.0358,2.0366,2.0377,2.0377,2.0358,2.0373,2.0335,2.03,2.0312,2.0312,2.0292,1.5769,1.5724,1.5769,1.5784,1.5694,1.5784,1.5814,1.5814,1.5814,1.5799,1.5856,1.5799,1.5814,1.5814,1.5814,1.5814,1.5814,1.5814,1.5814,1.5814,1.5814,1.5955,1.6234,1.6528,1.6554,1.6301,1.6501,1.6328,1.5856,1.5827,1.5814,1.5814,1.5814,1.5799,1.5898,1.6474,1.6815,1.6866,1.7412,1.748,1.7021,1.6887,1.6343,1.535,1.527,1.5052,1.4844,1.4707,1.4804,1.4973,1.4982,1.4869,1.4763,1.4856,1.4904,1.4895,1.4785,1.4759,1.4868,1.4553,1.4568,1.494,1.4892,1.4923,1.5173,1.5649,1.5983,1.6192,1.6818,1.7613,1.8413,1.8863,1.9112,1.9234,1.9286,1.9234,1.9099,1.8806,1.8643,1.8824,1.836,1.8134,1.7978,1.8052,1.8176,1.8234,1.8634,1.8919,1.8537,1.872,1.8945,1.8261,1.7818,1.7709,1.8172,1.8631,1.915,1.9931,2.015,2.0196,2.0292,2.0312,2.0312,2.0331,2.0312,2.0312,2.0312,2.0312,2.0312,2.0331,2.0312,2.0292,2.0292,2.0292,2.0292,1.5814,1.5814,1.5814,1.5814,1.5814,1.5814,1.5814,1.5814,1.5814,1.5814,1.5814,1.5814,1.5814,1.5814,1.5814,1.5814,1.5814,1.5814,1.5814,1.5814,1.5814,1.5885,1.6011,1.6136,1.6151,1.6039,1.6136,1.6163,1.6123,1.6095,1.6011,1.5827,1.5814,1.5814,1.5812,1.6274,1.6607,1.6815,1.7272,1.749,1.745,1.7167,1.6865,1.6548,1.621,1.6022,1.6011,1.5999,1.606,1.6202,1.6139,1.5862,1.5438,1.5448,1.5231,1.4749,1.495,1.5147,1.5216,1.5695,1.6098,1.6314,1.6483,1.6636,1.6725,1.7032,1.7183,1.7271,1.7763,1.8306,1.8592,1.9043,1.9286,1.9286,1.9286,1.9286,1.9271,1.9016,1.8843,1.877,1.843,1.8201,1.8241,1.8492,1.8741,1.8984,1.9193,1.9234,1.9436,1.9418,1.9375,1.9501,1.9069,1.8873,1.9201,1.9439,1.9807,2.0126,2.0292,2.0292,2.0285,2.0285,2.0292,2.0285,2.0292,2.0292,2.0292,2.0292,2.0292,2.0312,2.0292,2.0292,2.0292,2.0292,2.0292,1.5814,1.5814,1.5814,1.5903,1.6024,1.5873,1.5814,1.5814,1.5814,1.5814,1.5814,1.5814,1.5814,1.5814,1.5814,1.5814,1.5814,1.5814,1.5814,1.5814,1.5814,1.5814,1.5799,1.5898,1.5885,1.5827,1.5898,1.6011,1.6163,1.6163,1.6039,1.5827,1.5814,1.5814,1.5856,1.6219,1.657,1.6815,1.7199,1.7566,1.7726,1.742,1.7233,1.7256,1.6955,1.6766,1.679,1.6875,1.7032,1.7244,1.7032,1.6757,1.6441,1.6256,1.5833,1.5165,1.5406,1.5688,1.5819,1.662,1.7141,1.7297,1.7633,1.7789,1.7789,1.7789,1.7789,1.78,1.8229,1.8476,1.8664,1.9026,1.9271,1.9286,1.9286,1.9274,1.9196,1.9034,1.8807,1.8622,1.8467,1.8328,1.8365,1.8628,1.8894,1.9017,1.9196,1.9583,2.0244,2.0005,1.984,2.0391,2.0092,1.9828,1.9836,1.9819,1.9993,2.0079,2.0125,2.0134,2.0197,2.0205,2.0277,2.0269,2.0277,2.0446,2.0677,2.0639,2.0353,2.0361,2.0438,2.0584,2.0735,2.0792,2.1004,1.5814,1.5814,1.5814,1.6054,1.6562,1.6054,1.5829,1.5845,1.5873,1.5844,1.5903,1.5844,1.5829,1.5844,1.5829,1.5814,1.5814,1.5814,1.5814,1.5814,1.5814,1.5814,1.5827,1.6108,1.6111,1.5992,1.6251,1.6205,1.5946,1.5856,1.5827,1.5844,1.5873,1.5844,1.593,1.6445,1.6779,1.6841,1.7361,1.7766,1.7789,1.776,1.7501,1.7147,1.7256,1.7133,1.6718,1.6798,1.7156,1.7683,1.7252,1.716,1.7485,1.7082,1.6629,1.6373,1.6226,1.6395,1.6807,1.7016,1.7251,1.7654,1.7766,1.7789,1.7789,1.7789,1.7789,1.7789,1.8078,1.8333,1.8567,1.898,1.9259,1.9274,1.9289,1.923,1.9052,1.8878,1.8642,1.8585,1.8547,1.8508,1.8547,1.8609,1.8699,1.8825,1.9066,1.9675,2.0409,2.0484,2.0556,2.0613,2.0535,2.0231,1.9587,1.9613,1.9802,1.9896,1.9958,1.9936,1.9953,2.0031,2.0173,2.0235,2.0216,2.0455,2.1007,2.1007,2.0617,2.0589,2.0964,2.1137,2.1348,2.2141,2.2267,1.5344,1.5389,1.5683,1.5625,1.5387,1.6038,1.6232,1.6063,1.6708,1.7026,1.6937,1.6547,1.6368,1.6338,1.5978,1.5814,1.5814,1.5814,1.5814,1.5814,1.5814,1.5994,1.6368,1.6502,1.6744,1.6998,1.7135,1.7135,1.6954,1.6423,1.6423,1.6863,1.6562,1.6368,1.6413,1.6605,1.6735,1.6795,1.7068,1.7361,1.7766,1.7789,1.772,1.7535,1.7772,1.7888,1.7861,1.7931,1.8157,1.8517,1.8338,1.8068,1.7684,1.6897,1.6415,1.6352,1.6723,1.7035,1.7253,1.7591,1.7841,1.8014,1.7888,1.7789,1.7789,1.7789,1.7789,1.7839,1.804,1.8249,1.841,1.8789,1.9119,1.9117,1.9212,1.9259,1.9214,1.9099,1.893,1.8643,1.8473,1.8417,1.862,1.8753,1.8913,1.9086,1.9634,2.0376,2.1088,2.1327,2.1456,2.1823,2.1639,2.1086,2.0436,1.9866,1.9701,1.9801,1.9887,2.0073,2.018,2.0426,2.0633,2.0399,2.0297,2.0555,2.1126,2.1393,2.1001,2.1323,2.1646,2.1816,2.2008,2.2647,2.2713,1.5439,1.5506,1.5585,1.5406,1.5153,1.5823,1.6226,1.6337,1.7079,1.7488,1.7563,1.7219,1.6921,1.6667,1.6278,1.5934,1.5829,1.5814,1.5814,1.5829,1.5979,1.6293,1.6682,1.6936,1.7264,1.7623,1.7682,1.7682,1.764,1.7061,1.7091,1.7625,1.704,1.6831,1.6997,1.7091,1.7102,1.7162,1.7342,1.7649,1.7817,1.7789,1.7789,1.7833,1.7971,1.8187,1.845,1.8547,1.8678,1.8861,1.886,1.8591,1.7985,1.7258,1.6851,1.6904,1.7256,1.7522,1.7557,1.7872,1.8059,1.8059,1.7915,1.7789,1.7789,1.7789,1.7789,1.7856,1.7949,1.8078,1.8146,1.8469,1.8807,1.8949,1.9051,1.9099,1.9064,1.8998,1.8771,1.8526,1.8492,1.8558,1.8833,1.9217,1.9498,1.9651,2.0246,2.0916,2.1642,2.199,2.2173,2.2684,2.2429,2.2006,2.1509,2.0979,2.0879,2.0951,2.0243,2.0362,2.0539,2.0821,2.0884,2.0609,2.0671,2.0897,2.1199,2.1557,2.187,2.2163,2.2375,2.2533,2.2767,2.3025,2.3227,1.6135,1.604,1.5579,1.5529,1.5752,1.5447,1.5752,1.6586,1.6736,1.7181,1.7706,1.7665,1.729,1.6815,1.6667,1.6338,1.5888,1.5814,1.5814,1.5844,1.6368,1.6682,1.6816,1.7428,1.779,1.7876,1.7757,1.7757,1.7847,1.7687,1.7655,1.7655,1.7234,1.7219,1.773,1.7818,1.7841,1.7882,1.8358,1.8437,1.7907,1.7941,1.7974,1.7912,1.7969,1.812,1.8256,1.8448,1.8547,1.8604,1.8609,1.859,1.8467,1.8165,1.8101,1.7956,1.7902,1.7805,1.7788,1.7805,1.7839,1.7839,1.7828,1.7789,1.7789,1.7789,1.7789,1.7789,1.7811,1.7833,1.7878,1.8078,1.8413,1.8878,1.8789,1.8734,1.8623,1.8408,1.8246,1.8364,1.8665,1.9028,1.9373,1.9819,2.0199,2.0346,2.0674,2.1185,2.1907,2.2309,2.2497,2.2671,2.2827,2.2758,2.2465,2.2227,2.2331,2.227,2.124,2.0739,2.0953,2.1187,2.1175,2.1031,2.1606,2.1849,2.1946,2.2297,2.257,2.2851,2.3036,2.3197,2.346,2.3723,2.4114,1.5757,1.5238,1.5278,1.5264,1.525,1.5324,1.5835,1.6579,1.6943,1.7447,1.7885,1.7879,1.768,1.7305,1.6936,1.6368,1.5829,1.5814,1.5814,1.5904,1.6413,1.6965,1.7428,1.8041,1.8657,1.8927,1.8597,1.8642,1.8822,1.8164,1.8119,1.8777,1.8388,1.8208,1.8358,1.8412,1.8345,1.8155,1.8627,1.8631,1.8278,1.8917,1.9056,1.8674,1.9046,1.9161,1.8694,1.8288,1.818,1.8383,1.8336,1.8333,1.8284,1.8074,1.7927,1.7922,1.7839,1.7789,1.7789,1.7789,1.7789,1.7789,1.7789,1.7789,1.7789,1.7805,1.7822,1.7822,1.7789,1.7789,1.7811,1.7878,1.8134,1.841,1.8679,1.8769,1.867,1.8801,1.8916,1.8997,1.9378,1.975,1.9999,2.0379,2.0569,2.079,2.1206,2.1799,2.225,2.2629,2.321,2.3553,2.3575,2.3446,2.3232,2.3106,2.3199,2.2959,2.2079,2.151,2.1631,2.1607,2.1562,2.18,2.2372,2.2687,2.2817,2.2965,2.3203,2.3318,2.341,2.3682,2.4062,2.4318,2.4487,1.5786,1.5127,1.5135,1.515,1.5052,1.5167,1.5813,1.6687,1.7066,1.7544,1.7987,1.803,1.7762,1.745,1.705,1.648,1.5934,1.6097,1.6157,1.6234,1.6786,1.7324,1.7802,1.8672,1.9241,1.954,1.9271,1.9286,1.9651,1.8927,1.8882,1.9465,1.9031,1.8837,1.9036,1.8978,1.8831,1.8671,1.904,1.9017,1.8746,1.9186,1.9415,1.9185,1.9528,1.9605,1.9275,1.8856,1.8455,1.8211,1.8074,1.8057,1.8035,1.7883,1.7789,1.7789,1.7789,1.7789,1.7789,1.7789,1.7789,1.7789,1.7789,1.7941,1.8093,1.8211,1.8255,1.8549,1.865,1.8504,1.8318,1.8521,1.8557,1.8464,1.8746,1.8871,1.8812,1.9233,1.9338,1.9383,1.9904,2.0433,2.0654,2.1002,2.1129,2.1413,2.1798,2.216,2.2441,2.2746,2.3239,2.361,2.3602,2.3629,2.3903,2.3963,2.4058,2.3546,2.2868,2.2612,2.2592,2.2426,2.2314,2.2773,2.3271,2.3436,2.3547,2.3529,2.3676,2.3712,2.3749,2.3953,2.419,2.421,2.4321,1.6183,1.5655,1.518,1.5248,1.5459,1.502,1.5594,1.6869,1.6968,1.7317,1.7846,1.7942,1.7667,1.7188,1.7052,1.667,1.6175,1.6455,1.6607,1.674,1.7205,1.7667,1.816,1.9106,1.9585,1.966,1.9645,1.966,1.969,1.9555,1.969,1.9615,1.9166,1.9061,1.9476,1.9477,1.9331,1.9269,1.9641,1.9511,1.8922,1.9028,1.9171,1.9443,1.9586,1.9739,1.9813,1.9656,1.913,1.8172,1.8093,1.8093,1.7963,1.7879,1.7789,1.789,1.7839,1.7789,1.7789,1.7789,1.7856,1.7957,1.789,1.8166,1.8809,1.8853,1.9031,1.963,1.9765,1.9596,1.9215,1.9435,1.9536,1.9164,1.9171,1.9079,1.91,1.967,1.9847,1.9627,2.034,2.1262,2.1312,2.1813,2.2067,2.218,2.2207,2.2289,2.2398,2.2609,2.2678,2.2972,2.3369,2.3477,2.3628,2.3714,2.3795,2.3593,2.3107,2.3042,2.3014,2.285,2.2941,2.3436,2.3804,2.4024,2.4079,2.3931,2.395,2.4006,2.408,2.4171,2.419,2.419,2.4209,1.6195,1.5693,1.5542,1.5774,1.6074,1.5247,1.5516,1.6518,1.6231,1.6467,1.693,1.733,1.7356,1.7123,1.7057,1.673,1.6269,1.6255,1.6291,1.6362,1.6936,1.8043,1.8986,1.948,1.969,1.969,1.9705,1.9705,1.9705,1.9705,1.9705,1.969,1.951,1.9465,1.9687,1.9622,1.9597,1.9617,1.995,1.9808,1.9341,1.9957,2.0191,1.9835,2.0265,2.031,1.9932,1.9394,1.9336,1.943,1.9073,1.9094,1.9181,1.8397,1.8065,1.842,1.8115,1.7822,1.7822,1.7879,1.8082,1.8488,1.8223,1.8369,1.9562,1.9191,1.9326,1.9799,1.9985,1.9968,1.9782,1.99,2.0128,2.0483,2.0128,1.984,2.0038,2.0475,2.078,2.0764,2.1424,2.1837,2.2006,2.2124,2.2327,2.2327,2.231,2.2349,2.2453,2.2453,2.25,2.284,2.3117,2.3183,2.3253,2.3369,2.3414,2.3351,2.3106,2.298,2.294,2.2846,2.3153,2.3606,2.3835,2.4057,2.4018,2.3905,2.4056,2.419,2.419,2.419,2.419,2.419,2.419,1.6333,1.6019,1.5781,1.6023,1.6383,1.5602,1.5718,1.6314,1.6198,1.6185,1.655,1.6824,1.6922,1.6864,1.6837,1.6598,1.6246,1.6472,1.6583,1.6633,1.7267,1.8219,1.9096,1.9369,1.9479,1.969,1.969,1.9705,1.9705,1.9705,1.9705,1.969,1.9705,1.9705,1.969,1.9705,1.9705,1.9747,1.9929,1.9821,1.9512,2.0061,2.0295,2.0128,2.0509,2.0526,2.0273,1.9954,1.9926,2.0044,1.968,1.9412,1.9444,1.8809,1.8454,1.886,1.8471,1.8386,1.8674,1.8737,1.8924,1.9212,1.8903,1.9369,2.0171,2.0069,2.0194,2.088,2.0931,2.0795,2.0568,2.0517,2.0873,2.1397,2.1245,2.0908,2.0788,2.1257,2.1441,2.1492,2.1813,2.2327,2.2327,2.2327,2.2327,2.2327,2.2327,2.2377,2.2453,2.2405,2.2377,2.266,2.2865,2.2915,2.2972,2.3093,2.3087,2.3021,2.2986,2.287,2.2901,2.2857,2.3205,2.3566,2.3821,2.3976,2.3896,2.3899,2.4113,2.419,2.419,2.419,2.419,2.419,2.419,1.6534,1.6484,1.5982,1.607,1.6384,1.6007,1.6074,1.6434,1.6471,1.6471,1.6527,1.6509,1.657,1.6534,1.6566,1.6472,1.6348,1.6794,1.6957,1.7088,1.7448,1.8078,1.8545,1.8779,1.9006,1.9332,1.953,1.9566,1.953,1.9581,1.9654,1.9639,1.9654,1.9654,1.969,1.9705,1.9705,1.9705,1.9726,1.9767,1.9641,1.9823,1.9954,2.0131,2.0184,2.041,2.0595,2.0651,2.0623,2.0469,1.9825,1.9464,1.9169,1.9102,1.8984,1.8993,1.901,1.9143,1.9664,1.9614,1.9833,1.9823,1.9779,2.0291,2.0747,2.0822,2.0988,2.177,2.2192,2.1754,2.1448,2.1322,2.1549,2.204,2.2209,2.1938,2.1617,2.1904,2.204,2.1448,2.1955,2.2243,2.2327,2.2327,2.2327,2.2327,2.2327,2.2338,2.2405,2.2366,2.231,2.2377,2.2544,2.2634,2.2764,2.2848,2.2789,2.2738,2.2704,2.2669,2.2853,2.2935,2.3204,2.3459,2.3544,2.3649,2.3692,2.3816,2.3996,2.4094,2.4016,2.4094,2.417,2.419,2.419,1.6534,1.6509,1.6384,1.6409,1.6441,1.6384,1.6396,1.6522,1.6534,1.6534,1.6534,1.6534,1.6534,1.6534,1.6522,1.6476,1.6464,1.6659,1.6621,1.668,1.6747,1.7146,1.7666,1.8013,1.8341,1.8574,1.8893,1.9043,1.9095,1.9095,1.9281,1.9566,1.9281,1.9281,1.9603,1.9617,1.9705,1.9705,1.969,1.969,1.9705,1.9705,1.9762,1.9889,1.9889,1.9904,1.9955,1.996,2.0081,2.0172,2.0019,1.9897,2.0046,1.9398,1.9155,1.9451,1.9389,1.9268,1.9207,1.952,1.9674,1.9922,1.9662,1.9617,2.0837,2.0564,2.0798,2.1464,2.1764,2.1857,2.1967,2.204,2.2107,2.226,2.231,2.2243,2.2124,2.2209,2.2175,2.2124,2.2158,2.2327,2.2327,2.2327,2.2327,2.2327,2.2327,2.2327,2.2327,2.2327,2.2327,2.2327,2.2349,2.249,2.2527,2.2634,2.2581,2.2527,2.2517,2.249,2.266,2.2832,2.3014,2.3111,2.3159,2.3277,2.3414,2.3437,2.3566,2.3692,2.3834,2.3876,2.3937,2.4036,2.4056,1.6534,1.6534,1.6534,1.6534,1.6534,1.6534,1.6534,1.6534,1.6534,1.6534,1.6534,1.6534,1.6534,1.6534,1.6534,1.6522,1.6534,1.6534,1.6522,1.6509,1.6522,1.668,1.6866,1.7229,1.7544,1.8013,1.838,1.8496,1.8535,1.8535,1.8664,1.8968,1.8893,1.8893,1.9006,1.9207,1.9317,1.9295,1.9332,1.9442,1.9654,1.9705,1.9705,1.9705,1.9705,1.9705,1.9726,1.9741,1.9803,1.9908,1.9919,1.9984,2.0305,1.9778,1.9588,1.9745,1.9769,1.9793,1.9835,2.0013,2.0251,2.0336,2.0004,2.0321,2.0766,2.0607,2.0671,2.1194,2.1538,2.1794,2.2225,2.231,2.2299,2.2327,2.2299,2.2299,2.2299,2.2327,2.2327,2.2327,2.2293,2.2327,2.2327,2.2327,2.2327,2.2327,2.2327,2.2327,2.2327,2.2327,2.2327,2.2327,2.2327,2.2338,2.2338,2.2349,2.2405,2.2377,2.2377,2.2377,2.2443,2.2598,2.2747,2.2807,2.289,2.3021,2.3165,2.3141,2.3165,2.3346,2.3482,2.3588,2.361,2.3631,2.361,1.638,1.638,1.6466,1.6534,1.6534,1.6534,1.6534,1.6534,1.6534,1.6534,1.6534,1.6534,1.6534,1.6534,1.6534,1.6534,1.6534,1.6534,1.6534,1.6534,1.6534,1.6522,1.6595,1.6723,1.6993,1.7827,1.7933,1.7973,1.7973,1.8013,1.8106,1.8171,1.838,1.8458,1.8288,1.8496,1.8765,1.8765,1.8779,1.902,1.9369,1.942,1.9332,1.9332,1.9493,1.9406,1.9369,1.9406,1.9566,1.9596,1.9654,1.9745,1.981,1.9878,1.9878,1.9878,1.9894,2.0067,2.0334,2.0618,2.073,2.0828,2.074,2.0717,2.0724,2.0677,2.0693,2.0925,2.1198,2.1565,2.2044,2.1974,2.2007,2.2053,2.2111,2.2209,2.2209,2.2254,2.2327,2.2327,2.2327,2.2327,2.2327,2.2327,2.2327,2.2327,2.2327,2.2327,2.2327,2.2327,2.2327,2.2327,2.2327,2.2327,2.2327,2.2327,2.2327,2.2327,2.2327,2.2327,2.2327,2.2405,2.2544,2.259,2.2678,2.2789,2.284,2.2832,2.2908,2.3069,2.3088,2.3124,2.3141,2.3171,2.3212,1.5776,1.582,1.6293,1.6534,1.6534,1.6534,1.6534,1.6534,1.6534,1.6534,1.6534,1.6534,1.6534,1.6534,1.6534,1.6534,1.6534,1.6534,1.6534,1.6534,1.6534,1.6534,1.6534,1.6534,1.668,1.6795,1.7188,1.7422,1.7422,1.7422,1.7585,1.7894,1.7787,1.7706,1.7973,1.821,1.821,1.821,1.8263,1.8496,1.8855,1.8727,1.8521,1.8574,1.8878,1.8817,1.8626,1.8817,1.9049,1.9069,1.945,1.9651,1.9763,1.9752,1.9752,1.9791,1.9999,2.0144,2.0104,2.0258,2.0204,2.003,2.0025,1.9999,2.0005,1.999,2.0227,2.0497,2.0826,2.1133,2.1203,2.1334,2.1262,2.1327,2.1528,2.1735,2.1794,2.2003,2.2225,2.2209,2.2254,2.2327,2.2327,2.2327,2.2327,2.2327,2.2327,2.2327,2.2327,2.2327,2.2327,2.2327,2.2327,2.2327,2.2327,2.2327,2.2327,2.2327,2.2327,2.2327,2.2327,2.2327,2.2377,2.2453,2.2453,2.248,2.2508,2.2561,2.2634,2.2755,2.2702,2.2631,2.2785,2.2958,2.3038,1.532,1.562,1.5908,1.6238,1.6479,1.6534,1.6534,1.6534,1.6534,1.6534,1.6534,1.6534,1.6534,1.6534,1.6534,1.6534,1.6534,1.6534,1.6534,1.6534,1.6534,1.6534,1.6534,1.6534,1.6534,1.6565,1.6795,1.6921,1.6879,1.6866,1.7076,1.7188,1.7229,1.7312,1.7353,1.7544,1.7666,1.7666,1.7706,1.7947,1.8433,1.8185,1.8104,1.8166,1.8299,1.8344,1.8242,1.8277,1.8626,1.8898,1.9161,1.942,1.9617,1.9705,1.9705,1.9747,1.9874,1.9929,1.9747,1.9894,1.9874,1.9762,1.9705,1.9705,1.9705,1.9777,1.9878,2.0212,2.0438,2.075,2.1017,2.0958,2.1006,2.102,2.1167,2.126,2.1368,2.1705,2.1869,2.1957,2.2106,2.2209,2.2327,2.2327,2.2327,2.2327,2.2327,2.2327,2.2327,2.2327,2.2327,2.2327,2.2327,2.2327,2.2327,2.2327,2.2327,2.2327,2.2327,2.2327,2.2327,2.2327,2.2327,2.2338,2.231,2.2327,2.2338,2.2432,2.2453,2.2463,2.2466,2.2512,2.2625,2.2738,2.2798,1.4778,1.5276,1.5365,1.5688,1.6107,1.6151,1.612,1.6151,1.6107,1.6151,1.6293,1.6207,1.625,1.6436,1.6534,1.6534,1.6534,1.6534,1.6534,1.6534,1.6534,1.6534,1.6534,1.6534,1.6534,1.6522,1.6565,1.6534,1.6565,1.6565,1.6522,1.668,1.6993,1.6964,1.6752,1.6993,1.7105,1.7146,1.7146,1.7381,1.7706,1.7987,1.7958,1.7834,1.7865,1.7882,1.7678,1.7841,1.8121,1.845,1.8784,1.9095,1.9472,1.9654,1.969,1.9705,1.9705,1.9705,1.9726,1.9726,1.9762,1.9705,1.9705,1.9705,1.9705,1.9726,1.9818,2.0089,2.0193,2.0283,2.054,2.0685,2.0695,2.0707,2.0744,2.0894,2.0991,2.1181,2.143,2.1628,2.1899,2.2077,2.218,2.2327,2.2327,2.2327,2.2327,2.2327,2.2327,2.2327,2.2327,2.2327,2.2327,2.2327,2.2327,2.2327,2.2327,2.2327,2.2327,2.2327,2.2327,2.2327,2.2282,2.2254,2.2327,2.2327,2.2327,2.2327,2.2349,2.2377,2.2338,2.2366,2.247,2.2497,2.2525,1.3956,1.405,1.4595,1.4835,1.4926,1.4983,1.4937,1.4971,1.5028,1.5242,1.5676,1.5287,1.5567,1.625,1.6436,1.6479,1.6534,1.6534,1.6534,1.6534,1.6534,1.6534,1.6534,1.6534,1.6534,1.6534,1.6534,1.6534,1.6534,1.6534,1.6534,1.6565,1.6595,1.6552,1.6565,1.6637,1.6595,1.6637,1.6637,1.668,1.6866,1.7598,1.745,1.712,1.7133,1.7242,1.7002,1.7214,1.7502,1.7674,1.8425,1.886,1.9069,1.945,1.9669,1.9705,1.9705,1.9705,1.9705,1.9705,1.9705,1.9705,1.9705,1.9705,1.9705,1.9705,1.9762,1.9711,1.9782,1.9874,2.0004,1.9945,1.9869,2.0045,2.0258,2.0364,2.0465,2.0781,2.1007,2.1118,2.1354,2.1764,2.2015,2.218,2.2327,2.2327,2.2299,2.2254,2.218,2.2065,2.2152,2.2123,2.2049,2.202,2.2209,2.2225,2.2254,2.2282,2.2209,2.2209,2.2152,2.2106,2.2209,2.2209,2.2254,2.2299,2.2327,2.2327,2.2327,2.2327,2.2327,2.2327,2.231,2.2327,2.2327,1.3515,1.3815,1.4097,1.4387,1.4709,1.4709,1.4709,1.4709,1.4709,1.4846,1.5005,1.4835,1.5197,1.5876,1.6008,1.6194,1.6436,1.6436,1.6479,1.6436,1.6436,1.6479,1.6534,1.6534,1.6534,1.6534,1.6534,1.6534,1.6534,1.6534,1.6534,1.6534,1.6534,1.6522,1.6534,1.6534,1.6522,1.6522,1.6522,1.6534,1.6637,1.6866,1.6993,1.6552,1.6752,1.671,1.6637,1.668,1.7031,1.7261,1.7854,1.812,1.8383,1.864,1.8779,1.8779,1.8779,1.9058,1.9581,1.9654,1.9654,1.9705,1.9705,1.9705,1.9705,1.9705,1.9705,1.9726,1.9726,1.9705,1.9705,1.9705,1.9705,1.9797,1.9909,1.9945,2.0104,2.0398,2.0616,2.0698,2.0829,2.1197,2.1475,2.1507,2.1573,2.1685,2.1667,2.1631,2.1554,2.1432,2.1615,2.184,2.1751,2.1661,2.1915,2.2077,2.2135,2.2106,2.1899,2.1899,2.1853,2.1899,2.1899,2.2049,2.2123,2.218,2.2254,2.2327,2.2327,2.2327,2.2327,2.2327,2.2327,2.2327,2.2327,1.3152,1.36,1.3552,1.3836,1.4247,1.4258,1.4201,1.4247,1.4201,1.4294,1.4514,1.4606,1.4869,1.5141,1.532,1.5555,1.5964,1.6064,1.6064,1.6064,1.6064,1.6095,1.6151,1.625,1.6337,1.6479,1.6534,1.6534,1.6534,1.6534,1.6534,1.6534,1.6534,1.6534,1.6534,1.6534,1.6534,1.6534,1.6534,1.6534,1.6522,1.6522,1.6565,1.6534,1.6534,1.6534,1.6534,1.6534,1.6765,1.6964,1.7306,1.7624,1.7894,1.8106,1.8263,1.8249,1.8249,1.8511,1.8968,1.9169,1.9281,1.9332,1.9493,1.9406,1.9479,1.9566,1.9705,1.9705,1.9705,1.9705,1.9705,1.9705,1.9705,1.9705,1.9762,1.9741,1.9762,2.0,2.0158,2.0208,2.033,2.0452,2.0651,2.0667,2.0761,2.097,2.1037,2.1039,2.1071,2.1055,2.1462,2.1811,2.1811,2.1721,2.1915,2.2061,2.2061,2.1928,2.1718,2.1612,2.1612,2.1538,2.1477,2.1645,2.1857,2.1797,2.1661,2.1991,2.2327,2.2327,2.2327,2.2327,2.2327,2.2327,2.2327,1.2929,1.2978,1.2978,1.3017,1.3104,1.3027,1.3065,1.321,1.3113,1.342,1.3909,1.4329,1.4283,1.4236,1.456,1.4835,1.488,1.4835,1.4983,1.4983,1.488,1.5276,1.5499,1.5732,1.5908,1.625,1.625,1.6306,1.6436,1.6293,1.6436,1.6491,1.6436,1.6479,1.6534,1.6534,1.6534,1.6534,1.6534,1.6534,1.6534,1.6534,1.6534,1.6534,1.6534,1.6534,1.6534,1.6534,1.6522,1.6693,1.6978,1.7203,1.738,1.7666,1.7787,1.7827,1.7827,1.7987,1.8171,1.838,1.8302,1.838,1.8612,1.8945,1.8974,1.9406,1.9603,1.953,1.9384,1.9479,1.9566,1.969,1.9457,1.9376,1.9325,1.9406,1.9442,1.9566,1.9717,1.9732,1.9859,2.0074,2.0093,2.0174,2.0326,2.0519,2.0624,2.0648,2.0991,2.1118,2.1554,2.1886,2.1945,2.1991,2.2077,2.2049,2.1705,2.1598,2.146,2.143,2.143,2.1306,2.1023,2.1118,2.1244,2.1166,2.1197,2.1601,2.1961,2.2197,2.2282,2.2163,2.2237,2.2327,2.2327,1.2891,1.2891,1.2891,1.2891,1.2891,1.2891,1.2891,1.2891,1.2929,1.3017,1.3286,1.3478,1.3695,1.3826,1.4014,1.4376,1.4663,1.4709,1.4663,1.4709,1.4789,1.4835,1.505,1.505,1.5152,1.5389,1.5433,1.5389,1.5389,1.5776,1.5644,1.5656,1.6064,1.6436,1.6534,1.6479,1.6534,1.6534,1.6534,1.6534,1.6534,1.6534,1.6534,1.6534,1.6534,1.6534,1.6534,1.6534,1.6534,1.6547,1.6751,1.6829,1.6863,1.7118,1.7188,1.7188,1.7229,1.7229,1.7353,1.768,1.8068,1.8097,1.8293,1.8408,1.8386,1.8644,1.8703,1.8703,1.8779,1.8878,1.8763,1.8707,1.8622,1.8679,1.8792,1.8977,1.9118,1.9244,1.9406,1.9515,1.9639,1.9818,1.9782,1.9762,1.9919,2.0091,2.017,2.0296,2.0665,2.0959,2.1323,2.1477,2.1491,2.154,2.1617,2.1462,2.1244,2.1213,2.1181,2.1102,2.0991,2.0781,2.0583,2.0649,2.0764,2.0877,2.1055,2.1308,2.1493,2.1678,2.1823,2.1878,2.2044,2.2225,2.2225,1.2559,1.2608,1.2822,1.2891,1.2891,1.2891,1.2891,1.2891,1.2891,1.2891,1.2891,1.2929,1.3104,1.3467,1.3552,1.3695,1.3978,1.4071,1.4118,1.4061,1.4061,1.4294,1.4387,1.4479,1.456,1.4617,1.4709,1.4755,1.4835,1.5141,1.5096,1.5152,1.5478,1.5888,1.625,1.6423,1.6479,1.6534,1.6534,1.6534,1.6534,1.6534,1.6534,1.6534,1.6534,1.6534,1.6534,1.6534,1.6534,1.6534,1.6547,1.6534,1.6534,1.6534,1.6534,1.6534,1.6534,1.6534,1.6723,1.7089,1.7598,1.7487,1.7759,1.7814,1.7869,1.7975,1.8263,1.821,1.8171,1.8076,1.8043,1.8232,1.8274,1.8387,1.8363,1.8496,1.8688,1.8855,1.9095,1.9332,1.9493,1.9705,1.9705,1.9705,1.9777,1.9955,2.0154,2.0227,2.0364,2.0599,2.0731,2.0797,2.075,2.0862,2.0893,2.099,2.107,2.1022,2.0909,2.0583,2.0434,2.0246,2.0158,2.0158,2.0326,2.0626,2.0866,2.1036,2.1049,2.1055,2.1306,2.1625,2.1612,2.1751,2.1945,1.1873,1.1922,1.2618,1.2891,1.2891,1.2891,1.2891,1.2891,1.2891,1.2891,1.2891,1.2891,1.2939,1.3027,1.3065,1.3162,1.3162,1.3162,1.3162,1.32,1.3286,1.343,1.3647,1.3873,1.3967,1.4571,1.4479,1.4387,1.4525,1.4641,1.4606,1.4617,1.4846,1.5242,1.5644,1.6238,1.6479,1.6534,1.6534,1.6534,1.6534,1.6534,1.6534,1.6534,1.6534,1.6534,1.6534,1.6534,1.6534,1.6534,1.6534,1.6534,1.6534,1.6534,1.6534,1.6534,1.6534,1.6534,1.6522,1.6595,1.6693,1.6803,1.7164,1.7287,1.7406,1.7666,1.7854,1.7706,1.7814,1.7933,1.7999,1.7999,1.792,1.784,1.7814,1.7933,1.8131,1.8496,1.8779,1.9169,1.9493,1.9705,1.9705,1.9705,1.9705,1.9854,2.0104,2.0193,2.0158,2.0208,2.0311,2.0314,2.0268,2.0382,2.0543,2.0787,2.0852,2.0803,2.0639,2.0308,2.0089,2.0,1.9874,1.9767,1.9919,2.0262,2.0506,2.0753,2.0977,2.1236,2.1215,2.1352,2.1323,2.1354,2.1568,1.1814,1.1873,1.2608,1.2891,1.2891,1.2891,1.2891,1.2891,1.2891,1.2891,1.2891,1.2891,1.2891,1.2891,1.2891,1.2891,1.2891,1.2891,1.2891,1.2891,1.2891,1.2968,1.319,1.3286,1.3372,1.3478,1.3525,1.3652,1.3478,1.3968,1.3821,1.3695,1.4576,1.5017,1.5599,1.6151,1.6534,1.6534,1.6534,1.6534,1.6534,1.6534,1.6534,1.6534,1.6534,1.6534,1.6534,1.6534,1.6534,1.6534,1.6534,1.6534,1.6534,1.6534,1.6547,1.6547,1.6547,1.6534,1.6534,1.6522,1.6522,1.6584,1.667,1.6824,1.685,1.6909,1.6993,1.7076,1.7201,1.716,1.7021,1.7034,1.6993,1.698,1.6993,1.7229,1.7504,1.8013,1.8458,1.893,1.9332,1.9617,1.9705,1.9705,1.9705,1.9705,1.9909,1.9945,1.9925,1.9889,1.9925,1.9909,1.9929,2.003,2.0196,2.047,2.0424,2.0297,2.0161,1.994,1.9797,1.9797,1.9762,1.9762,1.9801,1.9884,2.0602,2.1186,2.1362,2.1498,2.1412,2.1293,2.1245,2.1231,2.1291,1.1814,1.1873,1.2608,1.2891,1.2891,1.2891,1.2891,1.2891,1.2891,1.2891,1.2891,1.2891,1.2891,1.2891,1.2891,1.2891,1.2891,1.2891,1.2891,1.2891,1.2891,1.2929,1.2929,1.2891,1.3027,1.291,1.3047,1.3165,1.3303,1.369,1.392,1.4198,1.4666,1.5451,1.5956,1.6323,1.6534,1.6534,1.6534,1.6534,1.6534,1.6534,1.6534,1.6534,1.6534,1.6534,1.6534,1.6534,1.6547,1.6559,1.6559,1.6559,1.6559,1.6547,1.6635,1.6735,1.6835,1.6748,1.6597,1.6534,1.6591,1.6879,1.6641,1.6491,1.6534,1.6607,1.6607,1.6565,1.6534,1.6522,1.6565,1.6534,1.6522,1.6522,1.6595,1.6837,1.7034,1.7544,1.7933,1.8458,1.9037,1.9339,1.9617,1.9705,1.9705,1.9705,1.9726,1.9698,1.9728,1.9705,1.9705,1.9726,1.9756,1.9893,2.0029,2.0204,2.0098,1.9771,1.9809,1.9929,1.9741,1.9762,1.9726,1.9794,2.0064,2.0483,2.1246,2.1734,2.1954,2.1853,2.1516,2.1404,2.1245,2.1295,2.142,1.1814,1.1922,1.2559,1.2891,1.2891,1.2891,1.2891,1.2891,1.2891,1.2891,1.2891,1.2891,1.2891,1.2891,1.2891,1.2891,1.2891,1.2891,1.2891,1.2891,1.2891,1.2891,1.2891,1.2891,1.2891,1.3027,1.3193,1.3369,1.3516,1.3834,1.4324,1.5007,1.5559,1.607,1.636,1.6675,1.6691,1.6609,1.6534,1.6597,1.6685,1.666,1.6773,1.6835,1.6886,1.6848,1.6823,1.681,1.6798,1.6717,1.6697,1.666,1.6609,1.6529,1.6911,1.7187,1.7325,1.7137,1.6886,1.6848,1.6961,1.7275,1.6898,1.6666,1.6554,1.6591,1.6534,1.6534,1.6534,1.6534,1.6534,1.6534,1.6534,1.6522,1.6522,1.6595,1.668,1.6993,1.7312,1.7826,1.846,1.8867,1.9221,1.9362,1.9459,1.9467,1.9464,1.9648,1.9651,1.9698,1.9735,1.972,1.9801,1.9839,2.0012,2.0363,2.0557,2.0467,2.0363,2.0378,2.0064,1.9854,1.9974,2.0198,2.0543,2.1081,2.1829,2.2323,2.2664,2.2419,2.2144,2.1741,2.1681,2.1741,2.1879,1.1814,1.1873,1.2608,1.2891,1.2891,1.2891,1.2891,1.2891,1.2891,1.2891,1.2891,1.2891,1.2891,1.2891,1.2891,1.2891,1.2891,1.2891,1.2891,1.2891,1.2891,1.2891,1.2891,1.29,1.2891,1.3047,1.3281,1.3603,1.3623,1.3912,1.4533,1.5163,1.5902,1.6432,1.6967,1.7464,1.7003,1.6717,1.6585,1.6835,1.7036,1.7124,1.7287,1.7476,1.7551,1.7546,1.7561,1.7571,1.7581,1.7604,1.7667,1.7708,1.7714,1.7393,1.7297,1.7388,1.7664,1.7877,1.7714,1.7688,1.7758,1.7773,1.746,1.7198,1.7053,1.6829,1.6609,1.6534,1.6534,1.6547,1.6647,1.6685,1.6685,1.6685,1.6685,1.6672,1.6759,1.6948,1.7316,1.7786,1.8375,1.8701,1.8979,1.8943,1.9017,1.9084,1.922,1.947,1.9684,1.9792,1.9879,1.9916,2.0183,2.0378,2.0609,2.0905,2.1143,2.1208,2.1039,2.0825,2.0617,2.0468,2.0423,2.0722,2.1261,2.1814,2.2469,2.2858,2.3116,2.3281,2.3053,2.2529,2.2109,2.2224,2.2291,1.1408,1.1466,1.1891,1.2049,1.2107,1.2353,1.2461,1.2501,1.2774,1.2891,1.2891,1.2891,1.2891,1.2891,1.2891,1.2891,1.2891,1.2891,1.2891,1.2891,1.2891,1.2891,1.29,1.3018,1.3027,1.3193,1.3545,1.4014,1.3975,1.44,1.5024,1.5741,1.6233,1.6551,1.6989,1.7201,1.7003,1.6817,1.6827,1.7293,1.7526,1.7656,1.7953,1.8106,1.8147,1.8154,1.816,1.8169,1.8196,1.8188,1.8194,1.8194,1.8242,1.8031,1.7856,1.7953,1.8229,1.8304,1.8141,1.8109,1.8304,1.8286,1.7999,1.7937,1.7551,1.723,1.6792,1.6534,1.6547,1.6584,1.6748,1.6873,1.6886,1.6886,1.6886,1.6886,1.7004,1.7165,1.7535,1.7969,1.8344,1.8657,1.8755,1.8695,1.8848,1.9246,1.9488,1.9571,1.9838,2.0093,2.0229,2.0294,2.0685,2.1042,2.1218,2.1281,2.1462,2.1568,2.1469,2.1285,2.1104,2.1117,2.1123,2.155,2.2113,2.2521,2.2753,2.3178,2.3505,2.3508,2.345,2.3076,2.276,2.2843,2.2903,1.0813,1.0813,1.0813,1.0922,1.0906,1.1466,1.1715,1.1814,1.2353,1.2774,1.2881,1.2891,1.2891,1.2891,1.2891,1.2891,1.2891,1.2891,1.2891,1.2891,1.2891,1.2891,1.3008,1.3252,1.3232,1.3477,1.3906,1.4463,1.4521,1.488,1.5519,1.6425,1.6444,1.671,1.7036,1.7142,1.7014,1.6834,1.7253,1.7787,1.7823,1.8016,1.8136,1.8104,1.808,1.8104,1.814,1.8115,1.8174,1.8138,1.8223,1.8225,1.8262,1.8561,1.8461,1.8253,1.8301,1.8276,1.8154,1.8032,1.829,1.8413,1.8399,1.8118,1.7569,1.7526,1.7142,1.7061,1.7124,1.7181,1.7365,1.7244,1.7149,1.7162,1.7162,1.7149,1.7226,1.7448,1.7817,1.8166,1.8354,1.8628,1.8733,1.8714,1.878,1.9368,1.9553,1.9562,1.9925,2.0269,2.0345,2.047,2.0821,2.1087,2.1191,2.1325,2.1684,2.18,2.1685,2.1469,2.1121,2.1398,2.1832,2.2093,2.2364,2.2628,2.2937,2.3054,2.3024,2.3069,2.3084,2.3319,2.3332,2.3213,2.3281,1.0813,1.0813,1.0813,1.0813,1.0813,1.0965,1.1007,1.1065,1.1216,1.195,1.2735,1.2881,1.2881,1.2832,1.2822,1.2822,1.2881,1.2891,1.2891,1.2891,1.2891,1.2939,1.2998,1.3369,1.3428,1.3701,1.4219,1.4873,1.5039,1.5331,1.5748,1.6368,1.6436,1.6581,1.7082,1.7137,1.7038,1.6774,1.7118,1.7387,1.7151,1.7209,1.7266,1.7571,1.7762,1.781,1.7821,1.7751,1.7732,1.7779,1.8346,1.831,1.8037,1.8494,1.8123,1.7514,1.7787,1.7862,1.788,1.7798,1.7967,1.7792,1.7612,1.7353,1.7291,1.7629,1.7722,1.7731,1.7727,1.7819,1.7852,1.7622,1.7463,1.743,1.7468,1.7488,1.7476,1.7806,1.8152,1.8308,1.8472,1.8605,1.8767,1.8814,1.8857,1.8931,1.9111,1.9285,1.9824,2.0184,2.0161,2.0292,2.0657,2.0932,2.1105,2.1245,2.1487,2.1591,2.1459,2.129,2.1151,2.1368,2.1657,2.2103,2.2431,2.2505,2.2355,2.2122,2.2165,2.2409,2.25,2.2651,2.2859,2.2801,2.3157,0.9917,0.9917,0.9909,0.9917,0.9969,1.021,1.0372,1.0423,1.0661,1.1225,1.19,1.1999,1.2098,1.2353,1.2403,1.2715,1.2822,1.2891,1.2891,1.2891,1.2939,1.3047,1.3242,1.3564,1.374,1.3994,1.4453,1.4971,1.5352,1.541,1.569,1.6036,1.6093,1.6265,1.6708,1.6658,1.6669,1.6564,1.668,1.6546,1.6383,1.671,1.7146,1.7544,1.7578,1.7578,1.7578,1.7578,1.7633,1.7622,1.8001,1.8024,1.7868,1.8,1.7832,1.7526,1.7497,1.7599,1.7555,1.7489,1.7511,1.7321,1.7364,1.7295,1.7407,1.7622,1.7529,1.7544,1.79,1.805,1.8119,1.7974,1.7865,1.7805,1.8122,1.8317,1.8455,1.8729,1.8967,1.913,1.9204,1.9193,1.9333,1.9358,1.9359,1.9359,1.9359,1.9321,1.9788,2.0093,2.0028,2.0104,2.0476,2.0854,2.1074,2.1125,2.1159,2.1213,2.1217,2.1329,2.1278,2.1259,2.1458,2.1806,2.1979,2.1918,2.1777,2.1561,2.1663,2.1979,2.1932,2.1932,2.2198,2.255,2.2991,0.8857,0.8804,0.8804,0.8804,0.8857,0.9413,0.9666,0.9769,1.0261,1.0466,1.0517,1.0568,1.1007,1.1616,1.1981,1.2393,1.2715,1.2881,1.2891,1.291,1.2978,1.3164,1.3535,1.3945,1.4189,1.4434,1.4785,1.5088,1.54,1.541,1.541,1.542,1.542,1.5468,1.542,1.5478,1.5642,1.569,1.572,1.5594,1.5958,1.6585,1.6946,1.7169,1.7302,1.7302,1.7302,1.7302,1.7302,1.7269,1.7136,1.728,1.7367,1.7434,1.7247,1.7014,1.6903,1.7013,1.7113,1.7002,1.7114,1.717,1.7313,1.7324,1.7278,1.7335,1.7217,1.7392,1.7786,1.8068,1.8093,1.8031,1.7982,1.7933,1.8338,1.8759,1.9033,1.9282,1.9458,1.9595,1.971,1.9723,1.9736,1.9773,1.9786,1.9798,1.9798,1.9798,1.985,1.9901,1.9901,2.0073,2.0332,2.0641,2.082,2.0812,2.0706,2.0779,2.0842,2.1178,2.1349,2.1035,2.0994,2.1343,2.1472,2.1232,2.1277,2.1225,2.1402,2.1553,2.1645,2.172,2.207,2.2509,2.2916,0.8804,0.8804,0.8804,0.8804,0.8804,0.8962,0.9008,0.9008,0.9166,0.9159,0.9309,0.9361,1.0072,1.1823,1.2501,1.2725,1.2471,1.2705,1.2852,1.29,1.2931,1.3266,1.3708,1.4321,1.4805,1.5029,1.5156,1.5312,1.542,1.542,1.542,1.542,1.542,1.542,1.542,1.542,1.542,1.542,1.542,1.542,1.542,1.5748,1.5748,1.5796,1.5796,1.5796,1.5796,1.5806,1.5796,1.5813,1.5961,1.63,1.6501,1.6666,1.6528,1.6301,1.6197,1.614,1.6187,1.6197,1.6239,1.6193,1.6187,1.614,1.6228,1.656,1.6554,1.672,1.7078,1.7489,1.7546,1.7369,1.7266,1.7289,1.752,1.8095,1.8517,1.8835,1.9141,1.9451,1.9786,1.9786,1.9773,1.9786,1.9798,1.9798,1.9798,1.9798,1.9798,1.9798,1.9836,2.0003,2.0194,2.0029,2.0029,2.0202,2.0181,2.0245,2.0446,2.0769,2.0805,2.0471,2.0521,2.0805,2.0633,2.0308,2.0411,2.0963,2.103,2.1186,2.1412,2.1642,2.2035,2.2391,2.2825]},{"header":{"parameterUnit":"m.s-1","parameterCategory":1,"la1":31.0,"la2":29.5877,"lo1":-88.7671,"lo2":-86.6584,"dy":0.0162,"dx":0.0185,"nx":115,"ny":88,"refTime":"2024-09-22T18:00:00:Z","depth":0,"parameterNumber":3,"parameterNumberName":"V-component_of_WINDS"},"data":[0.0,0.0,0.0,0.0,0.0,0.0,0.0,0.0,0.0,0.0,0.0,0.0,0.0,0.0,0.0,0.0,0.0,0.0,0.0,0.0,0.0,0.0,0.0,0.0,0.0,0.0,0.0,0.0,0.0,0.0,0.0,0.0,0.0,0.0,0.0,0.0,0.0,0.0,0.0,0.0,0.0,0.0,0.0,0.0,0.0,0.0,0.0,0.0,0.0,0.0,0.0,0.0,0.0,0.0,0.0,0.0,0.0,0.0,0.0,0.0,0.0,0.0,0.0,0.0,0.0,0.0,0.0,0.0,0.0,0.0,0.0,0.0,0.0,0.0,0.0,0.0,0.0,0.0,0.0,0.0,0.0,0.0,0.0,0.0,0.0,0.0,0.0,0.0,0.0,0.0,0.0,0.0,0.0,0.0,0.0,0.0,0.0,0.0,0.0,0.0,0.0,0.0,0.0,0.0,0.0,0.0,0.0,0.0,0.0,0.0,0.0,0.0,0.0,0.0,0.0,0.0,0.0,0.0,0.0,0.0,0.0,0.0,0.0,0.0,0.0,0.0,0.0,0.0,0.0,0.0,0.0,0.0,0.0,0.0,0.0,0.0,0.0,0.0,0.0,0.0,0.0,0.0,0.0,0.0,0.0,0.0,0.0,0.0,0.0,0.0,0.0,0.0,0.0,0.0,0.0,0.0,0.0,0.0,0.0,0.0,0.0,0.0,0.0,0.0,0.0,0.0,0.0,0.0,0.0,0.0,0.0,0.0,0.0,0.0,0.0,0.0,0.0,0.0,0.0,0.0,0.0,0.0,0.0,0.0,0.0,0.0,0.0,0.0,0.0,0.0,0.0,0.0,0.0,0.0,0.0,0.0,0.0,0.0,0.0,0.0,0.0,0.0,0.0,0.0,0.0,0.0,0.0,0.0,0.0,0.0,0.0,0.0,0.0,0.0,0.0,0.0,0.0,0.0,0.0,0.0,0.0,0.0,0.0,0.0,0.0,0.0,0.0,0.0,0.0,0.0,0.0,0.0,0.0,0.0,0.0,0.0,0.0,0.0,0.0,0.0,0.0,0.0,0.0,0.0,0.0,0.0,0.0,0.0,0.0,0.0,0.0,0.0,0.0,0.0,0.0,0.0,0.0,0.0,0.0,0.0,0.0,0.0,0.0,0.0,0.0,0.0,0.0,0.0,0.0,0.0,0.0,0.0,0.0,0.0,0.0,0.0,0.0,0.0,0.0,0.0,0.0,0.0,0.0,0.0,0.0,0.0,0.0,0.0,0.0,0.0,0.0,0.0,0.0,0.0,0.0,0.0,0.0,0.0,0.0,0.0,0.0,0.0,0.0,0.0,0.0,0.0,0.0,0.0,0.0,0.0,0.0,0.0,0.0,0.0,0.0,0.0,0.0,0.0,0.0,0.0,0.0,0.0,0.0,0.0,0.0,0.0,0.0,0.0,0.0,0.0,0.0,0.0,0.0,0.0,0.0,0.0,0.0,0.0,0.0,0.0,0.0,0.0,0.0,0.0,0.0,0.0,0.0,0.0,0.0,0.0,0.0,0.0,0.0,0.0,0.0,0.0,0.0,0.0,0.0,0.0,0.0,0.0,0.0,0.0,0.0,0.0,0.0,0.0,0.0,0.0,0.0,0.0,0.0,0.0,0.0,0.0,0.0,0.0,0.0,0.0,0.0,0.0,0.0,0.0,0.0,0.0,0.0,0.0,0.0,0.0,0.0,0.0,0.0,0.0,0.0,0.0,0.0,0.0,0.0,0.0,0.0,0.0,0.0,0.0,0.0,0.0,0.0,0.0,0.0,0.0,0.0,0.0,0.0,0.0,0.0,0.0,0.0,0.0,0.0,0.0,0.0,0.0,0.0,0.0,0.0,0.0,0.0,0.0,0.0,0.0,0.0,0.0,0.0,0.0,0.0,0.0,0.0,0.0,0.0,0.0,0.0,0.0,0.0,0.0,0.0,0.0,0.0,0.0,0.0,0.0,0.0,0.0,0.0,0.0,0.0,0.0,0.0,0.0,0.0,0.0,0.0,0.0,0.0,0.0,0.0,0.0,0.0,0.0,0.0,0.0,0.0,0.0,0.0,0.0,0.0,0.0,0.0,0.0,0.0,0.0,0.0,0.0,0.0,0.0,0.0,0.0,0.0,0.0,0.0,0.0,0.0,0.0,0.0,0.0,0.0,0.0,0.0,0.0,0.0,0.0,0.0,0.0,0.0,0.0,0.0,0.0,0.0,0.0,0.0,0.0,0.0,0.0,0.0,0.0,0.0,0.0,0.0,0.0,0.0,0.0,0.0,0.0,0.0,0.0,0.0,0.0,0.0,0.0,0.0,0.0,0.0,0.0,0.0,0.0,0.0,0.0,0.0,0.0,0.0,0.0,0.0,0.0,0.0,0.0,0.0,0.0,0.0,0.0,0.0,0.0,0.0,0.0,0.0,0.0,0.0,0.0,0.0,0.0,0.0,0.0,0.0,0.0,0.0,0.0,0.0,0.0,0.0,0.0,0.0,0.0,0.0,0.0,0.0,0.0,0.0,0.0,0.0,0.0,0.0,0.0,0.0,0.0,0.0,0.0,0.0,0.0,0.0,0.0,0.0,0.0,0.0,0.0,0.0,0.0,0.0,0.0,0.0,0.0,0.0,0.0,0.0,0.0,0.0,0.0,0.0,0.0,0.0,0.0,0.0,0.0,0.0,0.0,0.0,0.0,0.0,0.0,0.0,0.0,0.0,0.0,0.0,0.0,0.0,0.0,0.0,0.0,0.0,0.0,0.0,0.0,0.0,0.0,0.0,0.0,0.0,0.0,0.0,0.0,0.0,0.0,0.0,0.0,0.0,0.0,0.0,0.0,0.0,0.0,0.0,0.0,0.0,0.0,0.0,0.0,0.0,0.0,0.0,0.0,0.0,0.0,0.0,0.0,0.0,0.0,0.0,0.0,0.0,0.0,0.0,0.0,0.0,0.0,0.0,0.0,0.0,0.0,0.0,0.0,0.0,0.0,0.0,0.0,0.0,0.0,0.0,0.0,0.0,0.0,0.0,0.0,0.0,0.0,0.0,0.0,0.0,0.0,0.0,0.0,0.0,0.0,0.0,0.0,0.0,0.0,0.0,0.0,0.0,0.0,0.0,0.0,0.0,0.0,0.0,0.0,0.0,0.0,0.0,0.0,0.0,0.0,0.0,0.0,0.0,0.0,0.0,0.0,0.0,0.0,0.0,0.0,0.0,0.0,0.0,0.0,0.0,0.0,0.0,0.0,0.0,0.0,0.0,0.0,0.0,0.0,0.0,0.0,0.0,0.0,0.0,0.0,0.0,0.0,0.0,0.0,0.0,0.0,0.0,0.0,0.0,0.0,0.0,0.0,0.0,0.0,0.0,0.0,0.0,0.0,0.0,0.0,0.0,0.0,0.0,0.0,0.0,0.0,0.0,0.0,0.0,0.0,0.0,0.0,0.0,0.0,0.0,0.0,0.0,0.0,0.0,0.0,0.0,0.0,0.0,0.0,0.0,0.0,0.0,0.0,0.0,0.0,0.0,0.0,0.0,0.0,0.0,0.0,0.0,0.0,0.0,0.0,0.0,0.0,0.0,0.0,0.0,0.0,0.0,0.0,0.0,0.0,0.0,0.0,0.0,0.0,0.0,0.0,0.0,0.0,0.0,0.0,0.0,0.0,0.0,0.0,0.0,0.0,0.0,0.0,0.0,0.0,0.0,0.0,0.0,0.0,0.0,0.0,0.0,0.0,0.0,0.0,0.0,0.0,0.0,0.0,0.0,0.0,0.0,0.0,0.0,0.0,0.0,0.0,0.0,0.0,0.0,0.0,0.0,0.0,0.0,0.0,0.0,0.0,0.0,0.0,0.0,0.0,0.0,0.0,0.0,0.0,0.0,0.0,0.0,0.0,0.0,0.0,0.0,0.0,0.0,0.0,0.0,0.0,0.0,0.0,0.0,0.0,0.0,0.0,0.0,0.0,0.0,0.0,0.0,0.0,0.0,0.0,0.0,0.0,0.0,0.0,0.0,0.0,0.0,0.0,0.0,0.0,0.0,0.0,0.0,0.0,0.0,0.0,0.0,0.0,0.0,0.0,0.0,0.0,0.0,0.0,0.0,0.0,0.0,0.0,0.0,0.0,0.0,0.0,0.0,0.0,0.0,0.0,0.0,0.0,0.0,0.0,0.0,0.0,0.0,0.0,0.0,0.0,0.0,0.0,0.0,0.0,0.0,0.0,0.0,0.0,0.0,0.0,0.0,0.0,0.0,0.0,-0.1505,0.0,0.0,0.0,0.0,0.0,0.0,0.0,0.0,0.0,0.0,0.0,0.0,0.0,0.0,0.0,0.0,0.0,0.0,0.0,0.0,0.0,0.0,0.0,0.0,0.0,0.0,0.0,0.0,0.0,0.0,0.0,0.0,0.0,0.0,0.0,0.0,0.0,0.0,0.0,0.0,0.0,0.0,0.0,0.0,0.0,0.0,0.0,0.0,0.0,0.0,0.0,0.0,0.0,0.0,0.0,0.0,0.0,0.0,0.0,0.0,0.0,0.0,0.0,0.0,0.0,0.0,0.0,0.0,0.0,0.0,0.0,0.0,0.0,0.0,0.0,0.0,0.0,0.0,0.0,0.0,0.0,0.0,0.0,0.0,0.0,0.0,0.0,0.0,0.0,0.0,0.0,0.0,0.0,0.0,0.0,0.0,0.0,0.0,0.0,0.0,0.0,0.0,0.0,0.0,0.0,0.0,0.0,0.0,0.0,0.0,0.2073,0.0734,-0.0456,-0.1075,-0.1102,0.0,0.0,0.0,0.0,0.0,0.0,0.0,0.0,0.0,0.0,0.0,0.0,0.0,0.0,0.0,0.0,0.0,0.0,0.0,0.0,0.0,0.0,0.0,0.0,0.0,0.0,0.0,0.0,0.0,0.0,0.0,0.0,0.0,0.0,0.0,0.0,0.0,0.0,0.0,0.0,0.0,0.0,0.0,0.0,0.0,0.0,0.0,0.0,0.0,0.0,0.0,0.0,0.0,0.0,0.0,0.0,0.0,0.0,0.0,0.0,0.0,0.0,0.0,0.0,0.0,0.0,0.0,0.0,0.0,0.0,0.0,0.0,0.0,0.0,0.0,0.0,0.0,0.0,0.0,0.0,0.0,0.0,0.0,0.0,0.0,0.0,0.0,0.0,0.0,0.0,0.0,0.0,0.0,0.0,0.0,0.0,0.0,0.0,0.0,0.0,0.0,0.0,0.0,0.0,0.0,0.0,0.0,0.0,0.0,0.0,0.0,0.0,-0.0289,-0.1239,-0.1169,0.0,0.0,0.0,0.0,0.0,0.0,0.0,0.0,0.0,0.0,0.0,0.0,0.0,0.0,0.0,0.0,0.0,0.0,0.0,0.0,0.0,0.0,0.0,0.0,0.0,0.0,0.0,0.0,0.0,0.0,0.0,0.0,0.0,0.0,0.0,0.0,0.0,0.0,0.0,0.0,0.0,0.0,0.0,0.0,0.0,0.0,0.0,0.0,0.0,0.0,0.0,0.0,0.0,0.0,0.0,0.0,0.0,0.0,0.0,0.0,0.0,0.0,0.0,0.0,0.0,0.0,0.0,0.0,0.0,0.0,0.0,0.0,0.0,0.0,0.0,0.0,0.0,0.0,0.0,0.0,0.0,0.0,0.0,0.0,0.0,0.0,0.0,0.0,0.0,0.0,0.0,0.0,0.0,0.0,0.0,0.0,0.0,0.0,0.0,0.0,0.0,0.0,0.0,0.0,0.0,0.0,0.0,0.0,0.0,0.0,0.346,0.2539,-0.0735,0.0,-0.1816,0.0,0.0,0.0,0.0,0.0,0.0,0.0,0.0,0.0,0.0,0.0,0.0,0.0,0.0,0.0,0.0,0.0,0.0,0.0,0.0,0.0,0.0,0.0,0.0,0.0,0.0,0.0,0.0,0.0,0.0,0.0,0.0,0.0,0.0,0.0,0.0,0.0,0.0,0.0,0.0,0.0,0.0,0.0,0.0,0.0,0.0,0.0,0.0,0.0,0.0,0.0,0.0,0.0,0.0,0.0,0.0,0.0,0.0,0.0,0.0,0.0,0.0,0.0,0.0,0.0,0.0,0.0,0.0,0.0,0.0,0.0,0.0,0.0,0.0,0.0,0.0,0.0,0.0,0.0,0.0,0.0,0.0,0.0,0.0,0.0,0.0,0.0,0.0,0.0,0.0,0.0,0.0,0.0,0.0,0.0,0.0,0.0,0.0,0.0,0.0,0.0,0.0,0.0,0.0,0.0,0.0,0.0,0.0,0.0,0.0,0.1826,0.1106,-0.1129,-0.2359,0.0,0.0,0.0,0.0,0.0,0.0,0.0,0.0,0.0,0.0,0.0,0.0,0.0,0.0,0.0,0.0,0.0,0.0,0.0,0.0,0.0,0.0,0.0,0.0,0.0,0.0,0.0,0.0,0.0,0.0,0.0,0.0,0.0,0.0,0.0,0.0,0.0,0.0,0.0,0.0,0.0,0.0,0.0,0.0,0.0,0.0,0.0,0.0,0.0,0.0,0.0,0.0,0.0,0.0,0.0,0.0,0.0,0.0,0.0,0.0,0.0,0.0,0.0,0.0,0.0,0.0,0.0,0.0,0.0,0.0,0.0,0.0,0.0,0.0,0.0,0.0,0.0,0.0,0.0,0.0,0.0,0.0,0.0,0.0,0.0,0.0,0.0,0.0,0.0,0.0,0.0,0.0,0.0,0.0,0.0,0.0,0.0,0.0,0.0,0.0,0.0,0.0,0.0,0.0,0.0,0.0,0.0,0.0,0.0,0.0,0.2214,0.0426,-0.0586,-0.1683,-0.2339,-0.2453,0.0,0.0,0.0,0.0,0.0,0.0,0.0,0.0,0.0,0.0,0.0,0.0,0.0,0.0,0.0,0.0,0.0,0.0,0.0,0.0,0.0,0.0,0.0,0.0,0.0,0.0,0.0,0.0,0.0,0.0,0.0,0.0,0.0,0.0,0.0,0.0,0.0,0.0,0.0,0.0,0.0,0.0,0.0,0.0,0.0,0.0,0.0,0.0,0.0,0.0,0.0,0.0,0.0,0.0,0.0,0.0,0.0,0.0,0.0,0.0,0.0,0.0,0.0,0.0,0.0,0.0,0.0,0.0,0.0,0.0,0.0,0.0,0.0,0.0,0.0,0.0,0.0,0.0,0.0,0.0,0.0,0.0,0.0,0.0,0.0,0.0,0.0,0.0,0.0,0.0,0.0,0.0,0.0,0.0,0.0,0.0,0.0,0.0,0.0,0.0,0.0,0.0,0.0,0.0,0.0,0.0,0.0,0.0,0.0,0.1812,-0.0064,-0.1984,-0.2476,-0.2401,0.0,0.0,0.0,0.0,0.0,0.0,0.0,0.0,0.0,0.0,0.0,0.0,0.0,0.0,0.0,0.0,0.0,0.0,0.0,0.0,0.0,0.0,0.0,0.0,0.0,0.0,0.0,0.0,0.0,0.0,0.0,0.0,0.0,0.0,0.0,0.0,0.0,0.0,0.0,0.0,0.0,0.0,0.0,0.0,0.0,0.0,0.0,0.0,0.0,0.0,0.0,0.0,0.0,0.0,0.0,0.0,0.0,0.0,0.0,0.0,0.0,0.0,0.0,0.0,0.0,0.0,0.0,0.0,0.0,0.0,0.0,0.0,0.0,0.0,0.0,0.0,0.0,0.0,0.0,0.0,0.0,0.0,0.0,0.0,0.0,0.0,0.0,0.0,0.0,0.0,0.0,0.0,0.0,0.0,0.0,0.0,0.0,0.0,0.0,0.0,0.0,0.0,0.0,0.0,0.0,0.0,0.0,0.0,0.0,0.4476,0.1432,-0.0872,-0.2126,-0.2335,-0.2388,0.0,0.0,0.0,0.0,0.0,0.0,0.0,0.0,0.0,0.0,0.0,0.0,0.0,0.0,0.0,0.0,0.0,0.0,0.0,0.0,0.0,0.0,0.0,0.0,0.0,0.0,0.0,0.0,0.0,0.0,0.0,0.0,0.0,0.0,0.0,0.0,0.0,0.0,0.0,0.0,0.0,0.0,0.0,0.0,0.0,0.0,0.0,0.0,0.0,0.0,0.0,0.0,0.0,0.0,0.0,0.0,0.0,0.0,0.0,0.0,0.0,0.0,0.0,0.0,0.0,0.0,0.0,0.0,0.0,0.0,0.0,0.0,0.0,0.0,0.0,0.0,0.0,0.0,0.0,0.0,0.0,0.0,0.0,0.0,0.0,0.0,0.0,0.0,0.0,0.0,0.0,0.0,0.0,0.0,0.0,0.0,0.0,0.0,0.0,0.0,0.0,0.0,0.0,0.0,0.0,0.0,0.0,0.0,0.0,0.4275,0.0,-0.1342,0.0,-0.2847,-0.2681,0.0,0.0,0.0,0.0,0.0,0.0,0.0,0.0,0.0,0.0,0.0,0.0,0.0,0.0,0.0,0.0,0.0,0.0,0.0,0.0,0.0,0.0,0.0,0.0,0.0,0.0,0.0,0.0,0.0,0.0,0.0,0.0,0.0,0.0,0.0,0.0,0.0,0.0,0.0,0.0,0.0,0.0,0.0,0.0,0.0,0.0,0.0,0.0,0.0,0.0,0.0,0.0,0.0,0.0,0.0,0.0,0.0,0.0,0.0,0.0,0.0,0.0,0.0,0.0,0.0,0.0,0.0,0.0,0.0,0.0,0.0,0.0,0.0,0.0,0.0,0.0,0.0,0.0,0.0,0.0,0.0,0.0,0.0,0.0,0.0,0.0,0.0,0.0,0.0,0.0,0.0,0.0,0.0,0.0,0.0,0.0,0.0,0.0,0.0,0.0,0.0,0.0,0.0,0.0,0.0,0.0,0.0,0.0,0.4486,0.2741,0.0948,-0.1378,-0.4193,-0.4147,-0.3411,0.0,0.0,0.0,0.0,0.0,0.0,0.0,0.0,0.0,0.0,0.0,0.0,0.0,0.0,0.0,0.0,0.0,0.0,0.0,0.0,0.0,0.0,0.0,0.0,0.0,0.0,0.0,0.0,0.0,0.0,0.0,0.0,0.0,0.0,0.0,0.0,0.0,0.0,0.0,0.0,0.0,0.0,0.0,0.0,0.0,0.0,0.0,0.0,0.0,0.0,0.0,0.0,0.0,0.0,0.0,0.0,0.0,0.0,0.0,0.0,0.0,0.0,0.0,0.0,0.0,0.0,0.0,0.0,0.0,0.0,0.0,0.0,0.0,0.0,0.0,0.0,0.0,0.0,0.0,0.0,0.0,0.0,0.0,0.0,0.0,0.0,0.0,0.0,0.0,0.0,0.0,0.0,0.0,0.0,0.0,0.0,0.0,0.0,0.0,0.0,0.0,0.0,0.0,0.0,0.0,0.0,0.0,0.0,0.0,0.6067,0.1921,-0.0895,-0.2279,-0.4704,-0.4888,0.0,0.0,0.0,0.0,0.0,0.0,0.0,0.0,0.0,0.0,0.0,0.0,0.0,0.0,0.0,0.0,0.0,0.0,0.0,0.0,0.0,0.0,0.0,0.0,0.0,0.0,0.0,0.0,0.0,0.0,0.0,0.0,0.0,0.0,0.0,0.0,0.0,0.0,0.0,0.0,0.0,0.0,0.0,0.0,0.0,0.0,0.0,0.0,0.0,0.0,0.0,0.0,0.0,0.0,0.0,0.0,0.0,0.0,0.0,0.0,0.0,0.0,0.0,0.0,0.0,0.0,0.0,0.0,0.0,0.0,0.0,0.0,0.0,0.0,0.0,0.0,0.0,0.0,0.0,0.0,0.0,0.0,0.0,0.0,0.0,0.0,0.0,0.0,0.0,0.0,0.0,0.0,0.0,0.0,0.0,0.0,0.0,0.0,0.0,0.0,0.0,0.0,0.0,0.0,0.0,0.0,0.0,0.0,0.0,0.8239,0.2852,-0.0925,-0.2763,-0.5794,-0.6627,-0.5034,0.0,0.0,0.0,0.0,0.0,0.0,0.0,0.0,0.0,0.0,0.0,0.0,0.0,0.0,0.0,0.0,0.0,0.0,0.0,0.0,0.0,0.0,0.0,0.0,0.0,0.0,0.0,0.0,0.0,0.0,0.0,0.0,0.0,0.0,0.0,0.0,0.0,0.0,0.0,0.0,0.0,0.0,0.0,0.0,0.0,0.0,0.0,0.0,0.0,0.0,0.0,0.0,0.0,0.0,0.0,0.0,0.0,0.0,0.0,0.0,0.0,0.0,0.0,0.0,0.0,0.0,0.0,0.0,0.0,0.0,0.0,0.0,0.0,0.0,0.0,0.0,0.0,0.0,0.0,0.0,0.0,0.0,0.0,0.0,0.0,0.0,0.0,0.0,0.0,0.0,0.0,0.0,0.0,0.0,0.0,0.0,0.0,0.0,0.0,0.0,0.0,0.0,0.0,0.0,0.0,0.0,0.0,0.0,0.9568,0.3772,-0.1081,-0.4913,-0.7101,-0.8454,0.0,0.0,0.0,0.0,0.0,0.0,0.0,0.0,0.0,0.0,0.0,0.0,0.0,0.0,0.0,0.0,0.0,0.0,0.0,0.0,0.0,0.0,0.0,0.0,0.0,0.0,0.0,0.0,0.0,0.0,0.0,0.0,0.0,0.0,0.0,0.0,0.0,0.0,0.0,0.0,0.0,0.0,0.0,0.0,0.0,0.0,0.0,0.0,0.0,0.0,0.0,0.0,0.0,0.0,0.0,0.0,0.0,0.0,0.0,0.0,0.0,0.0,0.0,0.0,0.0,0.0,0.0,0.0,0.0,0.0,0.0,0.0,0.0,0.0,0.0,0.0,0.0,0.0,0.0,0.0,0.0,0.0,0.0,0.0,0.0,0.0,0.0,0.0,0.0,0.0,0.0,0.0,0.0,0.0,0.0,0.0,0.0,0.0,0.0,0.0,0.0,0.0,0.0,0.0,0.0,0.0,0.0,0.0,0.0,0.9892,0.5603,0.1458,-0.241,-0.6678,-0.9403,0.0,0.0,0.0,0.0,0.0,0.0,0.0,0.0,0.0,0.0,0.0,0.0,0.0,0.0,0.0,0.0,0.0,0.0,0.0,0.0,0.0,0.0,0.0,0.0,0.0,0.0,0.0,0.0,0.0,0.0,0.0,0.0,0.0,0.0,0.0,0.0,0.0,0.0,0.0,0.0,0.0,0.0,0.0,0.0,0.0,0.0,0.0,0.0,0.0,0.0,0.0,0.0,0.0,0.0,0.0,0.0,0.0,0.0,0.0,0.0,0.0,0.0,0.0,0.0,0.0,0.0,0.0,0.0,0.0,0.0,0.0,0.0,0.0,0.0,0.0,0.0,0.0,0.0,0.0,0.0,0.0,0.0,0.0,0.0,0.0,0.0,0.0,0.0,0.0,0.0,0.0,0.0,0.0,0.0,0.0,0.0,0.0,0.0,0.0,0.0,0.0,0.0,0.0,0.0,0.0,0.0,0.0,0.0,1.2138,1.0483,0.6723,0.284,-0.1082,-0.5667,-0.9117,0.0,0.0,0.0,0.0,0.0,0.0,0.0,0.0,0.0,0.0,0.0,0.0,0.0,0.0,0.0,0.0,0.0,0.0,0.0,0.0,0.0,0.0,0.0,0.0,0.0,0.0,0.0,0.0,0.0,0.0,0.0,0.0,0.0,0.0,0.0,0.0,0.0,0.0,0.0,0.0,0.0,0.0,0.0,0.0,0.0,0.0,0.0,0.0,0.0,0.0,0.0,0.0,0.0,0.0,0.0,0.0,0.0,0.0,0.0,0.0,0.0,0.0,0.0,0.0,0.0,0.0,0.0,0.0,0.0,0.0,0.0,0.0,0.0,0.0,0.0,0.0,0.0,0.0,0.0,0.0,0.0,0.0,0.0,0.0,0.0,0.0,0.0,0.0,0.0,0.0,0.0,0.0,0.0,0.0,0.0,0.0,0.0,0.0,0.0,0.0,0.0,0.0,0.0,0.0,0.0,0.0,0.0,0.0,1.2127,1.0932,0.731,0.3483,-0.0529,-0.4409,-0.8035,0.0,0.0,0.0,0.0,0.0,0.0,0.0,0.0,0.0,0.0,0.0,0.0,0.0,0.0,0.0,0.0,0.0,0.0,0.0,0.0,0.0,0.0,0.0,0.0,0.0,0.0,0.0,0.0,0.0,0.0,0.0,0.0,0.0,0.0,0.0,0.0,0.0,0.0,0.0,0.0,0.0,0.0,0.0,0.0,0.0,0.0,0.0,0.0,0.0,0.0,0.0,0.0,0.0,0.0,0.0,0.0,0.0,0.0,0.0,0.0,0.0,0.0,0.0,0.0,0.0,0.0,0.0,0.0,0.0,0.0,0.0,0.0,0.0,0.0,0.0,0.0,0.0,0.0,0.0,0.0,0.0,0.0,0.0,0.0,0.0,0.0,0.0,0.0,0.0,0.0,0.0,0.0,0.0,0.0,0.0,0.0,0.0,0.0,0.0,0.0,0.0,0.0,0.0,0.0,0.0,0.0,0.0,0.0,1.2062,1.0521,0.7567,0.4067,0.0022,-0.3692,-0.7031,0.0,0.0,0.0,0.0,0.0,0.0,0.0,0.0,0.0,0.0,0.0,0.0,0.0,0.0,0.0,0.0,0.0,0.0,0.0,0.0,0.0,0.0,0.0,0.0,0.0,0.0,0.0,0.0,0.0,0.0,0.0,0.0,0.0,0.0,0.0,0.0,0.0,0.0,0.0,0.0,0.0,0.0,0.0,0.0,0.0,0.0,0.0,0.0,-0.331,0.0,0.0,0.0,0.0,0.0,0.0,0.0,0.0,0.0,0.0,0.0,0.0,0.0,0.0,0.0,0.0,0.0,0.0,0.0,0.0,0.0,0.0,0.0,0.0,0.0,0.0,0.0,0.0,0.0,0.0,0.0,0.0,0.0,0.0,0.0,0.0,0.0,0.0,0.0,0.0,0.0,0.0,0.0,0.0,0.0,0.0,0.0,0.0,0.0,0.0,0.0,0.0,0.0,0.0,0.0,0.0,0.0,0.0,0.0,1.1534,1.0181,0.7159,0.3893,0.0511,-0.2791,-0.5835,0.0,0.0,0.0,0.0,0.0,0.0,0.0,0.0,0.0,0.0,0.0,0.0,0.0,0.0,0.0,0.0,0.0,0.0,0.0,0.0,0.0,0.0,0.0,0.0,0.0,0.0,0.0,0.0,0.0,0.0,0.0,0.0,0.0,0.0,0.0,0.0,0.0,0.0,0.0,0.0,0.0,0.0,0.0,0.0,0.0,0.0,0.0,0.0,0.0,0.0,0.0,0.0,0.0,0.0,0.0,0.0,0.0,0.0,0.0,0.0,0.0,0.0,0.0,0.0,0.0,0.0,0.0,0.0,0.0,0.0,0.0,0.0,0.0,0.0,0.0,0.0,0.0,0.0,0.0,0.0,0.0,0.0,0.0,0.0,0.0,0.0,0.0,0.0,0.0,0.0,0.0,0.0,0.0,0.0,0.0,0.0,0.0,0.0,0.0,0.0,0.0,0.0,0.0,0.0,0.0,0.0,0.0,1.2424,1.0785,0.9796,0.6613,0.3572,0.0857,-0.1834,-0.4577,-0.7327,0.0,0.0,0.0,0.0,0.0,0.0,0.0,0.0,0.0,0.0,0.0,0.0,0.0,0.0,0.0,0.0,0.0,0.0,0.0,0.0,0.0,0.0,0.0,0.0,0.0,0.0,0.0,0.0,0.0,0.0,0.0,0.0,0.0,0.0,0.0,0.0,0.0,0.0,0.5868,0.3486,0.0,0.0,0.0,0.0,0.0,0.0,0.0,0.0,-0.5042,0.0,0.0,0.0,0.0,0.0,0.0,0.0,0.0,0.0,0.0,0.0,0.0,0.0,0.0,0.0,0.0,0.0,0.0,0.0,0.0,0.0,0.0,0.0,0.0,0.0,0.0,0.0,0.0,0.0,0.0,0.0,0.0,0.0,0.0,0.0,0.0,0.0,0.0,0.0,0.0,0.0,0.0,0.0,0.0,0.0,0.0,0.0,0.0,0.0,0.0,0.0,0.0,0.0,0.0,0.0,0.0,1.4277,1.1464,0.9762,0.9223,0.6663,0.3863,0.0895,-0.1005,-0.3251,-0.5929,0.0,0.0,0.0,0.0,0.0,0.0,0.0,0.0,0.0,0.0,0.0,0.0,0.0,0.0,0.0,0.0,0.0,0.0,0.0,0.0,0.0,0.0,0.0,0.0,0.0,0.0,0.0,0.0,0.0,0.0,0.0,0.0,0.0,0.0,0.0,0.0,0.0,0.0,0.0,0.3918,0.1472,0.0,0.0,0.0,0.0,0.0,0.0,0.0,0.0,-0.5941,0.0,0.0,0.0,0.0,0.0,0.0,0.0,0.0,0.0,0.0,0.0,0.0,0.0,0.0,0.0,0.0,0.0,0.0,0.0,0.0,0.0,0.0,0.0,0.0,0.0,0.0,0.0,0.0,0.0,0.0,0.0,0.0,0.0,0.0,0.0,0.0,0.0,0.0,0.0,0.0,0.0,0.0,0.0,0.0,0.0,0.0,0.0,0.0,0.0,0.0,0.0,0.0,0.0,0.0,0.0,1.4067,1.1576,0.9788,0.8871,0.6434,0.3762,0.0959,-0.0638,-0.2707,0.0,0.0,0.0,0.0,0.0,0.0,0.0,0.0,0.0,0.0,0.0,0.0,0.0,0.0,0.0,0.0,0.0,0.0,0.0,0.0,0.0,0.0,0.0,0.0,0.0,0.0,0.0,0.0,0.0,0.0,0.0,0.0,0.0,0.0,0.0,0.0,0.0,0.0,0.0,0.0,0.537,0.2892,0.0118,0.0,0.0,0.0,0.0,0.0,0.0,-0.6454,-0.871,0.0,0.0,0.0,0.0,0.0,0.0,0.0,0.0,0.0,0.0,0.0,0.0,0.0,0.0,0.0,0.0,0.0,0.0,0.0,0.0,0.0,0.0,0.0,0.0,0.0,0.0,0.0,0.0,0.0,0.0,0.0,0.0,0.0,0.0,0.0,0.0,0.0,0.0,0.0,0.0,0.0,0.0,0.0,0.0,0.0,0.0,0.0,0.0,0.0,0.0,0.0,0.0,0.0,0.0,0.0,1.3993,1.1857,0.9999,0.8456,0.6162,0.3626,0.089,-0.0569,-0.2481,0.0,0.0,0.0,0.0,0.0,0.0,0.0,0.0,0.0,0.0,0.0,0.0,0.0,0.0,0.0,0.0,0.0,0.0,0.0,0.0,0.0,0.0,0.0,0.0,0.0,0.0,0.0,0.0,0.0,0.0,0.0,0.0,0.0,0.0,0.0,0.0,0.0,0.0,0.0,0.0,0.0,0.4537,0.0778,-0.1566,0.0,0.0,0.0,0.0,-0.252,-0.6895,0.0,0.0,0.0,0.0,0.0,0.0,0.0,0.0,0.0,0.0,0.0,0.0,0.0,0.0,0.0,0.0,0.0,0.0,0.0,0.0,0.0,0.0,0.0,0.0,0.0,0.0,0.0,0.0,0.0,0.0,0.0,0.0,0.0,0.0,0.0,0.0,0.0,0.0,0.0,0.0,0.0,0.0,0.0,0.0,0.0,0.0,0.0,0.0,0.0,0.0,0.0,0.0,0.0,0.0,0.0,0.0,1.3537,1.1745,0.9782,0.7766,0.6007,0.3618,0.0567,-0.0958,-0.251,0.0,0.0,0.0,0.0,0.0,0.0,0.0,0.0,0.0,0.0,0.0,0.0,0.0,0.0,0.0,0.0,0.0,0.0,0.0,0.0,0.0,0.0,0.0,0.0,0.0,0.0,0.0,0.0,0.0,0.0,0.0,0.0,0.0,0.0,0.0,0.0,0.0,0.0,0.0,0.0,0.0,0.6105,0.177,-0.082,-0.2382,0.0,0.0,-0.4135,-0.0828,-0.5331,0.0,0.0,0.0,0.0,0.0,0.0,0.0,0.0,0.0,0.0,0.0,0.0,0.0,0.0,0.0,0.0,0.0,0.0,0.0,0.0,0.0,0.0,0.0,0.0,0.0,0.0,0.0,0.0,0.0,0.0,0.0,0.0,0.0,0.0,0.0,0.0,0.0,0.0,0.0,0.0,0.0,0.0,0.0,0.0,0.0,0.0,0.0,0.0,0.0,0.0,0.0,0.0,0.0,0.0,0.0,1.3731,1.3411,1.1238,0.9358,0.7882,0.548,0.3077,0.074,-0.1262,-0.2858,0.0,0.0,0.0,0.0,0.0,0.0,0.0,0.0,0.0,0.0,0.0,0.0,0.0,0.0,0.0,0.0,0.0,0.0,0.0,0.0,0.0,0.0,0.0,0.0,0.0,0.0,0.0,0.0,0.0,0.0,0.0,0.0,0.0,0.0,0.0,0.0,0.0,0.0,0.0,0.0,0.0,0.0,0.402,0.0758,0.0,0.0,0.0,-0.2604,-0.3643,0.0,0.0,0.0,0.0,0.0,0.0,0.0,0.0,0.0,0.0,0.0,0.0,0.0,0.0,0.0,0.0,0.0,0.0,0.0,0.0,0.0,0.0,0.0,0.0,0.0,0.0,0.0,0.0,0.0,0.0,0.0,0.0,0.0,0.0,0.0,0.0,0.0,0.0,0.0,0.0,0.0,0.0,0.0,0.0,0.0,0.0,0.0,0.0,0.0,0.0,0.0,0.0,0.0,0.0,0.0,0.0,0.0,1.3305,1.1016,0.9195,0.7859,0.5368,0.2984,0.0825,-0.1601,0.0,0.0,0.0,0.0,0.0,0.0,0.0,0.0,0.0,0.0,0.0,0.0,0.0,0.0,0.0,0.0,0.0,0.0,0.0,0.0,0.0,0.0,0.0,0.0,0.0,0.0,0.0,0.3247,0.0,0.0,0.0,0.0,0.0,0.0,0.0,0.0,0.0,0.0,0.0,0.0,0.0,0.0,0.8789,0.5963,0.262,0.0367,0.0,0.0,-0.0905,-0.4316,-0.8923,-1.2519,0.0,0.0,0.0,0.0,0.0,0.0,0.0,0.0,0.0,0.0,0.0,0.0,0.0,0.0,0.0,0.0,0.0,0.0,0.0,0.0,0.0,0.0,0.0,0.0,0.0,0.0,0.0,0.0,0.0,0.0,0.0,0.0,0.0,0.0,0.0,0.0,0.0,0.0,0.0,0.0,0.0,0.0,0.0,0.0,0.0,0.0,0.0,0.0,0.0,0.0,0.0,0.0,0.0,0.0,0.0,1.2884,1.147,0.9583,0.7319,0.6083,0.3859,0.0526,-0.2106,-0.3473,0.0,0.0,0.0,0.0,0.0,0.0,0.0,0.0,0.0,0.0,0.0,0.0,0.0,0.0,0.0,0.0,0.0,0.0,0.0,0.0,0.0,0.0,0.0,0.0,0.0,0.0,0.0,0.0,0.0,0.0,0.0,0.0,0.0,0.0,0.0,0.0,0.0,0.0,0.0,0.0,0.0,1.1228,0.6928,0.4644,0.3474,0.0,0.0,0.0903,0.0284,-0.7008,-1.2931,-1.3999,0.0,0.0,0.0,0.0,0.0,0.0,0.0,0.0,0.0,0.0,0.0,0.0,0.0,0.0,0.0,0.0,0.0,0.0,0.0,0.0,0.0,0.0,0.0,0.0,0.0,0.0,0.0,0.0,0.0,0.0,0.0,0.0,0.0,0.0,0.0,0.0,0.0,0.0,0.0,0.0,0.0,0.0,0.0,0.0,0.0,0.0,0.0,0.0,0.0,0.0,0.0,0.0,0.0,1.2484,1.2565,1.1047,0.9194,0.7014,0.5562,0.3395,0.046,-0.1811,-0.315,0.0,0.0,0.0,0.0,0.0,0.0,0.0,0.0,0.0,0.0,0.0,0.0,0.0,0.0,0.0,0.0,0.0,0.0,0.0,0.0,0.0,0.0,0.0,0.0,0.0,0.0,0.0,0.0,0.3085,-0.0772,-0.6247,0.0,0.0,0.0,0.0,0.0,0.0,0.0,0.0,0.0,0.0,1.2245,0.9288,0.6607,0.0,0.0,0.1982,-0.0231,-0.0642,-0.5475,-1.0046,-1.245,-1.3186,0.0,0.0,0.0,0.0,0.0,0.0,0.0,0.0,0.0,0.0,0.0,0.0,0.0,0.0,0.0,0.0,0.0,0.0,0.0,0.0,0.0,0.0,0.0,0.0,0.0,0.0,0.0,0.0,0.0,0.0,0.0,0.0,0.0,0.0,0.0,0.0,0.0,0.0,0.0,0.0,0.0,0.0,0.0,0.0,0.0,0.0,0.0,0.0,0.0,0.0,0.0,0.0,1.2506,1.2316,1.0971,0.9165,0.6934,0.5099,0.3092,0.0875,-0.1291,-0.2773,0.0,0.0,0.0,0.0,0.0,0.0,0.0,0.0,0.0,0.0,0.0,0.0,0.0,0.0,0.0,0.0,0.0,0.0,0.0,0.0,0.0,0.0,0.0,0.0,0.0,0.0,0.0,0.0,0.3559,-0.0061,-0.4458,0.0,0.0,0.0,0.0,0.0,0.0,0.0,0.0,0.0,0.0,1.3095,1.0738,0.7846,0.5651,0.5012,0.1875,-0.0697,-0.1401,-0.472,-0.8119,-1.0686,0.0,0.0,0.0,0.0,0.0,0.0,0.0,0.0,0.0,0.0,0.0,0.0,0.0,0.0,0.0,0.0,0.0,0.0,0.0,0.0,0.0,0.0,0.0,0.0,0.0,0.0,0.0,0.0,0.0,0.0,1.3397,0.0,0.0,0.0,0.0,0.0,0.0,0.0,0.0,0.0,0.0,0.0,0.0,0.0,0.0,0.0,0.0,0.0,0.0,0.0,0.0,0.0,0.0,1.2745,1.2102,1.14,0.9791,0.7226,0.4988,0.3149,0.1732,-0.0562,-0.2353,-0.3494,0.0,0.0,0.0,0.0,0.0,0.0,0.0,0.0,0.0,0.0,0.0,0.0,0.0,0.0,0.0,0.0,0.0,0.0,0.0,0.0,0.0,0.0,0.0,0.0,0.0,0.0,0.7615,0.3602,-0.002,0.0,0.0,0.0,0.0,0.0,0.0,0.0,0.0,0.0,0.0,1.5658,1.3879,1.0915,0.8172,0.5946,0.4475,0.2183,0.0136,-0.1104,-0.4733,-0.784,0.0,0.0,0.0,0.0,0.0,0.0,0.0,0.0,0.0,0.0,0.0,0.0,0.0,0.0,0.0,0.0,0.0,0.0,0.0,0.0,0.0,0.0,0.0,0.0,0.0,0.0,0.0,1.5094,1.487,0.0,0.0,0.0,0.0,0.0,0.0,0.0,0.0,0.0,0.0,0.0,1.0907,0.8718,0.0,0.0,0.0,0.0,0.0,0.0,0.0,0.0,0.0,0.0,0.0,0.0,1.239,1.1773,1.0912,0.923,0.6673,0.4969,0.3249,0.1438,-0.0417,-0.2417,-0.448,0.0,0.0,0.0,0.0,0.0,0.0,0.0,0.0,0.0,0.0,0.0,0.0,0.0,0.0,0.0,0.0,0.0,0.0,0.0,0.0,0.0,0.0,0.0,0.0,0.0,0.7606,0.0,0.0,0.0,0.0,0.0,0.0,0.0,0.0,0.0,0.0,0.0,1.8314,1.7618,1.6409,1.4442,1.1259,0.9238,0.7212,0.0,0.0,0.0,0.0,0.0,0.0,0.0,0.0,0.0,0.0,0.0,0.0,0.0,0.0,-1.508,-1.2966,-1.1719,-1.0872,-1.0568,0.0,0.0,0.0,0.0,0.0,0.0,0.0,0.0,0.0,0.0,0.0,0.0,0.0,0.0,0.0,0.0,1.5265,0.0,0.0,0.0,0.0,0.0,0.0,0.0,0.0,1.3731,1.2835,1.1751,0.9617,0.7502,0.0,0.4238,0.4499,0.0,0.0,0.0,0.0,0.0,0.0,0.0,0.0,1.2823,1.2115,1.099,0.912,0.6539,0.515,0.359,0.1759,-0.0504,-0.2661,-0.463,-0.5011,-0.5649,0.0,0.0,0.0,0.0,0.0,0.0,0.0,0.0,0.0,0.0,0.0,0.0,0.0,0.0,0.0,0.0,0.0,0.0,0.0,0.0,0.0,0.0,0.0,0.629,0.0,0.0,0.0,0.0,0.0,0.0,0.0,0.0,0.0,1.794,1.8661,1.8882,1.8125,1.6631,1.453,1.1602,0.0,0.0,0.0,0.0,0.0,0.0,0.0,-0.4787,-0.6684,-0.9069,-1.164,-1.4492,-1.7257,-1.9278,-1.9762,0.0,0.0,-1.6171,-1.4373,-1.2921,-1.2063,-1.0747,-0.81,-0.2743,0.1876,0.6368,0.0,0.0,0.0,0.0,0.0,0.0,0.0,0.0,1.3635,1.3702,0.0,1.4666,0.0,0.0,0.0,0.0,0.0,0.0,0.0,0.0,1.4991,1.3467,1.1282,0.9624,0.7066,0.3752,0.2932,0.2905,0.3705,0.7401,0.0,0.0,0.0,0.0,0.0,0.0,1.3973,1.3073,1.1488,0.9423,0.6761,0.5431,0.4079,0.258,-0.0798,-0.3012,-0.3866,-0.4904,-0.5569,-0.5814,-0.557,0.0,0.0,0.0,0.0,0.0,0.0,0.0,0.0,0.0,0.0,0.0,0.0,0.0,0.0,0.0,0.0,0.0,0.0,0.0,0.0,0.6252,0.0,0.0,0.0,0.0,0.0,0.0,0.0,0.0,0.0,0.0,1.9104,1.9493,1.9357,1.8226,0.0,0.0,0.0,0.0,0.708,0.5669,0.3571,0.1632,0.0263,-0.2025,-0.4184,-0.5738,0.0,0.0,-1.4171,-1.6693,-1.8211,-1.8306,-1.8239,-1.8301,-1.8162,-1.6976,-1.575,-1.4386,-1.2339,-0.9974,-0.699,-0.1859,0.3374,0.4334,0.0,0.0,0.0,0.0,1.3448,1.4499,1.5541,1.5736,1.5414,1.4816,1.5737,0.0,0.0,0.0,0.0,0.0,0.0,1.6999,1.5837,1.4954,1.3376,1.1139,0.8421,0.6357,0.4928,0.3592,0.3941,0.594,0.8935,1.0978,1.2055,0.0,0.0,0.0,0.0,1.4216,1.3031,1.0791,0.8646,0.673,0.5148,0.3313,0.1245,-0.0872,-0.2365,-0.3173,-0.4445,-0.5431,-0.6053,-0.5846,0.0,0.0,0.0,0.0,0.0,0.0,0.0,0.0,0.0,0.0,0.0,0.0,0.0,0.0,0.0,0.0,0.0,0.0,0.0,0.5911,0.2104,0.0872,0.0,0.0,0.0,0.0,0.0,0.0,0.0,0.0,0.0,1.9918,1.9724,1.9064,0.0,0.0,1.3815,1.1365,0.9469,0.757,0.5616,0.0,0.0,0.0,-0.1638,-0.3771,-0.4262,-0.6922,-0.9923,-1.2724,-1.4299,-1.5366,-1.5928,-1.6163,-1.6116,-1.568,-1.5251,-1.481,-1.4392,-1.2562,-1.0525,-0.8793,-0.5294,-0.0843,0.5789,0.6498,0.8861,1.1205,1.3418,1.4354,1.5338,1.6298,1.6308,1.5958,1.5488,1.6387,1.6399,1.5832,1.6992,0.0,0.0,0.0,1.7394,1.6068,1.521,1.3813,1.1887,0.9706,0.8,0.6782,0.5651,0.581,0.7227,0.9555,1.1313,1.2502,0.0,0.0,1.7054,1.5575,1.4373,1.3468,1.0599,0.8393,0.6927,0.4616,0.2521,0.0647,-0.0681,-0.174,-0.2452,-0.3709,-0.4801,-0.5675,-0.5774,-0.5733,0.0,0.0,0.0,0.0,0.0,0.0,0.0,0.0,0.0,0.0,0.0,0.3347,0.4232,0.0,0.0,0.0,0.9027,0.7608,0.4863,0.0894,0.0,0.0,0.0,0.0,0.0,0.0,0.0,1.9561,1.9435,1.9259,1.9607,1.9006,1.8287,1.7538,1.5637,1.347,1.1107,0.0,0.7811,0.5575,0.5075,0.4041,0.1472,-0.0823,-0.2588,-0.3493,-0.608,-0.8598,-1.0262,-1.169,-1.2609,-1.2729,-1.3084,-1.334,-1.2881,-1.2473,-1.2511,-1.3233,-1.2107,-1.0409,-0.8661,-0.5136,-0.1176,0.8223,0.9809,1.1738,1.3496,1.5011,1.5786,1.6264,1.6432,1.587,1.5687,1.5871,1.6543,1.7153,1.7731,1.9055,0.0,0.0,1.9047,1.7875,1.6269,1.5568,1.4453,1.3,1.2252,1.089,0.891,0.853,0.8274,0.8285,0.9932,1.1853,1.3992,1.6063,1.7743,1.8827,1.609,1.4452,1.4054,1.0767,0.8406,0.7028,0.4062,0.1906,0.0752,-0.0225,-0.1033,-0.167,-0.2767,-0.3846,-0.4876,-0.5491,-0.5718,-0.5563,0.0,0.0,0.0,0.0,0.0,0.0,0.0,0.0,0.0,0.0,0.0,0.0,0.0,0.0,0.0,1.0266,0.0,0.5009,0.185,0.0,0.0,0.0,0.6571,1.3671,1.709,1.9175,1.9893,0.0,0.0,0.0,0.0,1.7003,1.677,1.501,1.3019,1.0912,0.9378,0.7727,0.544,0.4687,0.3591,0.1616,0.0235,-0.1183,-0.3066,-0.5312,-0.6852,-0.76,-0.8902,-0.9703,-0.9168,-0.9608,-1.0123,-0.9925,-0.9372,-0.9298,-1.0765,-1.0934,-1.0011,-0.7638,-0.3584,0.002,1.193,1.3535,1.5068,1.5261,1.4601,1.5298,1.5934,1.6486,1.6484,1.5994,1.52,1.6013,1.6735,1.7431,1.8061,1.8513,1.8764,1.827,1.7011,1.5226,1.49,1.3528,1.1317,1.0843,1.0413,0.9976,1.0292,1.1259,1.2768,1.3415,1.4989,1.7277,1.7053,1.6905,1.6886,1.558,1.4318,1.3142,1.0271,0.7713,0.5574,0.3919,0.2645,0.1761,0.0921,0.0105,-0.0705,-0.1681,-0.2843,-0.4245,-0.5345,-0.6181,-0.6662,-0.6265,0.0,0.0,0.0,0.0,0.0,0.0,0.0,0.0,0.0,0.7375,1.2571,0.0,1.0065,0.0,1.0859,0.8748,0.5876,0.32,0.0,0.0,0.7078,0.9676,1.6649,1.8756,1.9668,1.974,1.9286,1.8564,1.7568,1.6153,1.4633,1.3039,1.2751,1.1842,0.9639,0.8163,0.6822,0.5375,0.4548,0.3796,0.2642,0.1054,-0.0584,-0.2027,-0.3452,-0.4842,-0.6125,-0.6034,-0.6197,-0.7114,-0.7499,-0.7477,-0.7164,-0.7232,-0.7043,-0.6753,-0.8377,-1.0303,-1.0147,-0.6593,-0.2784,1.2952,1.4148,1.5593,1.5785,1.514,1.5979,1.6617,1.7066,1.6877,1.635,1.5636,1.6216,1.6904,1.761,1.7778,1.7807,1.7719,1.7211,1.5945,1.4106,1.3706,1.237,1.0315,0.9982,0.9869,0.9919,1.0367,1.1546,1.3392,1.4178,1.5551,1.7437,1.7135,1.6641,1.5987,1.5341,1.4297,1.2804,0.9602,0.6986,0.5068,0.4029,0.3129,0.2266,0.1803,0.1055,-0.0,-0.0768,-0.1851,-0.3277,-0.4671,-0.557,-0.5911,-0.5716,-0.531,0.0,0.0,0.0,0.0,0.0,0.0,0.0,0.0,0.0,0.0,0.0,1.1176,0.0,1.109,0.9453,0.7685,0.4662,0.443,0.8488,0.7995,0.989,1.6196,1.7932,1.8711,1.8828,1.8264,1.7652,1.7067,1.5194,1.3066,1.0905,1.0611,1.0112,0.8786,0.7456,0.6185,0.5001,0.4333,0.3543,0.25,0.1025,-0.0221,-0.0895,-0.1573,-0.2465,-0.384,-0.4533,-0.4946,-0.5188,-0.5693,-0.5832,-0.5162,-0.5191,-0.5105,-0.4776,-0.5747,-0.7211,-0.7799,-0.5168,-0.1914,1.2499,1.3171,1.4712,1.5482,1.5692,1.6697,1.7247,1.7453,1.6775,1.6418,1.6233,1.647,1.6982,1.7653,1.7524,1.711,1.6556,1.604,1.4842,1.3168,1.2578,1.1443,0.9886,0.9656,0.9544,0.9517,0.9833,1.0819,1.2402,1.3524,1.4766,1.6082,1.658,1.6419,1.571,1.5134,1.4042,1.2388,0.8872,0.647,0.52,0.4308,0.3448,0.2645,0.2491,0.1895,0.0745,0.0028,-0.0874,-0.2075,-0.3596,-0.4444,-0.4446,-0.4787,-0.4858,0.0,-0.2857,0.0,0.0,0.0,0.0,0.0,0.0,0.0,0.0,1.1857,1.2265,1.2043,1.1026,1.0145,0.9583,0.6269,0.5483,0.8742,0.8051,0.9233,1.4053,1.5962,1.6987,1.7433,1.6915,1.66,1.6558,1.4309,1.1765,0.9873,0.8793,0.8232,0.7977,0.6865,0.5602,0.4538,0.3972,0.3124,0.1911,0.0842,0.0137,0.0,0.0,0.0,-0.1469,-0.319,-0.4203,-0.3341,-0.3928,-0.4358,-0.352,-0.3404,-0.3448,-0.364,-0.3846,-0.3805,-0.3312,-0.1638,0.0931,1.1923,1.2307,1.3964,1.4475,1.417,1.4809,1.5366,1.5806,1.5151,1.4845,1.4813,1.5168,1.5579,1.5941,1.5676,1.5437,1.5315,1.4945,1.4167,1.3044,1.2907,1.1918,1.0263,1.0436,1.0405,1.019,1.0732,1.1848,1.3389,1.3378,1.4356,1.6197,1.52,1.4994,1.5536,0.0,0.0,0.0,0.847,0.7138,0.6209,0.4729,0.3876,0.3673,0.3019,0.0,0.2249,0.0744,-0.0193,-0.0477,-0.2125,0.0,0.0,0.0,0.0,0.0,0.0,0.0,0.0,0.0,0.0,0.0,0.9009,1.0641,1.0585,1.1932,1.2305,1.1168,1.0555,1.0108,0.9786,0.8344,0.8041,0.9605,1.0285,1.1448,1.3352,1.4643,1.551,1.573,1.5376,1.514,1.5032,1.2418,1.0057,0.8912,0.7633,0.6751,0.6706,0.5745,0.4834,0.4405,0.3565,0.2831,0.2493,0.1644,0.084,0.0,0.0,0.0,0.0,0.0,0.0,-0.1814,-0.206,-0.2169,-0.2127,-0.2148,-0.2422,-0.3382,-0.3533,-0.2982,-0.1072,0.0445,0.2138,1.175,0.0,1.3261,1.3525,0.0,1.3617,1.4017,1.4304,1.3931,1.3782,1.3815,1.4242,1.4668,1.5005,1.4836,1.4634,1.4446,1.431,1.3667,1.2729,1.2716,1.1958,1.0645,1.102,1.1001,1.0677,1.1192,1.2105,1.3296,1.3185,1.3898,1.5389,1.4656,1.4552,1.5003,1.3808,1.2228,1.0359,0.8622,0.7434,0.6775,0.5349,0.4403,0.3993,0.0,0.0,0.0,0.0,0.0,0.0,0.0,0.0,0.0,0.0,0.0,-0.3409,-0.2117,-0.1133,-0.0512,0.5059,0.9076,1.0414,1.0978,1.1188,1.1059,1.1835,1.1876,1.0835,1.0317,0.9984,0.9831,0.8816,0.8404,0.9041,0.9695,1.0545,1.1597,1.2664,1.3472,1.3795,1.3682,1.3651,1.3861,1.1345,0.8849,0.7323,0.6659,0.6248,0.599,0.5343,0.4666,0.3981,0.3243,0.2693,0.2663,0.2353,0.2008,0.1709,0.0787,0.0,0.0,0.0,-0.0241,-0.081,-0.0766,-0.0724,-0.0842,-0.0896,-0.1121,-0.1527,-0.0852,-0.0045,0.0892,0.1832,0.2962,1.178,1.1688,1.2735,1.2885,1.2454,1.2973,1.3163,1.3082,0.0,0.0,0.0,1.3589,1.3954,1.4246,1.4278,1.4084,1.3782,1.3769,1.3336,1.2567,1.2554,1.2033,1.1192,1.1478,1.1478,1.1168,1.1478,1.2171,1.3134,1.3147,1.3619,1.4428,1.4438,1.4342,1.4214,1.2948,1.1955,1.1181,0.909,0.7705,0.7073,0.5948,0.4947,0.4118,0.3658,0.3204,0.2719,0.269,0.235,0.1573,0.0864,0.0354,0.003,-0.0632,-0.0845,-0.046,0.0405,0.1478,0.2752,0.6218,0.9899,1.3632,1.2159,1.1204,1.159,1.1512,1.1238,1.0688,1.0079,0.9724,0.9903,0.8676,0.7944,0.8084,0.8237,0.8733,0.9685,1.064,1.1454,1.1877,1.2113,1.2319,1.2646,1.066,0.8187,0.6195,0.6179,0.6304,0.5861,0.5393,0.4666,0.3577,0.3109,0.2856,0.2764,0.274,0.2975,0.3162,0.1788,0.0606,0.0391,0.0319,0.0326,0.034,0.034,0.0346,0.0312,0.0314,0.0314,0.0314,0.1841,0.306,0.2462,0.2918,0.3468,1.2027,1.1676,1.2747,1.2872,1.2454,1.2973,1.2978,1.265,1.3,1.3185,1.3173,1.3267,1.3335,1.3391,1.3391,1.3357,1.3288,1.3288,1.3216,0.0,1.3085,1.261,1.1716,1.1752,1.1741,1.1705,1.1752,1.2468,1.3625,1.3769,1.4049,1.4392,1.4149,1.3769,1.331,1.2378,1.1813,1.1662,0.9824,0.8264,0.7098,0.626,0.5399,0.4549,0.4118,0.3519,0.2718,0.2695,0.2643,0.2523,0.2387,0.1925,0.1074,0.0885,0.0859,0.0944,0.1699,0.3245,0.5641,0.7132,0.8921,1.1211,1.1577,1.1556,1.1296,1.08,1.0491,1.046,0.9487,0.9171,0.9869,0.8416,0.7529,0.7941,0.7565,0.7488,0.816,0.9154,0.9952,1.0435,1.0912,1.1426,1.1686,1.0203,0.8304,0.6723,0.6642,0.6936,0.6222,0.5548,0.4643,0.3643,0.3364,0.3239,0.3021,0.2951,0.302,0.3124,0.2967,0.233,0.1651,0.1531,0.1523,0.1544,0.1542,0.155,0.1563,0.1518,0.1563,0.1564,0.2101,0.2415,0.3001,0.3462,0.3411,1.2542,1.2153,1.2872,1.2885,1.2454,1.296,1.3082,1.2896,1.3082,1.3047,1.2873,1.3094,1.321,1.321,1.321,1.321,1.321,1.321,1.321,1.321,1.321,1.2978,1.2579,1.2532,1.2567,1.2567,1.2544,1.2883,1.348,1.3514,1.3628,1.3769,1.3615,1.3276,1.2791,1.215,1.1664,1.1345,1.0009,0.8957,0.8158,0.7113,0.6179,0.5353,0.4666,0.4048,0.3412,0.2943,0.2685,0.2702,0.3625,0.3584,0.2437,0.2405,0.2537,0.2709,0.3065,0.4099,0.5986,0.7125,0.8492,1.0264,1.0622,1.0829,1.0885,1.0663,1.0259,0.9706,0.9005,0.8622,0.8682,0.7763,0.7292,0.7467,0.7196,0.7141,0.7523,0.8388,0.9124,0.9412,1.0131,1.0712,1.0957,0.9582,0.8276,0.7233,0.7114,0.6779,0.6476,0.6122,0.5389,0.4108,0.3804,0.3513,0.312,0.3025,0.3128,0.3356,0.3355,0.3182,0.2802,0.2791,0.2768,0.2773,0.2773,0.2773,0.2773,0.2773,0.2773,0.2773,0.2771,0.3087,0.3496,0.3588,0.3448,1.2947,1.2609,1.3023,1.2947,1.2622,1.301,1.321,1.321,1.321,1.2978,1.272,1.3047,1.321,1.321,1.321,1.321,1.321,1.321,1.321,1.321,1.321,1.3116,1.3047,1.2943,1.2931,1.3012,1.2943,1.2978,1.3163,1.321,1.321,1.321,1.321,1.3012,1.2662,1.2102,1.159,1.1137,1.024,0.9496,0.8976,0.8009,0.7047,0.607,0.5405,0.4822,0.4296,0.3635,0.3237,0.3151,0.4389,0.4595,0.3551,0.3569,0.3742,0.3961,0.4091,0.4634,0.5787,0.7011,0.8299,0.9672,0.9923,1.0105,1.0341,1.0532,1.0247,0.933,0.8815,0.8271,0.7771,0.7327,0.7131,0.6987,0.6972,0.7058,0.7215,0.8054,0.8665,0.8725,0.9492,1.0147,1.0066,0.9234,0.8447,0.8015,0.7209,0.6653,0.6607,0.6633,0.6058,0.499,0.4267,0.3876,0.3335,0.3243,0.3359,0.359,0.3458,0.3427,0.346,0.3541,0.3592,0.3499,0.3544,0.3499,0.3547,0.3547,0.3544,0.3455,0.3448,0.3534,0.3581,0.3581,0.3578,1.3173,1.3135,1.3173,1.3185,1.311,1.3185,1.321,1.321,1.321,1.3198,1.3129,1.3198,1.321,1.321,1.321,1.321,1.321,1.321,1.321,1.321,1.321,1.2978,1.2627,1.2174,1.2138,1.2508,1.221,1.2473,1.3129,1.3163,1.321,1.321,1.321,1.3198,1.3047,1.2246,1.1774,1.17,1.0723,0.9839,0.905,0.8885,0.806,0.6476,0.6364,0.5967,0.5184,0.51,0.481,0.4329,0.4438,0.4334,0.399,0.3946,0.3993,0.4026,0.4344,0.501,0.6007,0.7098,0.8242,0.9336,0.995,1.0113,0.9807,1.0114,1.0281,0.9874,0.8848,0.812,0.8006,0.743,0.7051,0.7001,0.6972,0.7001,0.7141,0.8031,0.8496,0.8039,0.9004,0.9744,1.0068,0.9649,0.9112,0.8406,0.7529,0.6839,0.6747,0.6814,0.6709,0.567,0.4816,0.4211,0.4029,0.3748,0.3636,0.3604,0.3598,0.3561,0.3578,0.3581,0.3581,0.3585,0.3581,0.3581,0.3581,0.3581,0.3581,0.3585,0.3581,0.3578,0.3578,0.3578,0.3578,1.321,1.321,1.321,1.321,1.321,1.321,1.321,1.321,1.321,1.321,1.321,1.321,1.321,1.321,1.321,1.321,1.321,1.321,1.321,1.321,1.321,1.3094,1.2908,1.272,1.2733,1.2873,1.272,1.2685,1.2768,1.2803,1.2908,1.3163,1.321,1.321,1.3151,1.2544,1.2066,1.1774,1.1057,1.0406,0.9772,0.9273,0.8501,0.7585,0.7048,0.6433,0.5749,0.5666,0.5491,0.5186,0.5439,0.5346,0.4683,0.4649,0.4693,0.4792,0.5294,0.5776,0.6186,0.774,0.8786,0.9043,0.9806,1.0195,1.0049,1.0183,1.0273,1.0123,0.9149,0.8342,0.8084,0.7453,0.6972,0.6972,0.6972,0.6972,0.7014,0.7731,0.8242,0.8357,0.9039,0.9576,0.975,0.9524,0.8889,0.7961,0.7224,0.7001,0.7074,0.7068,0.6956,0.6715,0.5967,0.5101,0.4521,0.4176,0.394,0.373,0.3578,0.3578,0.3622,0.3622,0.3578,0.3622,0.3578,0.3578,0.3578,0.3578,0.3578,0.3581,0.3578,0.3578,0.3578,0.3578,0.3578,1.321,1.321,1.321,1.3286,1.3446,1.3261,1.321,1.321,1.321,1.321,1.321,1.321,1.321,1.321,1.321,1.321,1.321,1.321,1.321,1.321,1.321,1.321,1.3198,1.3047,1.3094,1.3163,1.3047,1.2908,1.2685,1.2685,1.2873,1.3163,1.321,1.321,1.3129,1.2615,1.215,1.1774,1.1169,1.0659,1.0234,0.9706,0.9067,0.8416,0.7727,0.6988,0.6236,0.6059,0.5906,0.577,0.6199,0.6099,0.5461,0.54,0.549,0.5783,0.6342,0.6579,0.6311,0.7662,0.8734,0.9197,0.9925,1.0322,1.0322,1.0322,1.0322,1.0225,0.9439,0.8763,0.8261,0.7495,0.7014,0.6972,0.6972,0.7063,0.7273,0.7739,0.8324,0.8683,0.9007,0.9288,0.9257,0.9035,0.8511,0.778,0.7273,0.7128,0.7368,0.7281,0.7221,0.7422,0.6918,0.6157,0.513,0.4712,0.4478,0.4268,0.414,0.4096,0.388,0.3836,0.3667,0.3711,0.3667,0.3605,0.3646,0.3639,0.3681,0.3636,0.365,0.3722,0.3656,0.3666,0.3704,1.321,1.321,1.321,1.3531,1.402,1.3471,1.3223,1.3295,1.3261,1.3235,1.3286,1.3235,1.3223,1.3235,1.3223,1.321,1.321,1.321,1.321,1.321,1.321,1.321,1.3163,1.2756,1.2815,1.3301,1.2984,1.2948,1.3204,1.3129,1.3163,1.3235,1.3261,1.3235,1.3132,1.2448,1.1859,1.1737,1.0954,1.0361,1.0322,1.0254,0.9801,0.9021,0.8416,0.7808,0.7053,0.649,0.6202,0.6175,0.6279,0.6246,0.6149,0.6175,0.6383,0.6866,0.7395,0.7257,0.641,0.6575,0.7591,0.9686,1.0205,1.0322,1.0322,1.0322,1.0322,1.0322,0.9765,0.9191,0.8707,0.7716,0.7105,0.7063,0.7021,0.7238,0.7746,0.8111,0.8594,0.8716,0.8797,0.8878,0.8797,0.8383,0.8325,0.8136,0.7607,0.7161,0.7428,0.7506,0.7482,0.7553,0.7424,0.7114,0.627,0.5578,0.526,0.5053,0.4884,0.4971,0.4652,0.4303,0.4104,0.3888,0.3884,0.3883,0.3799,0.3799,0.3868,0.3909,0.4028,0.4061,0.4101,0.4004,0.4077,1.3635,1.3615,1.3335,1.3642,1.4286,1.3941,1.3925,1.4149,1.427,1.4287,1.4212,1.3946,1.3795,1.377,1.3348,1.321,1.321,1.321,1.321,1.321,1.321,1.3421,1.3735,1.3604,1.3802,1.42,1.4125,1.4125,1.41,1.3299,1.3299,1.4087,1.3959,1.3795,1.3711,1.3447,1.2841,1.187,1.1404,1.0954,1.0361,1.0322,1.0128,0.982,0.9301,0.8725,0.8093,0.789,0.7661,0.7294,0.727,0.7208,0.7011,0.7129,0.7309,0.7495,0.7577,0.7451,0.7191,0.774,0.8462,0.9428,1.0069,1.0322,1.0322,1.0322,1.0322,1.0196,0.9795,0.9399,0.9079,0.8218,0.7579,0.753,0.7231,0.7105,0.728,0.7523,0.7889,0.8545,0.8861,0.8933,0.8732,0.8349,0.7979,0.7663,0.7439,0.7517,0.7675,0.7762,0.7863,0.7997,0.7876,0.7623,0.7237,0.6359,0.5836,0.5631,0.5468,0.5379,0.5125,0.5187,0.5001,0.4803,0.4639,0.4651,0.478,0.4841,0.48,0.4972,0.5047,0.4737,0.4678,0.4865,0.4931,1.4715,1.4587,1.4156,1.4179,1.4506,1.4185,1.423,1.4518,1.4587,1.4739,1.4802,1.4513,1.4261,1.4047,1.3659,1.337,1.3223,1.321,1.321,1.3223,1.3408,1.3732,1.406,1.4274,1.4551,1.4853,1.4903,1.4903,1.4802,1.3816,1.3902,1.4789,1.4362,1.4186,1.4262,1.384,1.3004,1.2129,1.1697,1.1082,1.039,1.0322,1.0322,1.0244,0.9961,0.9518,0.8999,0.8797,0.8561,0.8201,0.8054,0.7987,0.8008,0.8232,0.8356,0.8336,0.8416,0.8405,0.8468,0.9106,0.9552,0.9552,0.9981,1.0322,1.0322,1.0322,1.0322,1.0205,1.0,0.9765,0.9597,0.8958,0.8275,0.7995,0.7697,0.7523,0.7558,0.7724,0.8211,0.8886,0.9524,0.9609,0.9237,0.9115,0.8834,0.8291,0.8283,0.8398,0.8634,0.8496,0.8456,0.8651,0.833,0.8064,0.7775,0.7224,0.6784,0.6556,0.6334,0.608,0.589,0.597,0.589,0.5715,0.5636,0.5697,0.5779,0.5877,0.6065,0.6251,0.5995,0.5618,0.5729,0.5901,0.5899,1.6347,1.6111,1.5716,1.5128,1.4753,1.4279,1.4059,1.4292,1.4357,1.4739,1.5056,1.4954,1.4702,1.4235,1.4047,1.377,1.3273,1.321,1.321,1.3235,1.3795,1.406,1.4173,1.4689,1.4927,1.5067,1.4966,1.4966,1.5041,1.4776,1.4814,1.4814,1.4525,1.4513,1.4877,1.3611,1.2726,1.2463,1.1752,1.0915,1.0391,1.041,1.043,1.0342,1.0322,1.0096,0.9554,0.9047,0.8797,0.8675,0.8383,0.8472,0.9007,0.9306,0.9473,0.9497,0.9923,1.0176,1.0167,1.0176,1.0196,1.0196,1.0293,1.0322,1.0322,1.0322,1.0322,1.0322,1.0283,1.0244,1.0166,0.9765,0.903,0.816,0.8267,0.839,0.8635,0.9128,0.9448,0.956,1.024,1.0711,1.0409,1.0317,1.0348,1.0144,0.9917,0.9655,0.9811,0.9527,0.9434,0.9217,0.8877,0.8565,0.8344,0.8145,0.7853,0.7614,0.7365,0.7141,0.6808,0.6782,0.6626,0.643,0.6554,0.6628,0.671,0.6764,0.6739,0.6823,0.6606,0.6542,0.6616,0.6691,0.6744,1.6388,1.6127,1.5683,1.5533,1.5519,1.5059,1.5092,1.5528,1.5938,1.6057,1.5893,1.5958,1.5505,1.4714,1.4274,1.3795,1.3223,1.321,1.321,1.3345,1.3833,1.4299,1.4689,1.5205,1.5655,1.5881,1.5605,1.5643,1.5793,1.5241,1.5203,1.5756,1.5429,1.5279,1.5404,1.4909,1.4397,1.3619,1.2862,1.2157,1.1477,1.1254,1.1057,1.0781,1.0996,1.0952,1.0469,1.0033,0.9616,0.9266,0.9142,0.9191,0.9417,0.9813,1.004,1.0088,1.0196,1.0322,1.0322,1.0322,1.0322,1.0322,1.0322,1.0322,1.0322,1.0332,1.0342,1.0342,1.0322,1.0322,1.0283,1.0166,0.9744,0.9079,0.8513,0.8455,0.8855,0.9477,0.9638,0.9523,1.0358,1.1061,1.1257,1.1296,1.0822,1.0479,1.0343,1.0281,0.9906,1.0253,0.9852,0.9219,0.9109,0.9118,0.8802,0.8639,0.8444,0.8187,0.8036,0.7829,0.7607,0.744,0.7267,0.7294,0.7431,0.7536,0.7579,0.7628,0.7595,0.7745,0.7776,0.7638,0.7471,0.7435,0.7486,1.7456,1.7023,1.6517,1.6317,1.6354,1.5844,1.5951,1.6542,1.6991,1.709,1.6995,1.7035,1.6636,1.585,1.5419,1.4709,1.3912,1.3992,1.3922,1.3682,1.4148,1.4601,1.5004,1.5668,1.6145,1.6396,1.617,1.6183,1.6416,1.5881,1.5844,1.6333,1.5969,1.5806,1.5903,1.5575,1.4979,1.4392,1.3834,1.3192,1.2585,1.2341,1.2015,1.1642,1.1792,1.1664,1.1185,1.0777,1.0335,0.9888,0.9813,0.9804,0.9843,1.0118,1.0322,1.0322,1.0322,1.0322,1.0322,1.0322,1.0322,1.0322,1.0322,1.041,1.0498,1.0567,1.0646,1.0763,1.0822,1.0684,1.0576,1.0693,1.0553,1.0077,0.95,0.9204,0.9585,1.0173,1.0391,1.0306,1.0863,1.156,1.1804,1.1943,1.1472,1.1147,1.1167,1.123,1.0885,1.0971,1.0468,0.9961,0.9776,0.9607,0.9235,0.9079,0.8935,0.8745,0.855,0.8342,0.8111,0.7996,0.7902,0.8009,0.8184,0.8184,0.8281,0.8332,0.8326,0.8631,0.8644,0.8423,0.8153,0.8277,0.8374,1.9286,1.8657,1.8011,1.7464,1.7093,1.6463,1.665,1.7241,1.7418,1.7622,1.7924,1.8021,1.7744,1.7338,1.6978,1.6168,1.5216,1.5345,1.5151,1.4681,1.489,1.5223,1.5306,1.6032,1.6434,1.6497,1.6484,1.6497,1.6522,1.6409,1.6522,1.6459,1.6082,1.5994,1.6198,1.5423,1.5103,1.5055,1.4534,1.3982,1.3497,1.3448,1.3176,1.2627,1.2658,1.2454,1.1964,1.1578,1.1045,1.0439,1.0341,1.0341,1.0371,1.0322,1.0322,1.0381,1.0351,1.0322,1.0322,1.0322,1.0361,1.042,1.0381,1.0488,1.0859,1.094,1.1099,1.139,1.1469,1.1371,1.1094,1.1221,1.1279,1.1064,1.0736,1.074,1.0862,1.1242,1.1286,1.1161,1.1684,1.2275,1.2305,1.2531,1.2676,1.2677,1.2628,1.2483,1.2288,1.1895,1.1805,1.1266,1.0466,1.0269,0.9969,0.9762,0.9614,0.9592,0.9336,0.9077,0.8662,0.8486,0.8577,0.8704,0.8723,0.8803,0.8823,0.8829,0.8776,0.8738,0.8764,0.8798,0.8804,0.8804,0.8752,1.9301,1.8702,1.8523,1.8145,1.7696,1.7386,1.7461,1.7791,1.8185,1.8209,1.8155,1.8503,1.821,1.7348,1.7358,1.6803,1.6269,1.6255,1.622,1.6009,1.6427,1.6389,1.6144,1.6346,1.6522,1.6522,1.6534,1.6534,1.6534,1.6534,1.6534,1.6522,1.6371,1.6333,1.6373,1.6175,1.6083,1.6028,1.5516,1.4995,1.4641,1.4433,1.4138,1.376,1.3928,1.3828,1.3445,1.302,1.2141,1.0993,1.0791,1.0913,1.1074,1.0675,1.043,1.0635,1.0459,1.0342,1.0342,1.0322,1.0439,1.0674,1.0468,1.0605,1.1351,1.1136,1.1214,1.1489,1.1596,1.1587,1.1479,1.1547,1.1621,1.1826,1.1621,1.1339,1.1107,1.1525,1.1937,1.1808,1.2307,1.2607,1.2705,1.2773,1.2891,1.2891,1.2881,1.2774,1.251,1.251,1.2344,1.1575,1.0965,1.0872,1.072,1.0466,1.0364,1.0458,1.0288,0.9992,0.9385,0.8827,0.9062,0.9299,0.903,0.8995,0.9099,0.9176,0.9054,0.8804,0.8804,0.8804,0.8804,0.8804,0.8804,1.9465,1.9091,1.8807,1.8678,1.8599,1.8268,1.8322,1.8685,1.8966,1.8951,1.8789,1.9016,1.8877,1.8323,1.8294,1.7877,1.727,1.7434,1.7247,1.6926,1.7342,1.7289,1.697,1.6837,1.671,1.6522,1.6522,1.6534,1.6534,1.6534,1.6534,1.6522,1.6534,1.6534,1.6522,1.6534,1.6534,1.6423,1.6139,1.5837,1.566,1.5533,1.5224,1.4894,1.4969,1.4913,1.4595,1.4168,1.3314,1.2223,1.1767,1.1492,1.1283,1.0859,1.0654,1.0889,1.0664,1.0615,1.0781,1.0709,1.0816,1.0981,1.0695,1.0903,1.1587,1.1762,1.1895,1.2116,1.2145,1.2067,1.1875,1.1846,1.2051,1.2353,1.2266,1.195,1.1405,1.2088,1.2317,1.2346,1.2531,1.2891,1.2891,1.2891,1.2891,1.2891,1.2891,1.2725,1.251,1.2676,1.2725,1.2049,1.1525,1.1425,1.1266,1.1015,1.1074,1.1166,1.1149,1.0847,1.0316,0.9585,0.9612,0.9761,0.9444,0.9263,0.9413,0.9354,0.8956,0.8804,0.8804,0.8804,0.8804,0.8804,0.8804,1.9705,1.9645,1.9046,1.9151,1.9525,1.9076,1.9071,1.9585,1.963,1.963,1.9609,1.9675,1.9573,1.9705,1.9396,1.9117,1.8316,1.8651,1.8344,1.8007,1.8068,1.8078,1.7599,1.7435,1.7188,1.6879,1.668,1.6637,1.668,1.665,1.6565,1.6552,1.6565,1.6565,1.6522,1.6534,1.6534,1.6534,1.6479,1.6367,1.6336,1.6269,1.6015,1.5728,1.5628,1.5591,1.5379,1.5073,1.444,1.3484,1.2936,1.2341,1.1518,1.1364,1.1294,1.1356,1.1366,1.1333,1.1641,1.1496,1.1508,1.1794,1.1248,1.1132,1.2343,1.2822,1.2925,1.2952,1.3007,1.275,1.2383,1.2248,1.2441,1.2725,1.2822,1.2666,1.248,1.2646,1.2725,1.2383,1.2676,1.2842,1.2891,1.2891,1.2891,1.2891,1.2891,1.2832,1.2676,1.2783,1.2881,1.2725,1.2304,1.1972,1.1724,1.1516,1.1674,1.1774,1.1882,1.1738,1.1332,1.0756,1.0452,1.0261,1.0115,0.9917,0.9814,0.9562,0.9211,0.9008,0.9159,0.9008,0.8857,0.8804,0.8804,1.9705,1.9675,1.9525,1.9555,1.9681,1.9525,1.954,1.969,1.9705,1.9705,1.9705,1.9705,1.9705,1.9705,1.969,1.9549,1.9277,1.9419,1.9375,1.9273,1.9266,1.9043,1.8535,1.8171,1.7867,1.7626,1.7312,1.7146,1.7118,1.7118,1.6909,1.6637,1.6909,1.6909,1.6595,1.6607,1.6534,1.6534,1.6522,1.6522,1.6534,1.6534,1.6436,1.625,1.625,1.6262,1.6231,1.6163,1.576,1.5063,1.4279,1.3739,1.3521,1.3084,1.292,1.2935,1.2531,1.2394,1.2773,1.2616,1.2594,1.3249,1.3076,1.3108,1.3989,1.3871,1.3766,1.3674,1.36,1.3263,1.2811,1.2725,1.2764,1.2852,1.2881,1.2842,1.2773,1.2822,1.2803,1.2773,1.2793,1.2891,1.2891,1.2891,1.2891,1.2891,1.2891,1.2891,1.2891,1.2891,1.2891,1.2891,1.2774,1.2403,1.2295,1.2098,1.2197,1.2295,1.2353,1.2403,1.2049,1.1633,1.1225,1.1023,1.0922,1.0669,1.0364,1.0312,1.0064,0.9814,0.9569,0.9465,0.9309,0.9106,0.9054,1.9705,1.9705,1.9705,1.9705,1.9705,1.9705,1.9705,1.9705,1.9705,1.9705,1.9705,1.9705,1.9705,1.9705,1.9705,1.969,1.9705,1.9705,1.969,1.9675,1.969,1.953,1.9317,1.8968,1.865,1.8171,1.7827,1.7706,1.7666,1.7666,1.7558,1.7229,1.7312,1.7312,1.7188,1.6993,1.6866,1.6921,1.6879,1.6752,1.6565,1.6534,1.6534,1.6534,1.6534,1.6534,1.6479,1.6491,1.6324,1.5978,1.5492,1.4923,1.4484,1.3978,1.3908,1.389,1.365,1.3477,1.376,1.3948,1.3983,1.4372,1.4601,1.4696,1.4812,1.4631,1.4541,1.4228,1.392,1.3552,1.3027,1.2881,1.2939,1.2891,1.2939,1.2939,1.2939,1.2891,1.2891,1.2891,1.2871,1.2891,1.2891,1.2891,1.2891,1.2891,1.2891,1.2891,1.2891,1.2891,1.2891,1.2891,1.2891,1.2832,1.2832,1.2774,1.2676,1.2725,1.2725,1.2725,1.2569,1.2206,1.1841,1.1683,1.1475,1.1166,1.0864,1.0914,1.0864,1.0517,1.021,1.0012,0.9961,0.9909,0.9961,1.9782,1.9782,1.9711,1.9705,1.9705,1.9705,1.9705,1.9705,1.9705,1.9705,1.9705,1.9705,1.9705,1.9705,1.9705,1.9705,1.9705,1.9705,1.9705,1.9705,1.9705,1.969,1.9603,1.9493,1.9207,1.838,1.8249,1.821,1.821,1.8171,1.8106,1.8013,1.7827,1.7747,1.7894,1.7706,1.7422,1.7422,1.7435,1.7201,1.6837,1.6808,1.6879,1.6879,1.6723,1.6795,1.6837,1.6795,1.6637,1.6663,1.6565,1.5776,1.4928,1.4442,1.4442,1.4508,1.4454,1.458,1.491,1.5118,1.513,1.4994,1.5771,1.5897,1.5335,1.53,1.5312,1.4926,1.4501,1.3805,1.318,1.3334,1.3354,1.3316,1.322,1.3017,1.3017,1.2978,1.2891,1.2891,1.2891,1.2891,1.2891,1.2891,1.2891,1.2891,1.2891,1.2891,1.2891,1.2891,1.2891,1.2891,1.2891,1.2891,1.2891,1.2891,1.2891,1.2891,1.2891,1.2891,1.2891,1.2676,1.2304,1.2138,1.1931,1.1674,1.1575,1.1633,1.1484,1.1065,1.0889,1.0721,1.073,1.0805,1.0762,2.0193,2.0158,1.9854,1.9705,1.9705,1.9705,1.9705,1.9705,1.9705,1.9705,1.9705,1.9705,1.9705,1.9705,1.9705,1.9705,1.9705,1.9705,1.9705,1.9705,1.9705,1.9705,1.9705,1.9705,1.953,1.9406,1.9006,1.8765,1.8765,1.8765,1.8612,1.8288,1.8419,1.8496,1.821,1.7973,1.7973,1.7973,1.7947,1.7706,1.7353,1.7463,1.7653,1.7626,1.7299,1.7394,1.7598,1.7394,1.7227,1.7321,1.6833,1.6416,1.6003,1.5923,1.5923,1.5813,1.5485,1.5457,1.592,1.5756,1.5856,1.6076,1.6361,1.6486,1.62,1.6188,1.6017,1.5799,1.5131,1.4389,1.3968,1.4054,1.4477,1.4521,1.4114,1.3647,1.3552,1.3286,1.3027,1.3017,1.2978,1.2891,1.2891,1.2891,1.2891,1.2891,1.2891,1.2891,1.2891,1.2891,1.2891,1.2891,1.2891,1.2891,1.2891,1.2891,1.2891,1.2891,1.2891,1.2891,1.2891,1.2891,1.2725,1.251,1.251,1.2461,1.2412,1.2314,1.2098,1.1783,1.163,1.1469,1.1423,1.1384,1.1174,2.0516,2.0265,2.0089,1.9874,1.9726,1.9705,1.9705,1.9705,1.9705,1.9705,1.9705,1.9705,1.9705,1.9705,1.9705,1.9705,1.9705,1.9705,1.9705,1.9705,1.9705,1.9705,1.9705,1.9705,1.9705,1.9654,1.9406,1.9295,1.9332,1.9317,1.9132,1.9006,1.8968,1.8893,1.8855,1.865,1.8535,1.8535,1.8496,1.8263,1.7801,1.8027,1.8025,1.7851,1.7826,1.7948,1.8163,1.7961,1.7598,1.7393,1.7102,1.6808,1.6607,1.6534,1.6534,1.6423,1.6238,1.6139,1.6423,1.6182,1.6238,1.6436,1.6534,1.6534,1.6534,1.6448,1.6386,1.6005,1.5683,1.4869,1.4176,1.4539,1.4846,1.5062,1.4684,1.434,1.4143,1.3695,1.3467,1.3324,1.3152,1.3017,1.2891,1.2891,1.2891,1.2891,1.2891,1.2891,1.2891,1.2891,1.2891,1.2891,1.2891,1.2891,1.2891,1.2891,1.2891,1.2891,1.2891,1.2891,1.2891,1.2891,1.2891,1.2832,1.2881,1.2891,1.2832,1.2627,1.251,1.2452,1.2325,1.2159,1.203,1.19,1.1742,2.091,2.055,2.0483,2.0261,1.998,1.9945,1.9995,1.9945,1.998,1.9945,1.9854,1.9925,1.9889,1.9762,1.9705,1.9705,1.9705,1.9705,1.9705,1.9705,1.9705,1.9705,1.9705,1.9705,1.9705,1.969,1.9654,1.9705,1.9654,1.9654,1.969,1.953,1.9207,1.9258,1.9442,1.9207,1.908,1.9043,1.9043,1.8803,1.8496,1.8224,1.8115,1.799,1.8179,1.8436,1.8792,1.8475,1.8201,1.7895,1.7516,1.7118,1.6778,1.6565,1.6522,1.6534,1.6534,1.6534,1.6479,1.6479,1.6436,1.6534,1.6534,1.6534,1.6534,1.6479,1.6337,1.5908,1.5776,1.5564,1.4992,1.4959,1.5244,1.5392,1.521,1.4835,1.4698,1.4422,1.405,1.3779,1.342,1.32,1.3065,1.2891,1.2891,1.2891,1.2891,1.2891,1.2891,1.2891,1.2891,1.2891,1.2891,1.2891,1.2891,1.2891,1.2891,1.2891,1.2891,1.2891,1.2891,1.2891,1.2929,1.2978,1.2891,1.2891,1.2891,1.2891,1.2774,1.2725,1.2832,1.2783,1.252,1.2471,1.2421,2.1491,2.143,2.1039,2.0894,2.0829,2.0812,2.0845,2.0797,2.078,2.0599,2.0246,2.0565,2.0379,1.9889,1.9762,1.9726,1.9705,1.9705,1.9705,1.9705,1.9705,1.9705,1.9705,1.9705,1.9705,1.9705,1.9705,1.9705,1.9705,1.9705,1.9705,1.9654,1.9603,1.9639,1.9654,1.9566,1.9603,1.9566,1.9566,1.953,1.9317,1.8626,1.8712,1.9014,1.9029,1.8983,1.9302,1.9035,1.8851,1.9037,1.7949,1.7434,1.7321,1.6833,1.6577,1.6534,1.6534,1.6534,1.6534,1.6534,1.6534,1.6534,1.6534,1.6534,1.6534,1.6534,1.6436,1.6466,1.638,1.6238,1.5983,1.6151,1.6306,1.6088,1.5756,1.5555,1.5421,1.496,1.4641,1.4514,1.4201,1.36,1.3228,1.3065,1.2891,1.2891,1.2939,1.2978,1.3065,1.3258,1.3113,1.3162,1.3248,1.3296,1.3017,1.3027,1.2978,1.2929,1.3017,1.3017,1.3113,1.3152,1.3017,1.3017,1.2978,1.2939,1.2891,1.2891,1.2891,1.2891,1.2891,1.2891,1.2881,1.2891,1.2891,2.184,2.1582,2.1399,2.1229,2.1007,2.1007,2.1007,2.1007,2.1007,2.091,2.0748,2.0894,2.0632,2.0139,2.0035,1.9909,1.9762,1.9762,1.9726,1.9762,1.9762,1.9726,1.9705,1.9705,1.9705,1.9705,1.9705,1.9705,1.9705,1.9705,1.9705,1.9705,1.9705,1.969,1.9705,1.9705,1.969,1.969,1.969,1.9705,1.9566,1.9317,1.9207,1.9639,1.9442,1.9479,1.9566,1.953,1.925,1.9255,1.8408,1.812,1.7908,1.7612,1.7435,1.7435,1.7435,1.716,1.665,1.6565,1.6565,1.6534,1.6534,1.6534,1.6534,1.6534,1.6534,1.6479,1.6479,1.6534,1.6534,1.6534,1.6534,1.6392,1.6194,1.6151,1.592,1.5511,1.5186,1.5107,1.4926,1.4365,1.3946,1.3967,1.401,1.4015,1.3936,1.3847,1.3931,1.4118,1.3836,1.3515,1.3658,1.38,1.343,1.32,1.3104,1.3152,1.342,1.342,1.3457,1.342,1.342,1.3248,1.3162,1.3065,1.2978,1.2891,1.2891,1.2891,1.2891,1.2891,1.2891,1.2891,1.2891,2.2106,2.1764,2.1794,2.1615,2.1323,2.1339,2.1354,2.1323,2.1354,2.1291,2.1118,2.1055,2.0846,2.0649,2.0516,2.0364,2.007,2.0015,2.0015,2.0015,2.0015,1.9965,1.9945,1.9889,1.9818,1.9726,1.9705,1.9705,1.9705,1.9705,1.9705,1.9705,1.9705,1.9705,1.9705,1.9705,1.9705,1.9705,1.9705,1.9705,1.969,1.969,1.9654,1.9705,1.9705,1.9705,1.9705,1.9705,1.9457,1.9258,1.9136,1.8817,1.8369,1.8106,1.7947,1.7933,1.7933,1.772,1.7229,1.7034,1.6909,1.6879,1.6723,1.6795,1.671,1.6637,1.6534,1.6534,1.6534,1.6534,1.6534,1.6534,1.6534,1.6534,1.6436,1.6491,1.6436,1.6051,1.582,1.5788,1.5599,1.5342,1.5073,1.5084,1.5153,1.5165,1.5005,1.4731,1.4617,1.4606,1.4071,1.3563,1.3563,1.3705,1.343,1.319,1.319,1.3372,1.3637,1.3768,1.3768,1.392,1.4014,1.3789,1.3525,1.3621,1.38,1.3344,1.2891,1.2891,1.2891,1.2891,1.2891,1.2891,1.2891,2.2282,2.2254,2.2254,2.2209,2.2135,2.2225,2.218,2.2094,2.2152,2.1899,2.1521,2.1244,2.1275,2.1306,2.1086,2.0894,2.0862,2.0894,2.0812,2.0812,2.0862,2.055,2.0382,2.0227,2.0089,1.9889,1.9889,1.9869,1.9762,1.9854,1.9762,1.9741,1.9762,1.9726,1.9705,1.9705,1.9705,1.9705,1.9705,1.9705,1.9705,1.9705,1.9705,1.9705,1.9705,1.9705,1.9705,1.9705,1.969,1.9545,1.9531,1.9359,1.8884,1.8535,1.8419,1.838,1.838,1.8224,1.8013,1.7827,1.7907,1.7827,1.7585,1.7284,1.731,1.6795,1.6595,1.668,1.685,1.671,1.6637,1.6522,1.6765,1.6769,1.6799,1.6795,1.6752,1.6637,1.6398,1.6411,1.6225,1.5896,1.584,1.5832,1.5668,1.5674,1.5471,1.5209,1.4698,1.4514,1.3931,1.3478,1.3382,1.3344,1.32,1.3248,1.3695,1.3826,1.4003,1.405,1.405,1.4236,1.4652,1.4514,1.4329,1.4479,1.4433,1.3894,1.3392,1.3075,1.2929,1.3055,1.2968,1.2891,1.2891,2.2327,2.2327,2.2327,2.2327,2.2327,2.2327,2.2327,2.2327,2.2282,2.2209,2.2003,2.1886,2.1705,2.1598,2.1477,2.1213,2.1039,2.1007,2.1039,2.1007,2.0926,2.0894,2.0715,2.0715,2.0665,2.0514,2.0481,2.0514,2.0514,2.0193,2.0296,2.0311,2.0015,1.9762,1.9705,1.9726,1.9705,1.9705,1.9705,1.9705,1.9705,1.9705,1.9705,1.9705,1.9705,1.9705,1.9705,1.9705,1.9705,1.972,1.97,1.9531,1.9398,1.9095,1.9006,1.9006,1.8968,1.8968,1.8855,1.8549,1.8226,1.8335,1.8055,1.7854,1.7989,1.7693,1.7517,1.7517,1.7435,1.7299,1.7193,1.7369,1.7518,1.7342,1.722,1.7162,1.7063,1.6951,1.6795,1.6667,1.6552,1.6337,1.638,1.6436,1.6275,1.6125,1.5901,1.5644,1.5152,1.4744,1.4247,1.4014,1.3956,1.3988,1.3905,1.4071,1.4329,1.4376,1.4422,1.4503,1.463,1.496,1.5231,1.5141,1.5017,1.496,1.4743,1.4305,1.4025,1.381,1.3505,1.3341,1.318,1.3027,1.3027,2.2426,2.2398,2.2321,2.2327,2.2327,2.2327,2.2327,2.2327,2.2327,2.2327,2.2327,2.2282,2.2135,2.1869,2.1794,2.1705,2.1524,2.1462,2.1432,2.1446,2.1446,2.1291,2.1229,2.1166,2.1086,2.1071,2.1007,2.0975,2.0894,2.0649,2.0682,2.0665,2.0447,2.0154,1.9889,1.9747,1.9726,1.9705,1.9705,1.9705,1.9705,1.9705,1.9705,1.9705,1.9705,1.9705,1.9705,1.9705,1.9705,1.9705,1.972,1.9705,1.9705,1.9705,1.9705,1.9705,1.9705,1.9705,1.9493,1.9147,1.8707,1.8917,1.8796,1.8691,1.8584,1.8372,1.7947,1.7973,1.8013,1.7997,1.7809,1.7839,1.788,1.7679,1.7733,1.7706,1.7504,1.7353,1.7118,1.6879,1.6723,1.6534,1.6534,1.6534,1.6448,1.6231,1.5888,1.5732,1.5555,1.5242,1.5062,1.4903,1.4869,1.488,1.4971,1.4903,1.4822,1.4857,1.4983,1.5231,1.5398,1.5676,1.582,1.582,1.5668,1.5402,1.544,1.5637,1.5223,1.4674,1.4236,1.3711,1.3768,1.3658,1.3382,2.2686,2.266,2.2415,2.2327,2.2327,2.2327,2.2327,2.2327,2.2327,2.2327,2.2327,2.2327,2.2299,2.2225,2.218,2.2123,2.2123,2.2123,2.2123,2.2077,2.2003,2.1915,2.1735,2.1568,2.1507,2.1103,2.1166,2.1229,2.1134,2.1007,2.1055,2.1071,2.091,2.0599,2.0296,1.9874,1.9726,1.9705,1.9705,1.9705,1.9705,1.9705,1.9705,1.9705,1.9705,1.9705,1.9705,1.9705,1.9705,1.9705,1.9705,1.9705,1.9705,1.9705,1.9705,1.9705,1.9705,1.9705,1.969,1.9603,1.9545,1.9501,1.9315,1.9284,1.8912,1.8535,1.8327,1.8496,1.8366,1.8249,1.8157,1.8157,1.8235,1.8313,1.8366,1.8249,1.8052,1.7706,1.7435,1.7034,1.6723,1.6534,1.6534,1.6534,1.6534,1.6293,1.592,1.5776,1.582,1.5788,1.5656,1.5588,1.5552,1.5499,1.548,1.5382,1.5359,1.5393,1.5482,1.5724,1.5908,1.6051,1.6238,1.6367,1.6275,1.5973,1.6606,1.726,1.6611,1.5858,1.4649,1.4133,1.4247,1.4201,1.3873,2.2695,2.2686,2.2398,2.2327,2.2327,2.2327,2.2327,2.2327,2.2327,2.2327,2.2327,2.2327,2.2327,2.2327,2.2327,2.2327,2.2327,2.2327,2.2327,2.2327,2.2327,2.2237,2.2061,2.2003,2.1928,2.1886,2.1857,2.1847,2.1886,2.1716,2.1694,2.1705,2.1407,2.0764,2.033,1.9945,1.9705,1.9705,1.9705,1.9705,1.9705,1.9705,1.9705,1.9705,1.9705,1.9705,1.9705,1.9705,1.9705,1.9705,1.9705,1.9705,1.9705,1.9705,1.972,1.972,1.972,1.9705,1.9705,1.969,1.969,1.9765,1.9692,1.9612,1.9384,1.9281,1.9207,1.9132,1.902,1.9058,1.9155,1.9169,1.9207,1.9192,1.9207,1.8968,1.8688,1.8171,1.7747,1.7271,1.6879,1.6607,1.6534,1.6534,1.6534,1.6534,1.6194,1.6151,1.6207,1.625,1.6207,1.6194,1.6139,1.6076,1.5993,1.5993,1.5957,1.5929,1.6037,1.6219,1.6392,1.6392,1.6436,1.6436,1.6541,1.6685,1.7287,1.7777,1.7688,1.7024,1.5916,1.5049,1.5015,1.4797,1.4294,2.2695,2.2686,2.2398,2.2327,2.2327,2.2327,2.2327,2.2327,2.2327,2.2327,2.2327,2.2327,2.2327,2.2327,2.2327,2.2327,2.2327,2.2327,2.2327,2.2327,2.2327,2.2282,2.2282,2.2327,2.2225,2.2361,2.2598,2.2688,2.2697,2.2672,2.2715,2.2611,2.2053,2.1462,2.0794,2.0157,1.9705,1.9705,1.9705,1.9705,1.9705,1.9705,1.9705,1.9705,1.9705,1.9705,1.9705,1.9705,1.972,1.9735,1.9735,1.9735,1.9735,1.972,1.9824,1.9944,2.0064,1.9959,1.9779,1.9705,1.9861,2.0205,1.9921,1.9741,1.9705,1.9617,1.9617,1.9654,1.9705,1.969,1.9654,1.9705,1.969,1.969,1.9603,1.9369,1.9169,1.865,1.8249,1.7747,1.7066,1.6811,1.6607,1.6534,1.6534,1.6534,1.6479,1.6602,1.6627,1.6534,1.6534,1.6479,1.6504,1.6399,1.6511,1.6729,1.6642,1.6516,1.6622,1.6722,1.6491,1.6436,1.6479,1.6609,1.6835,1.7187,1.7827,1.8157,1.8259,1.8014,1.7345,1.6573,1.6009,1.5614,1.5208,2.2695,2.266,2.2426,2.2327,2.2327,2.2327,2.2327,2.2327,2.2327,2.2327,2.2327,2.2327,2.2327,2.2327,2.2327,2.2327,2.2327,2.2327,2.2327,2.2327,2.2327,2.2327,2.2327,2.2327,2.2327,2.2564,2.2852,2.3156,2.341,2.3722,2.384,2.3556,2.2959,2.222,2.1321,2.05,1.9981,1.9794,1.9705,1.9779,1.9884,1.9854,1.9989,2.0064,2.0124,2.0079,2.0049,2.0034,2.0019,2.001,1.9899,1.9854,1.9794,1.9786,2.0154,2.0483,2.0647,2.0423,2.0124,2.0079,2.0213,2.0587,2.0317,1.9951,1.9816,1.9861,1.9705,1.9705,1.9705,1.9705,1.9705,1.9705,1.9705,1.969,1.969,1.9603,1.953,1.9207,1.8893,1.8299,1.7518,1.7137,1.7005,1.6905,1.7444,1.7375,1.7525,1.7613,1.7463,1.6602,1.6559,1.6547,1.6541,1.6647,1.6867,1.7238,1.7402,1.7327,1.7087,1.7099,1.6835,1.666,1.676,1.6948,1.7237,1.7689,1.8317,1.8731,1.8933,1.8646,1.8336,1.7842,1.7169,1.7062,1.6788,2.2695,2.2686,2.2398,2.2327,2.2327,2.2327,2.2327,2.2327,2.2327,2.2327,2.2327,2.2327,2.2327,2.2327,2.2327,2.2327,2.2327,2.2327,2.2327,2.2327,2.2327,2.2327,2.2327,2.2344,2.2327,2.2598,2.3004,2.3562,2.3596,2.4218,2.4307,2.3687,2.3576,2.2825,2.2013,2.1091,2.0535,2.001,1.9942,2.0064,2.0303,2.0408,2.0602,2.0827,2.0917,2.0818,2.0652,2.0848,2.1045,2.1355,2.087,2.0733,2.1111,2.082,2.0798,2.0722,2.1051,2.1306,2.1111,2.0801,2.0792,2.1087,2.0993,2.0956,2.0595,2.0145,1.9794,1.9705,1.9705,1.972,1.9839,1.9884,1.9884,1.9884,1.9884,1.9869,1.9796,1.9583,1.9232,1.8825,1.8057,1.7747,1.7621,1.8453,1.8934,1.8672,1.856,1.8638,1.8355,1.751,1.7053,1.701,1.6936,1.7099,1.737,1.7776,1.7979,1.8113,1.789,1.763,1.73,1.7174,1.7137,1.7388,1.784,1.8304,1.877,1.9096,1.9397,1.9535,1.9258,1.882,1.847,1.8239,1.7971,2.288,2.2873,2.2721,2.266,2.2651,2.2517,2.248,2.2436,2.2349,2.2327,2.2327,2.2327,2.2327,2.2327,2.2327,2.2327,2.2327,2.2327,2.2327,2.2327,2.2327,2.2327,2.2344,2.2547,2.2564,2.2852,2.346,2.4272,2.4205,2.4816,2.5128,2.4709,2.4294,2.3747,2.3169,2.2621,2.196,2.1237,2.078,2.07,2.0887,2.1135,2.1395,2.1674,2.1819,2.1635,2.1451,2.1749,2.1879,2.2064,2.1396,2.1396,2.1739,2.1584,2.1374,2.1395,2.1724,2.1814,2.162,2.1391,2.1431,2.16,2.1738,2.1663,2.1196,2.0625,2.01,1.9705,1.972,1.9765,1.9959,2.0109,2.0124,2.0124,2.0124,2.0124,1.9998,1.9834,1.956,1.9269,1.8913,1.8576,1.892,1.9874,2.0212,1.967,1.9403,1.9486,1.9241,1.8574,1.8135,1.8033,1.7823,1.7735,1.8042,1.8418,1.8657,1.8832,1.8827,1.8503,1.8025,1.7798,1.7882,1.8163,1.8555,1.8981,1.9433,1.9535,1.9723,1.9901,1.994,1.9535,1.9183,1.9083,1.8796,2.3189,2.3189,2.3189,2.3159,2.3124,2.2873,2.2746,2.2695,2.2517,2.2349,2.231,2.2327,2.2327,2.2327,2.2327,2.2327,2.2327,2.2327,2.2327,2.2327,2.2327,2.2327,2.253,2.2953,2.2919,2.3342,2.4086,2.505,2.5152,2.5644,2.6084,2.6033,2.5812,2.5127,2.4217,2.4143,2.3634,2.3065,2.2384,2.2063,2.2009,2.1952,2.1904,2.2158,2.2228,2.2158,2.2103,2.2073,2.1949,2.2003,2.2009,2.2109,2.2154,2.2516,2.2395,2.244,2.2802,2.2772,2.262,2.2467,2.2586,2.2536,2.232,2.2474,2.2187,2.1166,2.052,2.0333,2.0408,2.0385,2.0512,2.046,2.0438,2.0453,2.0453,2.0438,2.0348,2.0338,2.0406,2.0175,2.003,1.9803,2.0266,2.1152,2.151,2.0769,2.0514,2.0614,2.0454,1.9918,1.9391,1.9173,1.8995,1.8904,1.9081,1.937,1.9439,1.9543,1.9612,1.9501,1.9101,1.8848,1.8646,1.9121,1.9613,1.9757,2.0027,2.0218,2.037,2.032,2.0333,2.0093,1.9927,1.9826,1.9535,2.3189,2.3189,2.3189,2.3189,2.3189,2.3117,2.3076,2.3069,2.2996,2.2712,2.2394,2.231,2.231,2.2338,2.2321,2.2321,2.231,2.2327,2.2327,2.2327,2.2327,2.2412,2.2513,2.3156,2.3257,2.3731,2.4628,2.5761,2.6048,2.6421,2.647,2.6068,2.6049,2.5655,2.5088,2.5169,2.5024,2.4636,2.4447,2.3822,2.3607,2.3686,2.3765,2.4074,2.4225,2.4069,2.4084,2.4209,2.4295,2.4358,2.3909,2.3542,2.3086,2.3671,2.3833,2.3777,2.4037,2.403,2.3944,2.3834,2.3951,2.3936,2.3802,2.3774,2.3262,2.1965,2.1308,2.1225,2.1126,2.1048,2.0995,2.0908,2.0812,2.0865,2.091,2.0842,2.0827,2.1034,2.1253,2.1247,2.1156,2.1403,2.178,2.2125,2.2473,2.2461,2.2179,2.2184,2.2308,2.193,2.0878,2.0559,2.0388,2.0302,2.0292,2.0427,2.057,2.0489,2.0543,2.0381,2.0159,2.0014,1.9932,2.0342,2.0735,2.0713,2.0846,2.1178,2.1218,2.0988,2.089,2.0756,2.0673,2.062,2.0219,2.3649,2.3649,2.3631,2.3649,2.3628,2.3482,2.3432,2.341,2.3259,2.3014,2.2738,2.2686,2.2634,2.2517,2.249,2.236,2.2321,2.2327,2.2327,2.2327,2.2412,2.2598,2.2936,2.3494,2.3799,2.4239,2.5033,2.593,2.659,2.6691,2.6505,2.6297,2.6262,2.6156,2.5852,2.6023,2.604,2.5875,2.6056,2.5724,2.5108,2.5009,2.4831,2.5173,2.5221,2.5221,2.5221,2.5221,2.5182,2.5166,2.4776,2.4469,2.4147,2.4438,2.4657,2.4684,2.4872,2.5134,2.507,2.5093,2.5125,2.4852,2.4798,2.4585,2.4745,2.3599,2.264,2.2455,2.1618,2.1416,2.1689,2.1708,2.1672,2.1696,2.1789,2.1829,2.1994,2.2222,2.2405,2.2497,2.2485,2.2572,2.2837,2.2867,2.3173,2.3173,2.3071,2.3026,2.3271,2.3319,2.244,2.1844,2.1577,2.1129,2.0799,2.1218,2.1815,2.1681,2.1403,2.1236,2.1093,2.1167,2.1272,2.1336,2.1411,2.1445,2.1588,2.1941,2.1758,2.1411,2.1459,2.1459,2.1437,2.1493,2.1252,2.417,2.419,2.419,2.419,2.417,2.3896,2.3774,2.3732,2.3459,2.3369,2.3346,2.3323,2.3076,2.2797,2.2652,2.2473,2.236,2.231,2.2327,2.2361,2.2479,2.2801,2.3444,2.4154,2.4577,2.5,2.5609,2.6133,2.6674,2.6691,2.6691,2.6708,2.6708,2.6657,2.6708,2.6674,2.6556,2.6505,2.6555,2.6607,2.6298,2.5908,2.5603,2.5454,2.5411,2.5411,2.5411,2.5411,2.5411,2.5363,2.5405,2.5142,2.5034,2.5131,2.533,2.5464,2.5538,2.5582,2.5491,2.5566,2.5373,2.5217,2.5309,2.5443,2.5616,2.5104,2.4137,2.3503,2.2663,2.2313,2.2644,2.2668,2.2607,2.2646,2.2747,2.2858,2.3088,2.3288,2.3396,2.3561,2.349,2.3505,2.352,2.3565,2.358,2.3595,2.3595,2.3595,2.3551,2.3508,2.3097,2.2688,2.2482,2.2038,2.1654,2.1931,2.2696,2.2577,2.2252,2.2122,2.2011,2.207,2.2027,2.1909,2.1946,2.2179,2.2324,2.2562,2.2259,2.2222,2.281,2.3089,2.2754,2.2706,2.2519,2.419,2.419,2.419,2.419,2.419,2.4132,2.4094,2.4094,2.4034,2.4016,2.3937,2.3917,2.3584,2.2712,2.2436,2.2377,2.2497,2.2456,2.2372,2.2344,2.309,2.3328,2.3863,2.4929,2.5642,2.6031,2.6251,2.6522,2.6708,2.6708,2.6708,2.6708,2.6708,2.6708,2.6708,2.6708,2.6708,2.6708,2.6708,2.6708,2.6708,2.647,2.647,2.6419,2.6419,2.6419,2.6419,2.6436,2.6419,2.6318,2.6045,2.5834,2.5776,2.5786,2.5944,2.6087,2.6175,2.621,2.6158,2.6175,2.5988,2.604,2.6158,2.621,2.6225,2.5994,2.537,2.5261,2.4617,2.4182,2.4261,2.3907,2.3765,2.3796,2.3894,2.3904,2.4024,2.3999,2.3956,2.3806,2.358,2.358,2.3565,2.358,2.3595,2.3595,2.3595,2.3595,2.3595,2.3595,2.364,2.3421,2.3231,2.3348,2.3142,2.2834,2.3216,2.3187,2.3009,2.2665,2.2606,2.2935,2.2891,2.2606,2.2815,2.3157,2.3275,2.3281,2.3666,2.3841,2.4631,2.4897,2.4365,2.4012,2.3844]}]]